<?xml version="1.0" encoding="UTF-8" standalone="no" ?>
<gpx xmlns="http://www.topografix.com/GPX/1/1" xmlns:xsi="http://www.w3.org/2001/XMLSchema-instance" xsi:schemaLocation="http://www.topografix.com/GPX/1/1 http://www.topografix.com/GPX/1/1/gpx.xsd" version="1.1" creator="VisuGPX - https://www.visugpx.com">
  <metadata>
    <name>La Lance</name>
    <desc><![CDATA[Sortie du dimanche à la journée effectuée par 5 membres du SCLapalud]]></desc>
  </metadata>
  <trk>
    <name><![CDATA[La Lance 16112014 GF]]></name>
    <trkseg>
      <trkpt lat="44.42793" lon="5.08402">
        <ele>522.133179</ele>
        <time>2014-11-16T09:06:49Z</time>
      </trkpt>
      <trkpt lat="44.42792" lon="5.08402">
        <ele>521.652588</ele>
        <time>2014-11-16T09:07:01Z</time>
      </trkpt>
      <trkpt lat="44.42795" lon="5.084">
        <ele>521.652588</ele>
        <time>2014-11-16T09:07:28Z</time>
      </trkpt>
      <trkpt lat="44.42806" lon="5.08404">
        <ele>523.575195</ele>
        <time>2014-11-16T09:07:43Z</time>
      </trkpt>
      <trkpt lat="44.42813" lon="5.08409">
        <ele>524.536499</ele>
        <time>2014-11-16T09:07:56Z</time>
      </trkpt>
      <trkpt lat="44.42817" lon="5.08412">
        <ele>525.017212</ele>
        <time>2014-11-16T09:08:03Z</time>
      </trkpt>
      <trkpt lat="44.42831" lon="5.08423">
        <ele>526.459106</ele>
        <time>2014-11-16T09:08:16Z</time>
      </trkpt>
      <trkpt lat="44.4284" lon="5.08428">
        <ele>527.901001</ele>
        <time>2014-11-16T09:08:25Z</time>
      </trkpt>
      <trkpt lat="44.42855" lon="5.0844">
        <ele>529.34314</ele>
        <time>2014-11-16T09:08:40Z</time>
      </trkpt>
      <trkpt lat="44.42863" lon="5.08447">
        <ele>531.265747</ele>
        <time>2014-11-16T09:08:54Z</time>
      </trkpt>
      <trkpt lat="44.42876" lon="5.08457">
        <ele>532.707764</ele>
        <time>2014-11-16T09:09:13Z</time>
      </trkpt>
      <trkpt lat="44.42895" lon="5.08471">
        <ele>535.591553</ele>
        <time>2014-11-16T09:09:35Z</time>
      </trkpt>
      <trkpt lat="44.42913" lon="5.08489">
        <ele>537.033691</ele>
        <time>2014-11-16T09:09:54Z</time>
      </trkpt>
      <trkpt lat="44.42921" lon="5.08504">
        <ele>537.994995</ele>
        <time>2014-11-16T09:10:10Z</time>
      </trkpt>
      <trkpt lat="44.4293" lon="5.08521">
        <ele>538.475708</ele>
        <time>2014-11-16T09:10:25Z</time>
      </trkpt>
      <trkpt lat="44.42936" lon="5.08526">
        <ele>538.475708</ele>
        <time>2014-11-16T09:10:34Z</time>
      </trkpt>
      <trkpt lat="44.42943" lon="5.08531">
        <ele>538.956299</ele>
        <time>2014-11-16T09:10:39Z</time>
      </trkpt>
      <trkpt lat="44.42955" lon="5.0854">
        <ele>539.43689</ele>
        <time>2014-11-16T09:10:52Z</time>
      </trkpt>
      <trkpt lat="44.42963" lon="5.08544">
        <ele>539.917603</ele>
        <time>2014-11-16T09:11:00Z</time>
      </trkpt>
      <trkpt lat="44.42973" lon="5.08554">
        <ele>540.878906</ele>
        <time>2014-11-16T09:11:15Z</time>
      </trkpt>
      <trkpt lat="44.42985" lon="5.08563">
        <ele>542.801514</ele>
        <time>2014-11-16T09:11:32Z</time>
      </trkpt>
      <trkpt lat="44.43004" lon="5.08575">
        <ele>545.204834</ele>
        <time>2014-11-16T09:11:57Z</time>
      </trkpt>
      <trkpt lat="44.43019" lon="5.08582">
        <ele>547.608154</ele>
        <time>2014-11-16T09:12:16Z</time>
      </trkpt>
      <trkpt lat="44.43029" lon="5.08586">
        <ele>549.050049</ele>
        <time>2014-11-16T09:12:29Z</time>
      </trkpt>
      <trkpt lat="44.43044" lon="5.0859">
        <ele>550.972656</ele>
        <time>2014-11-16T09:12:47Z</time>
      </trkpt>
      <trkpt lat="44.43061" lon="5.08596">
        <ele>551.934082</ele>
        <time>2014-11-16T09:13:03Z</time>
      </trkpt>
      <trkpt lat="44.43068" lon="5.08593">
        <ele>552.895264</ele>
        <time>2014-11-16T09:13:10Z</time>
      </trkpt>
      <trkpt lat="44.43082" lon="5.08594">
        <ele>553.856689</ele>
        <time>2014-11-16T09:13:23Z</time>
      </trkpt>
      <trkpt lat="44.4309" lon="5.08589">
        <ele>555.298584</ele>
        <time>2014-11-16T09:13:37Z</time>
      </trkpt>
      <trkpt lat="44.43099" lon="5.08585">
        <ele>556.740723</ele>
        <time>2014-11-16T09:13:53Z</time>
      </trkpt>
      <trkpt lat="44.43113" lon="5.08599">
        <ele>559.144043</ele>
        <time>2014-11-16T09:14:09Z</time>
      </trkpt>
      <trkpt lat="44.43118" lon="5.08602">
        <ele>559.144043</ele>
        <time>2014-11-16T09:14:13Z</time>
      </trkpt>
      <trkpt lat="44.43124" lon="5.08608">
        <ele>559.624756</ele>
        <time>2014-11-16T09:14:21Z</time>
      </trkpt>
      <trkpt lat="44.43132" lon="5.08615">
        <ele>560.585938</ele>
        <time>2014-11-16T09:14:29Z</time>
      </trkpt>
      <trkpt lat="44.43141" lon="5.08627">
        <ele>561.547363</ele>
        <time>2014-11-16T09:14:46Z</time>
      </trkpt>
      <trkpt lat="44.43145" lon="5.08634">
        <ele>562.028076</ele>
        <time>2014-11-16T09:14:55Z</time>
      </trkpt>
      <trkpt lat="44.4315" lon="5.08646">
        <ele>562.989258</ele>
        <time>2014-11-16T09:15:04Z</time>
      </trkpt>
      <trkpt lat="44.43156" lon="5.08658">
        <ele>563.950439</ele>
        <time>2014-11-16T09:15:15Z</time>
      </trkpt>
      <trkpt lat="44.43157" lon="5.08661">
        <ele>563.950439</ele>
        <time>2014-11-16T09:15:20Z</time>
      </trkpt>
      <trkpt lat="44.43157" lon="5.08672">
        <ele>564.911865</ele>
        <time>2014-11-16T09:15:30Z</time>
      </trkpt>
      <trkpt lat="44.43161" lon="5.08684">
        <ele>565.873291</ele>
        <time>2014-11-16T09:15:39Z</time>
      </trkpt>
      <trkpt lat="44.43165" lon="5.08694">
        <ele>566.35376</ele>
        <time>2014-11-16T09:15:47Z</time>
      </trkpt>
      <trkpt lat="44.43168" lon="5.087">
        <ele>566.834473</ele>
        <time>2014-11-16T09:15:53Z</time>
      </trkpt>
      <trkpt lat="44.43174" lon="5.08706">
        <ele>567.315186</ele>
        <time>2014-11-16T09:15:59Z</time>
      </trkpt>
      <trkpt lat="44.43182" lon="5.08713">
        <ele>567.795654</ele>
        <time>2014-11-16T09:16:07Z</time>
      </trkpt>
      <trkpt lat="44.43186" lon="5.0872">
        <ele>568.276367</ele>
        <time>2014-11-16T09:16:15Z</time>
      </trkpt>
      <trkpt lat="44.43192" lon="5.08728">
        <ele>569.237793</ele>
        <time>2014-11-16T09:16:22Z</time>
      </trkpt>
      <trkpt lat="44.43197" lon="5.08736">
        <ele>570.679688</ele>
        <time>2014-11-16T09:16:30Z</time>
      </trkpt>
      <trkpt lat="44.43199" lon="5.08736">
        <ele>571.1604</ele>
        <time>2014-11-16T09:16:39Z</time>
      </trkpt>
      <trkpt lat="44.4321" lon="5.08743">
        <ele>572.121826</ele>
        <time>2014-11-16T09:16:49Z</time>
      </trkpt>
      <trkpt lat="44.43218" lon="5.08747">
        <ele>573.083252</ele>
        <time>2014-11-16T09:16:56Z</time>
      </trkpt>
      <trkpt lat="44.43226" lon="5.08742">
        <ele>574.044434</ele>
        <time>2014-11-16T09:17:05Z</time>
      </trkpt>
      <trkpt lat="44.43235" lon="5.08742">
        <ele>575.005859</ele>
        <time>2014-11-16T09:17:14Z</time>
      </trkpt>
      <trkpt lat="44.43237" lon="5.08741">
        <ele>575.486328</ele>
        <time>2014-11-16T09:17:17Z</time>
      </trkpt>
      <trkpt lat="44.43241" lon="5.08742">
        <ele>576.447754</ele>
        <time>2014-11-16T09:17:24Z</time>
      </trkpt>
      <trkpt lat="44.43251" lon="5.08742">
        <ele>577.889648</ele>
        <time>2014-11-16T09:17:36Z</time>
      </trkpt>
      <trkpt lat="44.43255" lon="5.0875">
        <ele>578.851074</ele>
        <time>2014-11-16T09:17:47Z</time>
      </trkpt>
      <trkpt lat="44.43262" lon="5.08763">
        <ele>579.812256</ele>
        <time>2014-11-16T09:17:56Z</time>
      </trkpt>
      <trkpt lat="44.43259" lon="5.08771">
        <ele>580.773682</ele>
        <time>2014-11-16T09:18:04Z</time>
      </trkpt>
      <trkpt lat="44.43257" lon="5.08772">
        <ele>580.773682</ele>
        <time>2014-11-16T09:18:05Z</time>
      </trkpt>
      <trkpt lat="44.43256" lon="5.08779">
        <ele>581.734863</ele>
        <time>2014-11-16T09:18:11Z</time>
      </trkpt>
      <trkpt lat="44.43255" lon="5.08781">
        <ele>581.734863</ele>
        <time>2014-11-16T09:18:13Z</time>
      </trkpt>
      <trkpt lat="44.43257" lon="5.08801">
        <ele>583.176758</ele>
        <time>2014-11-16T09:18:27Z</time>
      </trkpt>
      <trkpt lat="44.43259" lon="5.08803">
        <ele>583.176758</ele>
        <time>2014-11-16T09:18:29Z</time>
      </trkpt>
      <trkpt lat="44.43266" lon="5.08814">
        <ele>584.138184</ele>
        <time>2014-11-16T09:18:39Z</time>
      </trkpt>
      <trkpt lat="44.43272" lon="5.08816">
        <ele>585.580078</ele>
        <time>2014-11-16T09:18:49Z</time>
      </trkpt>
      <trkpt lat="44.43275" lon="5.08819">
        <ele>586.060791</ele>
        <time>2014-11-16T09:18:53Z</time>
      </trkpt>
      <trkpt lat="44.43282" lon="5.08818">
        <ele>587.021973</ele>
        <time>2014-11-16T09:18:59Z</time>
      </trkpt>
      <trkpt lat="44.43286" lon="5.08819">
        <ele>587.502686</ele>
        <time>2014-11-16T09:19:05Z</time>
      </trkpt>
      <trkpt lat="44.43294" lon="5.08817">
        <ele>587.502686</ele>
        <time>2014-11-16T09:19:14Z</time>
      </trkpt>
      <trkpt lat="44.43295" lon="5.08817">
        <ele>587.502686</ele>
        <time>2014-11-16T09:19:15Z</time>
      </trkpt>
      <trkpt lat="44.43304" lon="5.08817">
        <ele>587.983398</ele>
        <time>2014-11-16T09:19:25Z</time>
      </trkpt>
      <trkpt lat="44.43306" lon="5.08818">
        <ele>588.464355</ele>
        <time>2014-11-16T09:19:26Z</time>
      </trkpt>
      <trkpt lat="44.43316" lon="5.0882">
        <ele>588.945068</ele>
        <time>2014-11-16T09:19:35Z</time>
      </trkpt>
      <trkpt lat="44.43323" lon="5.08818">
        <ele>589.425537</ele>
        <time>2014-11-16T09:19:42Z</time>
      </trkpt>
      <trkpt lat="44.43325" lon="5.08817">
        <ele>589.90625</ele>
        <time>2014-11-16T09:19:50Z</time>
      </trkpt>
      <trkpt lat="44.43327" lon="5.08815">
        <ele>590.867432</ele>
        <time>2014-11-16T09:19:57Z</time>
      </trkpt>
      <trkpt lat="44.43335" lon="5.08824">
        <ele>591.828857</ele>
        <time>2014-11-16T09:20:03Z</time>
      </trkpt>
      <trkpt lat="44.43336" lon="5.08822">
        <ele>592.30957</ele>
        <time>2014-11-16T09:20:12Z</time>
      </trkpt>
      <trkpt lat="44.43342" lon="5.08826">
        <ele>592.790283</ele>
        <time>2014-11-16T09:20:21Z</time>
      </trkpt>
      <trkpt lat="44.4335" lon="5.08825">
        <ele>593.751465</ele>
        <time>2014-11-16T09:20:29Z</time>
      </trkpt>
      <trkpt lat="44.43359" lon="5.08827">
        <ele>595.193359</ele>
        <time>2014-11-16T09:20:40Z</time>
      </trkpt>
      <trkpt lat="44.4336" lon="5.08828">
        <ele>595.193359</ele>
        <time>2014-11-16T09:20:41Z</time>
      </trkpt>
      <trkpt lat="44.4337" lon="5.08829">
        <ele>596.635498</ele>
        <time>2014-11-16T09:20:50Z</time>
      </trkpt>
      <trkpt lat="44.43378" lon="5.08827">
        <ele>597.59668</ele>
        <time>2014-11-16T09:20:59Z</time>
      </trkpt>
      <trkpt lat="44.43381" lon="5.08827">
        <ele>598.557861</ele>
        <time>2014-11-16T09:21:04Z</time>
      </trkpt>
      <trkpt lat="44.43386" lon="5.08828">
        <ele>599.519287</ele>
        <time>2014-11-16T09:21:13Z</time>
      </trkpt>
      <trkpt lat="44.43392" lon="5.08836">
        <ele>600.480713</ele>
        <time>2014-11-16T09:21:19Z</time>
      </trkpt>
      <trkpt lat="44.43398" lon="5.08842">
        <ele>600.961182</ele>
        <time>2014-11-16T09:21:28Z</time>
      </trkpt>
      <trkpt lat="44.43402" lon="5.08846">
        <ele>601.441895</ele>
        <time>2014-11-16T09:21:36Z</time>
      </trkpt>
      <trkpt lat="44.43408" lon="5.08855">
        <ele>602.403076</ele>
        <time>2014-11-16T09:21:45Z</time>
      </trkpt>
      <trkpt lat="44.43416" lon="5.08866">
        <ele>603.845215</ele>
        <time>2014-11-16T09:21:57Z</time>
      </trkpt>
      <trkpt lat="44.43422" lon="5.08875">
        <ele>604.806641</ele>
        <time>2014-11-16T09:22:08Z</time>
      </trkpt>
      <trkpt lat="44.43424" lon="5.08876">
        <ele>605.287354</ele>
        <time>2014-11-16T09:22:11Z</time>
      </trkpt>
      <trkpt lat="44.43433" lon="5.0888">
        <ele>606.248535</ele>
        <time>2014-11-16T09:22:20Z</time>
      </trkpt>
      <trkpt lat="44.43442" lon="5.08884">
        <ele>607.690674</ele>
        <time>2014-11-16T09:22:30Z</time>
      </trkpt>
      <trkpt lat="44.4345" lon="5.08891">
        <ele>608.651855</ele>
        <time>2014-11-16T09:22:41Z</time>
      </trkpt>
      <trkpt lat="44.43455" lon="5.08893">
        <ele>609.132568</ele>
        <time>2014-11-16T09:22:53Z</time>
      </trkpt>
      <trkpt lat="44.43461" lon="5.08901">
        <ele>610.574463</ele>
        <time>2014-11-16T09:23:05Z</time>
      </trkpt>
      <trkpt lat="44.43466" lon="5.08914">
        <ele>612.016602</ele>
        <time>2014-11-16T09:23:16Z</time>
      </trkpt>
      <trkpt lat="44.4347" lon="5.08926">
        <ele>613.458496</ele>
        <time>2014-11-16T09:23:27Z</time>
      </trkpt>
      <trkpt lat="44.43473" lon="5.08934">
        <ele>614.900391</ele>
        <time>2014-11-16T09:23:35Z</time>
      </trkpt>
      <trkpt lat="44.43477" lon="5.08942">
        <ele>615.861816</ele>
        <time>2014-11-16T09:23:43Z</time>
      </trkpt>
      <trkpt lat="44.43479" lon="5.08948">
        <ele>617.303711</ele>
        <time>2014-11-16T09:23:50Z</time>
      </trkpt>
      <trkpt lat="44.43482" lon="5.08955">
        <ele>618.264893</ele>
        <time>2014-11-16T09:23:58Z</time>
      </trkpt>
      <trkpt lat="44.43485" lon="5.08963">
        <ele>619.226318</ele>
        <time>2014-11-16T09:24:05Z</time>
      </trkpt>
      <trkpt lat="44.43488" lon="5.08973">
        <ele>620.668457</ele>
        <time>2014-11-16T09:24:16Z</time>
      </trkpt>
      <trkpt lat="44.43492" lon="5.08983">
        <ele>621.629639</ele>
        <time>2014-11-16T09:24:25Z</time>
      </trkpt>
      <trkpt lat="44.43496" lon="5.0899">
        <ele>622.591064</ele>
        <time>2014-11-16T09:24:32Z</time>
      </trkpt>
      <trkpt lat="44.43498" lon="5.08998">
        <ele>623.55249</ele>
        <time>2014-11-16T09:24:39Z</time>
      </trkpt>
      <trkpt lat="44.43501" lon="5.09005">
        <ele>624.513672</ele>
        <time>2014-11-16T09:24:46Z</time>
      </trkpt>
      <trkpt lat="44.43503" lon="5.0901">
        <ele>625.474854</ele>
        <time>2014-11-16T09:24:52Z</time>
      </trkpt>
      <trkpt lat="44.43505" lon="5.09017">
        <ele>626.436279</ele>
        <time>2014-11-16T09:24:59Z</time>
      </trkpt>
      <trkpt lat="44.43507" lon="5.09026">
        <ele>627.878174</ele>
        <time>2014-11-16T09:25:08Z</time>
      </trkpt>
      <trkpt lat="44.43508" lon="5.0903">
        <ele>629.320068</ele>
        <time>2014-11-16T09:25:17Z</time>
      </trkpt>
      <trkpt lat="44.4351" lon="5.09036">
        <ele>630.281494</ele>
        <time>2014-11-16T09:25:24Z</time>
      </trkpt>
      <trkpt lat="44.43512" lon="5.09042">
        <ele>631.24292</ele>
        <time>2014-11-16T09:25:31Z</time>
      </trkpt>
      <trkpt lat="44.43512" lon="5.09048">
        <ele>631.723389</ele>
        <time>2014-11-16T09:25:37Z</time>
      </trkpt>
      <trkpt lat="44.43514" lon="5.09052">
        <ele>632.684814</ele>
        <time>2014-11-16T09:25:42Z</time>
      </trkpt>
      <trkpt lat="44.4352" lon="5.09059">
        <ele>633.645996</ele>
        <time>2014-11-16T09:25:49Z</time>
      </trkpt>
      <trkpt lat="44.43523" lon="5.09063">
        <ele>634.607422</ele>
        <time>2014-11-16T09:25:54Z</time>
      </trkpt>
      <trkpt lat="44.43526" lon="5.09071">
        <ele>636.049561</ele>
        <time>2014-11-16T09:26:03Z</time>
      </trkpt>
      <trkpt lat="44.4353" lon="5.09081">
        <ele>637.491455</ele>
        <time>2014-11-16T09:26:14Z</time>
      </trkpt>
      <trkpt lat="44.43528" lon="5.09089">
        <ele>637.972168</ele>
        <time>2014-11-16T09:26:23Z</time>
      </trkpt>
      <trkpt lat="44.43532" lon="5.09097">
        <ele>638.933594</ele>
        <time>2014-11-16T09:26:33Z</time>
      </trkpt>
      <trkpt lat="44.43536" lon="5.09109">
        <ele>640.375488</ele>
        <time>2014-11-16T09:26:43Z</time>
      </trkpt>
      <trkpt lat="44.43537" lon="5.09112">
        <ele>640.375488</ele>
        <time>2014-11-16T09:26:46Z</time>
      </trkpt>
      <trkpt lat="44.43546" lon="5.09121">
        <ele>641.817383</ele>
        <time>2014-11-16T09:26:57Z</time>
      </trkpt>
      <trkpt lat="44.43549" lon="5.09122">
        <ele>641.817383</ele>
        <time>2014-11-16T09:27:00Z</time>
      </trkpt>
      <trkpt lat="44.43552" lon="5.0913">
        <ele>643.259277</ele>
        <time>2014-11-16T09:27:07Z</time>
      </trkpt>
      <trkpt lat="44.43561" lon="5.09134">
        <ele>644.701172</ele>
        <time>2014-11-16T09:27:18Z</time>
      </trkpt>
      <trkpt lat="44.43571" lon="5.09136">
        <ele>646.624023</ele>
        <time>2014-11-16T09:27:29Z</time>
      </trkpt>
      <trkpt lat="44.43579" lon="5.09141">
        <ele>648.065918</ele>
        <time>2014-11-16T09:27:39Z</time>
      </trkpt>
      <trkpt lat="44.43581" lon="5.09143">
        <ele>649.507813</ele>
        <time>2014-11-16T09:27:54Z</time>
      </trkpt>
      <trkpt lat="44.43586" lon="5.0915">
        <ele>650.949707</ele>
        <time>2014-11-16T09:28:02Z</time>
      </trkpt>
      <trkpt lat="44.43587" lon="5.09154">
        <ele>650.949707</ele>
        <time>2014-11-16T09:28:04Z</time>
      </trkpt>
      <trkpt lat="44.43588" lon="5.09157">
        <ele>652.391846</ele>
        <time>2014-11-16T09:28:11Z</time>
      </trkpt>
      <trkpt lat="44.43592" lon="5.09165">
        <ele>654.314697</ele>
        <time>2014-11-16T09:28:22Z</time>
      </trkpt>
      <trkpt lat="44.43596" lon="5.09169">
        <ele>655.756592</ele>
        <time>2014-11-16T09:28:29Z</time>
      </trkpt>
      <trkpt lat="44.436" lon="5.09171">
        <ele>656.237061</ele>
        <time>2014-11-16T09:28:33Z</time>
      </trkpt>
      <trkpt lat="44.43605" lon="5.09176">
        <ele>657.198486</ele>
        <time>2014-11-16T09:28:44Z</time>
      </trkpt>
      <trkpt lat="44.43607" lon="5.09188">
        <ele>659.601807</ele>
        <time>2014-11-16T09:28:57Z</time>
      </trkpt>
      <trkpt lat="44.43608" lon="5.09195">
        <ele>661.043701</ele>
        <time>2014-11-16T09:29:07Z</time>
      </trkpt>
      <trkpt lat="44.43612" lon="5.09199">
        <ele>662.485596</ele>
        <time>2014-11-16T09:29:13Z</time>
      </trkpt>
      <trkpt lat="44.43617" lon="5.09202">
        <ele>663.447021</ele>
        <time>2014-11-16T09:29:19Z</time>
      </trkpt>
      <trkpt lat="44.43622" lon="5.09206">
        <ele>664.888916</ele>
        <time>2014-11-16T09:29:28Z</time>
      </trkpt>
      <trkpt lat="44.43626" lon="5.09213">
        <ele>666.330811</ele>
        <time>2014-11-16T09:29:38Z</time>
      </trkpt>
      <trkpt lat="44.43632" lon="5.09216">
        <ele>668.253662</ele>
        <time>2014-11-16T09:29:50Z</time>
      </trkpt>
      <trkpt lat="44.43637" lon="5.09221">
        <ele>669.695801</ele>
        <time>2014-11-16T09:30:00Z</time>
      </trkpt>
      <trkpt lat="44.43646" lon="5.09226">
        <ele>671.618164</ele>
        <time>2014-11-16T09:30:12Z</time>
      </trkpt>
      <trkpt lat="44.43653" lon="5.09233">
        <ele>673.541016</ele>
        <time>2014-11-16T09:30:25Z</time>
      </trkpt>
      <trkpt lat="44.43656" lon="5.09238">
        <ele>674.502197</ele>
        <time>2014-11-16T09:30:34Z</time>
      </trkpt>
      <trkpt lat="44.43662" lon="5.09242">
        <ele>675.463379</ele>
        <time>2014-11-16T09:30:41Z</time>
      </trkpt>
      <trkpt lat="44.43663" lon="5.09244">
        <ele>676.424805</ele>
        <time>2014-11-16T09:30:49Z</time>
      </trkpt>
      <trkpt lat="44.43664" lon="5.09247">
        <ele>676.424805</ele>
        <time>2014-11-16T09:31:03Z</time>
      </trkpt>
      <trkpt lat="44.43666" lon="5.09246">
        <ele>676.424805</ele>
        <time>2014-11-16T09:31:13Z</time>
      </trkpt>
      <trkpt lat="44.43667" lon="5.09248">
        <ele>676.424805</ele>
        <time>2014-11-16T09:31:24Z</time>
      </trkpt>
      <trkpt lat="44.43678" lon="5.09253">
        <ele>678.828125</ele>
        <time>2014-11-16T09:31:33Z</time>
      </trkpt>
      <trkpt lat="44.43684" lon="5.09254">
        <ele>680.750732</ele>
        <time>2014-11-16T09:31:45Z</time>
      </trkpt>
      <trkpt lat="44.43695" lon="5.09259">
        <ele>682.67334</ele>
        <time>2014-11-16T09:31:57Z</time>
      </trkpt>
      <trkpt lat="44.43696" lon="5.09268">
        <ele>684.115479</ele>
        <time>2014-11-16T09:32:05Z</time>
      </trkpt>
      <trkpt lat="44.43694" lon="5.09277">
        <ele>684.596191</ele>
        <time>2014-11-16T09:32:08Z</time>
      </trkpt>
      <trkpt lat="44.43689" lon="5.0928">
        <ele>685.076904</ele>
        <time>2014-11-16T09:32:14Z</time>
      </trkpt>
      <trkpt lat="44.43687" lon="5.09289">
        <ele>686.518799</ele>
        <time>2014-11-16T09:32:22Z</time>
      </trkpt>
      <trkpt lat="44.4369" lon="5.09295">
        <ele>687.47998</ele>
        <time>2014-11-16T09:32:27Z</time>
      </trkpt>
      <trkpt lat="44.43695" lon="5.09294">
        <ele>687.960693</ele>
        <time>2014-11-16T09:32:31Z</time>
      </trkpt>
      <trkpt lat="44.43704" lon="5.09291">
        <ele>688.922119</ele>
        <time>2014-11-16T09:32:40Z</time>
      </trkpt>
      <trkpt lat="44.43716" lon="5.09288">
        <ele>690.844482</ele>
        <time>2014-11-16T09:32:54Z</time>
      </trkpt>
      <trkpt lat="44.43722" lon="5.09293">
        <ele>692.767334</ele>
        <time>2014-11-16T09:33:06Z</time>
      </trkpt>
      <trkpt lat="44.43725" lon="5.09304">
        <ele>693.728516</ele>
        <time>2014-11-16T09:33:15Z</time>
      </trkpt>
      <trkpt lat="44.43724" lon="5.09316">
        <ele>694.689697</ele>
        <time>2014-11-16T09:33:24Z</time>
      </trkpt>
      <trkpt lat="44.43722" lon="5.09321">
        <ele>695.651123</ele>
        <time>2014-11-16T09:33:32Z</time>
      </trkpt>
      <trkpt lat="44.43715" lon="5.09326">
        <ele>696.612549</ele>
        <time>2014-11-16T09:33:40Z</time>
      </trkpt>
      <trkpt lat="44.43708" lon="5.09326">
        <ele>697.57373</ele>
        <time>2014-11-16T09:33:50Z</time>
      </trkpt>
      <trkpt lat="44.43704" lon="5.09324">
        <ele>698.054443</ele>
        <time>2014-11-16T09:33:58Z</time>
      </trkpt>
      <trkpt lat="44.43699" lon="5.09328">
        <ele>699.015625</ele>
        <time>2014-11-16T09:34:04Z</time>
      </trkpt>
      <trkpt lat="44.437" lon="5.09334">
        <ele>699.496338</ele>
        <time>2014-11-16T09:34:11Z</time>
      </trkpt>
      <trkpt lat="44.43707" lon="5.09338">
        <ele>700.938477</ele>
        <time>2014-11-16T09:34:21Z</time>
      </trkpt>
      <trkpt lat="44.43709" lon="5.0934">
        <ele>701.419189</ele>
        <time>2014-11-16T09:34:25Z</time>
      </trkpt>
      <trkpt lat="44.43716" lon="5.09346">
        <ele>702.861084</ele>
        <time>2014-11-16T09:34:35Z</time>
      </trkpt>
      <trkpt lat="44.43722" lon="5.0935">
        <ele>703.82251</ele>
        <time>2014-11-16T09:34:46Z</time>
      </trkpt>
      <trkpt lat="44.43729" lon="5.09355">
        <ele>705.745117</ele>
        <time>2014-11-16T09:34:57Z</time>
      </trkpt>
      <trkpt lat="44.43738" lon="5.09357">
        <ele>707.187012</ele>
        <time>2014-11-16T09:35:09Z</time>
      </trkpt>
      <trkpt lat="44.43742" lon="5.09361">
        <ele>708.148438</ele>
        <time>2014-11-16T09:35:18Z</time>
      </trkpt>
      <trkpt lat="44.43753" lon="5.09366">
        <ele>710.070801</ele>
        <time>2014-11-16T09:35:33Z</time>
      </trkpt>
      <trkpt lat="44.43763" lon="5.09366">
        <ele>711.512939</ele>
        <time>2014-11-16T09:35:44Z</time>
      </trkpt>
      <trkpt lat="44.43769" lon="5.09357">
        <ele>712.474121</ele>
        <time>2014-11-16T09:35:55Z</time>
      </trkpt>
      <trkpt lat="44.43774" lon="5.09348">
        <ele>713.435547</ele>
        <time>2014-11-16T09:36:05Z</time>
      </trkpt>
      <trkpt lat="44.43775" lon="5.09338">
        <ele>714.396729</ele>
        <time>2014-11-16T09:36:13Z</time>
      </trkpt>
      <trkpt lat="44.43774" lon="5.0932">
        <ele>715.358154</ele>
        <time>2014-11-16T09:36:26Z</time>
      </trkpt>
      <trkpt lat="44.43775" lon="5.09305">
        <ele>715.838867</ele>
        <time>2014-11-16T09:36:39Z</time>
      </trkpt>
      <trkpt lat="44.43782" lon="5.09306">
        <ele>717.281006</ele>
        <time>2014-11-16T09:36:49Z</time>
      </trkpt>
      <trkpt lat="44.43782" lon="5.09311">
        <ele>717.761475</ele>
        <time>2014-11-16T09:36:52Z</time>
      </trkpt>
      <trkpt lat="44.43781" lon="5.09321">
        <ele>718.242188</ele>
        <time>2014-11-16T09:36:56Z</time>
      </trkpt>
      <trkpt lat="44.43785" lon="5.09328">
        <ele>719.203613</ele>
        <time>2014-11-16T09:37:06Z</time>
      </trkpt>
      <trkpt lat="44.43785" lon="5.09331">
        <ele>720.164795</ele>
        <time>2014-11-16T09:37:12Z</time>
      </trkpt>
      <trkpt lat="44.43786" lon="5.09335">
        <ele>720.645508</ele>
        <time>2014-11-16T09:37:17Z</time>
      </trkpt>
      <trkpt lat="44.43787" lon="5.09342">
        <ele>721.606689</ele>
        <time>2014-11-16T09:37:24Z</time>
      </trkpt>
      <trkpt lat="44.43789" lon="5.09348">
        <ele>722.087402</ele>
        <time>2014-11-16T09:37:31Z</time>
      </trkpt>
      <trkpt lat="44.43791" lon="5.09359">
        <ele>723.529541</ele>
        <time>2014-11-16T09:37:42Z</time>
      </trkpt>
      <trkpt lat="44.43791" lon="5.09367">
        <ele>724.490723</ele>
        <time>2014-11-16T09:37:50Z</time>
      </trkpt>
      <trkpt lat="44.43792" lon="5.0938">
        <ele>725.932617</ele>
        <time>2014-11-16T09:38:01Z</time>
      </trkpt>
      <trkpt lat="44.43793" lon="5.09389">
        <ele>726.894043</ele>
        <time>2014-11-16T09:38:10Z</time>
      </trkpt>
      <trkpt lat="44.43793" lon="5.09405">
        <ele>728.81665</ele>
        <time>2014-11-16T09:38:26Z</time>
      </trkpt>
      <trkpt lat="44.43792" lon="5.09417">
        <ele>729.777832</ele>
        <time>2014-11-16T09:38:38Z</time>
      </trkpt>
      <trkpt lat="44.43791" lon="5.09426">
        <ele>731.219971</ele>
        <time>2014-11-16T09:38:49Z</time>
      </trkpt>
      <trkpt lat="44.4379" lon="5.09436">
        <ele>732.181396</ele>
        <time>2014-11-16T09:38:58Z</time>
      </trkpt>
      <trkpt lat="44.43785" lon="5.0945">
        <ele>733.142578</ele>
        <time>2014-11-16T09:39:09Z</time>
      </trkpt>
      <trkpt lat="44.43784" lon="5.09451">
        <ele>733.142578</ele>
        <time>2014-11-16T09:39:10Z</time>
      </trkpt>
      <trkpt lat="44.43782" lon="5.09458">
        <ele>734.104004</ele>
        <time>2014-11-16T09:39:18Z</time>
      </trkpt>
      <trkpt lat="44.43782" lon="5.09467">
        <ele>734.584717</ele>
        <time>2014-11-16T09:39:27Z</time>
      </trkpt>
      <trkpt lat="44.43784" lon="5.09472">
        <ele>735.545898</ele>
        <time>2014-11-16T09:39:34Z</time>
      </trkpt>
      <trkpt lat="44.43789" lon="5.09474">
        <ele>736.507324</ele>
        <time>2014-11-16T09:39:45Z</time>
      </trkpt>
      <trkpt lat="44.43796" lon="5.09467">
        <ele>737.468506</ele>
        <time>2014-11-16T09:39:54Z</time>
      </trkpt>
      <trkpt lat="44.43797" lon="5.09463">
        <ele>738.429932</ele>
        <time>2014-11-16T09:40:06Z</time>
      </trkpt>
      <trkpt lat="44.43797" lon="5.09464">
        <ele>739.871826</ele>
        <time>2014-11-16T09:41:53Z</time>
      </trkpt>
      <trkpt lat="44.43797" lon="5.09463">
        <ele>739.391113</ele>
        <time>2014-11-16T09:41:56Z</time>
      </trkpt>
      <trkpt lat="44.43796" lon="5.09457">
        <ele>739.871826</ele>
        <time>2014-11-16T09:42:04Z</time>
      </trkpt>
      <trkpt lat="44.43801" lon="5.0945">
        <ele>740.352539</ele>
        <time>2014-11-16T09:42:12Z</time>
      </trkpt>
      <trkpt lat="44.43803" lon="5.09439">
        <ele>741.794434</ele>
        <time>2014-11-16T09:42:20Z</time>
      </trkpt>
      <trkpt lat="44.4381" lon="5.09426">
        <ele>743.717041</ele>
        <time>2014-11-16T09:42:31Z</time>
      </trkpt>
      <trkpt lat="44.43818" lon="5.09412">
        <ele>745.158936</ele>
        <time>2014-11-16T09:42:41Z</time>
      </trkpt>
      <trkpt lat="44.43825" lon="5.09399">
        <ele>746.601074</ele>
        <time>2014-11-16T09:42:53Z</time>
      </trkpt>
      <trkpt lat="44.43828" lon="5.09388">
        <ele>747.562256</ele>
        <time>2014-11-16T09:43:03Z</time>
      </trkpt>
      <trkpt lat="44.43833" lon="5.09372">
        <ele>749.004395</ele>
        <time>2014-11-16T09:43:16Z</time>
      </trkpt>
      <trkpt lat="44.43837" lon="5.09349">
        <ele>751.407715</ele>
        <time>2014-11-16T09:43:32Z</time>
      </trkpt>
      <trkpt lat="44.43837" lon="5.09333">
        <ele>752.849609</ele>
        <time>2014-11-16T09:43:46Z</time>
      </trkpt>
      <trkpt lat="44.43833" lon="5.09321">
        <ele>753.811035</ele>
        <time>2014-11-16T09:43:56Z</time>
      </trkpt>
      <trkpt lat="44.4383" lon="5.09307">
        <ele>754.291748</ele>
        <time>2014-11-16T09:44:07Z</time>
      </trkpt>
      <trkpt lat="44.43823" lon="5.093">
        <ele>754.772217</ele>
        <time>2014-11-16T09:44:15Z</time>
      </trkpt>
      <trkpt lat="44.43813" lon="5.09285">
        <ele>754.772217</ele>
        <time>2014-11-16T09:44:27Z</time>
      </trkpt>
      <trkpt lat="44.4381" lon="5.09271">
        <ele>756.214111</ele>
        <time>2014-11-16T09:44:39Z</time>
      </trkpt>
      <trkpt lat="44.4381" lon="5.09262">
        <ele>756.694824</ele>
        <time>2014-11-16T09:44:51Z</time>
      </trkpt>
      <trkpt lat="44.4381" lon="5.09258">
        <ele>756.694824</ele>
        <time>2014-11-16T09:45:14Z</time>
      </trkpt>
      <trkpt lat="44.43811" lon="5.0926">
        <ele>757.175537</ele>
        <time>2014-11-16T09:45:35Z</time>
      </trkpt>
      <trkpt lat="44.4381" lon="5.09258">
        <ele>756.694824</ele>
        <time>2014-11-16T09:45:44Z</time>
      </trkpt>
      <trkpt lat="44.43813" lon="5.09256">
        <ele>757.175537</ele>
        <time>2014-11-16T09:46:28Z</time>
      </trkpt>
      <trkpt lat="44.4382" lon="5.09248">
        <ele>757.65625</ele>
        <time>2014-11-16T09:46:38Z</time>
      </trkpt>
      <trkpt lat="44.43825" lon="5.09245">
        <ele>758.136963</ele>
        <time>2014-11-16T09:46:47Z</time>
      </trkpt>
      <trkpt lat="44.43834" lon="5.0924">
        <ele>759.098145</ele>
        <time>2014-11-16T09:46:56Z</time>
      </trkpt>
      <trkpt lat="44.43842" lon="5.09231">
        <ele>760.059326</ele>
        <time>2014-11-16T09:47:06Z</time>
      </trkpt>
      <trkpt lat="44.43846" lon="5.09227">
        <ele>760.540039</ele>
        <time>2014-11-16T09:47:14Z</time>
      </trkpt>
      <trkpt lat="44.43852" lon="5.09219">
        <ele>761.501465</ele>
        <time>2014-11-16T09:47:25Z</time>
      </trkpt>
      <trkpt lat="44.43861" lon="5.09212">
        <ele>762.943359</ele>
        <time>2014-11-16T09:47:39Z</time>
      </trkpt>
      <trkpt lat="44.43867" lon="5.0921">
        <ele>763.424072</ele>
        <time>2014-11-16T09:47:50Z</time>
      </trkpt>
      <trkpt lat="44.43872" lon="5.092">
        <ele>764.385498</ele>
        <time>2014-11-16T09:48:00Z</time>
      </trkpt>
      <trkpt lat="44.4388" lon="5.09193">
        <ele>765.346924</ele>
        <time>2014-11-16T09:48:10Z</time>
      </trkpt>
      <trkpt lat="44.43885" lon="5.09182">
        <ele>767.269531</ele>
        <time>2014-11-16T09:48:23Z</time>
      </trkpt>
      <trkpt lat="44.43883" lon="5.09178">
        <ele>767.269531</ele>
        <time>2014-11-16T09:48:34Z</time>
      </trkpt>
      <trkpt lat="44.43885" lon="5.09171">
        <ele>767.75</ele>
        <time>2014-11-16T09:48:45Z</time>
      </trkpt>
      <trkpt lat="44.43887" lon="5.09166">
        <ele>767.75</ele>
        <time>2014-11-16T09:48:55Z</time>
      </trkpt>
      <trkpt lat="44.43888" lon="5.09165">
        <ele>767.75</ele>
        <time>2014-11-16T09:48:56Z</time>
      </trkpt>
      <trkpt lat="44.4389" lon="5.09162">
        <ele>767.75</ele>
        <time>2014-11-16T09:48:59Z</time>
      </trkpt>
      <trkpt lat="44.43892" lon="5.09161">
        <ele>767.75</ele>
        <time>2014-11-16T09:49:01Z</time>
      </trkpt>
      <trkpt lat="44.43891" lon="5.09152">
        <ele>768.230713</ele>
        <time>2014-11-16T09:49:08Z</time>
      </trkpt>
      <trkpt lat="44.43897" lon="5.09154">
        <ele>769.192139</ele>
        <time>2014-11-16T09:49:16Z</time>
      </trkpt>
      <trkpt lat="44.43899" lon="5.09162">
        <ele>769.672852</ele>
        <time>2014-11-16T09:49:25Z</time>
      </trkpt>
      <trkpt lat="44.43895" lon="5.09167">
        <ele>770.15332</ele>
        <time>2014-11-16T09:49:35Z</time>
      </trkpt>
      <trkpt lat="44.43891" lon="5.09174">
        <ele>770.15332</ele>
        <time>2014-11-16T09:49:46Z</time>
      </trkpt>
      <trkpt lat="44.43884" lon="5.09179">
        <ele>771.114746</ele>
        <time>2014-11-16T09:49:56Z</time>
      </trkpt>
      <trkpt lat="44.43879" lon="5.09184">
        <ele>771.595215</ele>
        <time>2014-11-16T09:50:27Z</time>
      </trkpt>
      <trkpt lat="44.43877" lon="5.09192">
        <ele>772.556641</ele>
        <time>2014-11-16T09:50:35Z</time>
      </trkpt>
      <trkpt lat="44.43868" lon="5.09206">
        <ele>773.518066</ele>
        <time>2014-11-16T09:50:48Z</time>
      </trkpt>
      <trkpt lat="44.43864" lon="5.09219">
        <ele>773.998535</ele>
        <time>2014-11-16T09:50:55Z</time>
      </trkpt>
      <trkpt lat="44.43864" lon="5.09224">
        <ele>774.479248</ele>
        <time>2014-11-16T09:50:57Z</time>
      </trkpt>
      <trkpt lat="44.43856" lon="5.09251">
        <ele>775.44043</ele>
        <time>2014-11-16T09:51:06Z</time>
      </trkpt>
      <trkpt lat="44.43851" lon="5.09266">
        <ele>776.882568</ele>
        <time>2014-11-16T09:51:16Z</time>
      </trkpt>
      <trkpt lat="44.43843" lon="5.09281">
        <ele>779.285645</ele>
        <time>2014-11-16T09:51:27Z</time>
      </trkpt>
      <trkpt lat="44.4384" lon="5.09288">
        <ele>779.766357</ele>
        <time>2014-11-16T09:51:32Z</time>
      </trkpt>
      <trkpt lat="44.43841" lon="5.09298">
        <ele>780.728027</ele>
        <time>2014-11-16T09:51:40Z</time>
      </trkpt>
      <trkpt lat="44.43844" lon="5.09299">
        <ele>781.20874</ele>
        <time>2014-11-16T09:51:42Z</time>
      </trkpt>
      <trkpt lat="44.43846" lon="5.09301">
        <ele>781.20874</ele>
        <time>2014-11-16T09:51:45Z</time>
      </trkpt>
      <trkpt lat="44.43855" lon="5.09307">
        <ele>782.650635</ele>
        <time>2014-11-16T09:51:55Z</time>
      </trkpt>
      <trkpt lat="44.43856" lon="5.0931">
        <ele>782.650635</ele>
        <time>2014-11-16T09:51:57Z</time>
      </trkpt>
      <trkpt lat="44.43859" lon="5.09319">
        <ele>783.131104</ele>
        <time>2014-11-16T09:52:02Z</time>
      </trkpt>
      <trkpt lat="44.43862" lon="5.09327">
        <ele>784.573242</ele>
        <time>2014-11-16T09:52:10Z</time>
      </trkpt>
      <trkpt lat="44.43863" lon="5.09328">
        <ele>784.573242</ele>
        <time>2014-11-16T09:52:11Z</time>
      </trkpt>
      <trkpt lat="44.43867" lon="5.0934">
        <ele>785.534424</ele>
        <time>2014-11-16T09:52:18Z</time>
      </trkpt>
      <trkpt lat="44.43868" lon="5.0935">
        <ele>786.015137</ele>
        <time>2014-11-16T09:52:24Z</time>
      </trkpt>
      <trkpt lat="44.43867" lon="5.0936">
        <ele>786.976318</ele>
        <time>2014-11-16T09:52:30Z</time>
      </trkpt>
      <trkpt lat="44.43871" lon="5.09371">
        <ele>787.937744</ele>
        <time>2014-11-16T09:52:40Z</time>
      </trkpt>
      <trkpt lat="44.43872" lon="5.0938">
        <ele>789.379639</ele>
        <time>2014-11-16T09:52:49Z</time>
      </trkpt>
      <trkpt lat="44.43872" lon="5.09389">
        <ele>790.341064</ele>
        <time>2014-11-16T09:52:57Z</time>
      </trkpt>
      <trkpt lat="44.43873" lon="5.09406">
        <ele>792.263672</ele>
        <time>2014-11-16T09:53:11Z</time>
      </trkpt>
      <trkpt lat="44.43876" lon="5.09418">
        <ele>793.705566</ele>
        <time>2014-11-16T09:53:23Z</time>
      </trkpt>
      <trkpt lat="44.43878" lon="5.09429">
        <ele>795.147461</ele>
        <time>2014-11-16T09:53:35Z</time>
      </trkpt>
      <trkpt lat="44.43882" lon="5.09433">
        <ele>796.589844</ele>
        <time>2014-11-16T09:53:43Z</time>
      </trkpt>
      <trkpt lat="44.43884" lon="5.09437">
        <ele>797.070313</ele>
        <time>2014-11-16T09:53:51Z</time>
      </trkpt>
      <trkpt lat="44.43884" lon="5.09437">
        <ele>797.070313</ele>
        <time>2014-11-16T09:53:57Z</time>
      </trkpt>
      <trkpt lat="44.43885" lon="5.09436">
        <ele>797.070313</ele>
        <time>2014-11-16T09:54:28Z</time>
      </trkpt>
      <trkpt lat="44.43889" lon="5.09441">
        <ele>797.551025</ele>
        <time>2014-11-16T09:54:49Z</time>
      </trkpt>
      <trkpt lat="44.43894" lon="5.09447">
        <ele>798.512207</ele>
        <time>2014-11-16T09:54:58Z</time>
      </trkpt>
      <trkpt lat="44.43896" lon="5.09449">
        <ele>798.99292</ele>
        <time>2014-11-16T09:55:01Z</time>
      </trkpt>
      <trkpt lat="44.43903" lon="5.09453">
        <ele>799.473633</ele>
        <time>2014-11-16T09:55:08Z</time>
      </trkpt>
      <trkpt lat="44.43905" lon="5.09456">
        <ele>800.435059</ele>
        <time>2014-11-16T09:55:15Z</time>
      </trkpt>
      <trkpt lat="44.43912" lon="5.09458">
        <ele>801.39624</ele>
        <time>2014-11-16T09:55:25Z</time>
      </trkpt>
      <trkpt lat="44.43918" lon="5.09458">
        <ele>802.838135</ele>
        <time>2014-11-16T09:55:33Z</time>
      </trkpt>
      <trkpt lat="44.43923" lon="5.09459">
        <ele>803.799561</ele>
        <time>2014-11-16T09:55:43Z</time>
      </trkpt>
      <trkpt lat="44.43929" lon="5.09461">
        <ele>805.241455</ele>
        <time>2014-11-16T09:55:53Z</time>
      </trkpt>
      <trkpt lat="44.43933" lon="5.09462">
        <ele>805.722168</ele>
        <time>2014-11-16T09:56:00Z</time>
      </trkpt>
      <trkpt lat="44.43941" lon="5.09461">
        <ele>807.164063</ele>
        <time>2014-11-16T09:56:12Z</time>
      </trkpt>
      <trkpt lat="44.43947" lon="5.09463">
        <ele>808.125488</ele>
        <time>2014-11-16T09:56:22Z</time>
      </trkpt>
      <trkpt lat="44.43954" lon="5.09466">
        <ele>808.605957</ele>
        <time>2014-11-16T09:56:32Z</time>
      </trkpt>
      <trkpt lat="44.4396" lon="5.09471">
        <ele>809.08667</ele>
        <time>2014-11-16T09:56:40Z</time>
      </trkpt>
      <trkpt lat="44.43969" lon="5.09477">
        <ele>810.047852</ele>
        <time>2014-11-16T09:56:50Z</time>
      </trkpt>
      <trkpt lat="44.43977" lon="5.09482">
        <ele>811.009277</ele>
        <time>2014-11-16T09:57:02Z</time>
      </trkpt>
      <trkpt lat="44.43985" lon="5.09486">
        <ele>811.970703</ele>
        <time>2014-11-16T09:57:10Z</time>
      </trkpt>
      <trkpt lat="44.43995" lon="5.09496">
        <ele>812.932129</ele>
        <time>2014-11-16T09:57:23Z</time>
      </trkpt>
      <trkpt lat="44.44002" lon="5.09499">
        <ele>813.412842</ele>
        <time>2014-11-16T09:57:29Z</time>
      </trkpt>
      <trkpt lat="44.44006" lon="5.09505">
        <ele>813.893311</ele>
        <time>2014-11-16T09:57:36Z</time>
      </trkpt>
      <trkpt lat="44.4401" lon="5.09508">
        <ele>814.374023</ele>
        <time>2014-11-16T09:57:40Z</time>
      </trkpt>
      <trkpt lat="44.44016" lon="5.09514">
        <ele>815.335449</ele>
        <time>2014-11-16T09:57:49Z</time>
      </trkpt>
      <trkpt lat="44.44023" lon="5.0952">
        <ele>815.335449</ele>
        <time>2014-11-16T09:57:56Z</time>
      </trkpt>
      <trkpt lat="44.44023" lon="5.09521">
        <ele>815.335449</ele>
        <time>2014-11-16T09:57:57Z</time>
      </trkpt>
      <trkpt lat="44.44032" lon="5.09531">
        <ele>816.296631</ele>
        <time>2014-11-16T09:58:07Z</time>
      </trkpt>
      <trkpt lat="44.44041" lon="5.0954">
        <ele>817.258057</ele>
        <time>2014-11-16T09:58:17Z</time>
      </trkpt>
      <trkpt lat="44.44051" lon="5.09546">
        <ele>818.219238</ele>
        <time>2014-11-16T09:58:25Z</time>
      </trkpt>
      <trkpt lat="44.44052" lon="5.09548">
        <ele>818.219238</ele>
        <time>2014-11-16T09:58:27Z</time>
      </trkpt>
      <trkpt lat="44.44058" lon="5.09553">
        <ele>818.699951</ele>
        <time>2014-11-16T09:58:33Z</time>
      </trkpt>
      <trkpt lat="44.44066" lon="5.09561">
        <ele>819.661377</ele>
        <time>2014-11-16T09:58:43Z</time>
      </trkpt>
      <trkpt lat="44.44066" lon="5.09569">
        <ele>820.622559</ele>
        <time>2014-11-16T09:58:51Z</time>
      </trkpt>
      <trkpt lat="44.44067" lon="5.09579">
        <ele>822.064453</ele>
        <time>2014-11-16T09:59:03Z</time>
      </trkpt>
      <trkpt lat="44.44072" lon="5.09582">
        <ele>822.545166</ele>
        <time>2014-11-16T09:59:11Z</time>
      </trkpt>
      <trkpt lat="44.44077" lon="5.09587">
        <ele>822.545166</ele>
        <time>2014-11-16T09:59:18Z</time>
      </trkpt>
      <trkpt lat="44.44081" lon="5.09592">
        <ele>823.025879</ele>
        <time>2014-11-16T09:59:23Z</time>
      </trkpt>
      <trkpt lat="44.44076" lon="5.09593">
        <ele>823.506592</ele>
        <time>2014-11-16T09:59:33Z</time>
      </trkpt>
      <trkpt lat="44.44077" lon="5.0959">
        <ele>823.506592</ele>
        <time>2014-11-16T09:59:46Z</time>
      </trkpt>
      <trkpt lat="44.44078" lon="5.09592">
        <ele>823.987061</ele>
        <time>2014-11-16T09:59:52Z</time>
      </trkpt>
      <trkpt lat="44.44078" lon="5.09594">
        <ele>824.467773</ele>
        <time>2014-11-16T10:00:04Z</time>
      </trkpt>
      <trkpt lat="44.44077" lon="5.09586">
        <ele>823.987061</ele>
        <time>2014-11-16T10:00:13Z</time>
      </trkpt>
      <trkpt lat="44.44076" lon="5.09584">
        <ele>823.987061</ele>
        <time>2014-11-16T10:00:28Z</time>
      </trkpt>
      <trkpt lat="44.44074" lon="5.09583">
        <ele>824.948486</ele>
        <time>2014-11-16T10:03:15Z</time>
      </trkpt>
      <trkpt lat="44.44075" lon="5.09586">
        <ele>825.428955</ele>
        <time>2014-11-16T10:03:29Z</time>
      </trkpt>
      <trkpt lat="44.44073" lon="5.09587">
        <ele>824.948486</ele>
        <time>2014-11-16T10:03:34Z</time>
      </trkpt>
      <trkpt lat="44.44065" lon="5.09581">
        <ele>824.467773</ele>
        <time>2014-11-16T10:03:43Z</time>
      </trkpt>
      <trkpt lat="44.4406" lon="5.09583">
        <ele>824.948486</ele>
        <time>2014-11-16T10:03:53Z</time>
      </trkpt>
      <trkpt lat="44.44049" lon="5.09589">
        <ele>825.428955</ele>
        <time>2014-11-16T10:04:06Z</time>
      </trkpt>
      <trkpt lat="44.44045" lon="5.0959">
        <ele>825.909668</ele>
        <time>2014-11-16T10:04:19Z</time>
      </trkpt>
      <trkpt lat="44.44028" lon="5.0959">
        <ele>827.351807</ele>
        <time>2014-11-16T10:04:37Z</time>
      </trkpt>
      <trkpt lat="44.44017" lon="5.09591">
        <ele>828.313232</ele>
        <time>2014-11-16T10:04:48Z</time>
      </trkpt>
      <trkpt lat="44.44001" lon="5.09593">
        <ele>829.755127</ele>
        <time>2014-11-16T10:05:02Z</time>
      </trkpt>
      <trkpt lat="44.43988" lon="5.09598">
        <ele>830.716553</ele>
        <time>2014-11-16T10:05:15Z</time>
      </trkpt>
      <trkpt lat="44.43984" lon="5.09601">
        <ele>831.677734</ele>
        <time>2014-11-16T10:05:19Z</time>
      </trkpt>
      <trkpt lat="44.43973" lon="5.09609">
        <ele>832.63916</ele>
        <time>2014-11-16T10:05:28Z</time>
      </trkpt>
      <trkpt lat="44.43965" lon="5.09611">
        <ele>833.600342</ele>
        <time>2014-11-16T10:05:36Z</time>
      </trkpt>
      <trkpt lat="44.43958" lon="5.09617">
        <ele>835.522949</ele>
        <time>2014-11-16T10:05:46Z</time>
      </trkpt>
      <trkpt lat="44.43946" lon="5.09625">
        <ele>836.964844</ele>
        <time>2014-11-16T10:05:57Z</time>
      </trkpt>
      <trkpt lat="44.43937" lon="5.0963">
        <ele>837.92627</ele>
        <time>2014-11-16T10:06:04Z</time>
      </trkpt>
      <trkpt lat="44.43926" lon="5.09639">
        <ele>839.848877</ele>
        <time>2014-11-16T10:06:14Z</time>
      </trkpt>
      <trkpt lat="44.43923" lon="5.09642">
        <ele>840.32959</ele>
        <time>2014-11-16T10:06:23Z</time>
      </trkpt>
      <trkpt lat="44.43918" lon="5.09646">
        <ele>840.810059</ele>
        <time>2014-11-16T10:06:31Z</time>
      </trkpt>
      <trkpt lat="44.4391" lon="5.09654">
        <ele>841.290771</ele>
        <time>2014-11-16T10:06:40Z</time>
      </trkpt>
      <trkpt lat="44.43907" lon="5.0966">
        <ele>841.771484</ele>
        <time>2014-11-16T10:06:45Z</time>
      </trkpt>
      <trkpt lat="44.43896" lon="5.09673">
        <ele>842.73291</ele>
        <time>2014-11-16T10:06:55Z</time>
      </trkpt>
      <trkpt lat="44.43892" lon="5.09682">
        <ele>843.213379</ele>
        <time>2014-11-16T10:07:03Z</time>
      </trkpt>
      <trkpt lat="44.43889" lon="5.09686">
        <ele>843.694092</ele>
        <time>2014-11-16T10:07:06Z</time>
      </trkpt>
      <trkpt lat="44.43873" lon="5.09698">
        <ele>844.175049</ele>
        <time>2014-11-16T10:07:18Z</time>
      </trkpt>
      <trkpt lat="44.43874" lon="5.09704">
        <ele>845.616943</ele>
        <time>2014-11-16T10:07:24Z</time>
      </trkpt>
      <trkpt lat="44.43877" lon="5.09705">
        <ele>846.578369</ele>
        <time>2014-11-16T10:07:28Z</time>
      </trkpt>
      <trkpt lat="44.4389" lon="5.097">
        <ele>848.020264</ele>
        <time>2014-11-16T10:07:37Z</time>
      </trkpt>
      <trkpt lat="44.43896" lon="5.09694">
        <ele>848.981445</ele>
        <time>2014-11-16T10:07:43Z</time>
      </trkpt>
      <trkpt lat="44.43908" lon="5.0969">
        <ele>850.904053</ele>
        <time>2014-11-16T10:07:53Z</time>
      </trkpt>
      <trkpt lat="44.43919" lon="5.09684">
        <ele>852.345947</ele>
        <time>2014-11-16T10:08:02Z</time>
      </trkpt>
      <trkpt lat="44.4393" lon="5.09676">
        <ele>853.788086</ele>
        <time>2014-11-16T10:08:11Z</time>
      </trkpt>
      <trkpt lat="44.43936" lon="5.09673">
        <ele>854.749268</ele>
        <time>2014-11-16T10:08:17Z</time>
      </trkpt>
      <trkpt lat="44.43942" lon="5.09671">
        <ele>855.22998</ele>
        <time>2014-11-16T10:08:21Z</time>
      </trkpt>
      <trkpt lat="44.43952" lon="5.09668">
        <ele>856.191162</ele>
        <time>2014-11-16T10:08:28Z</time>
      </trkpt>
      <trkpt lat="44.43958" lon="5.09667">
        <ele>857.152588</ele>
        <time>2014-11-16T10:08:33Z</time>
      </trkpt>
      <trkpt lat="44.43971" lon="5.09666">
        <ele>858.114014</ele>
        <time>2014-11-16T10:08:41Z</time>
      </trkpt>
      <trkpt lat="44.43979" lon="5.09665">
        <ele>859.555908</ele>
        <time>2014-11-16T10:08:49Z</time>
      </trkpt>
      <trkpt lat="44.43987" lon="5.09663">
        <ele>860.517334</ele>
        <time>2014-11-16T10:08:57Z</time>
      </trkpt>
      <trkpt lat="44.43994" lon="5.09663">
        <ele>861.47876</ele>
        <time>2014-11-16T10:09:03Z</time>
      </trkpt>
      <trkpt lat="44.43998" lon="5.09663">
        <ele>861.959473</ele>
        <time>2014-11-16T10:09:06Z</time>
      </trkpt>
      <trkpt lat="44.44003" lon="5.09659">
        <ele>862.439941</ele>
        <time>2014-11-16T10:09:11Z</time>
      </trkpt>
      <trkpt lat="44.44014" lon="5.0966">
        <ele>863.881836</ele>
        <time>2014-11-16T10:09:20Z</time>
      </trkpt>
      <trkpt lat="44.44026" lon="5.0966">
        <ele>865.804688</ele>
        <time>2014-11-16T10:09:31Z</time>
      </trkpt>
      <trkpt lat="44.44031" lon="5.09663">
        <ele>866.765869</ele>
        <time>2014-11-16T10:09:36Z</time>
      </trkpt>
      <trkpt lat="44.44043" lon="5.09668">
        <ele>868.688477</ele>
        <time>2014-11-16T10:09:48Z</time>
      </trkpt>
      <trkpt lat="44.44054" lon="5.09671">
        <ele>870.130371</ele>
        <time>2014-11-16T10:09:58Z</time>
      </trkpt>
      <trkpt lat="44.44068" lon="5.09672">
        <ele>872.052979</ele>
        <time>2014-11-16T10:10:10Z</time>
      </trkpt>
      <trkpt lat="44.44078" lon="5.09673">
        <ele>873.495117</ele>
        <time>2014-11-16T10:10:19Z</time>
      </trkpt>
      <trkpt lat="44.44088" lon="5.09676">
        <ele>874.937012</ele>
        <time>2014-11-16T10:10:27Z</time>
      </trkpt>
      <trkpt lat="44.44095" lon="5.09678">
        <ele>876.37915</ele>
        <time>2014-11-16T10:10:37Z</time>
      </trkpt>
      <trkpt lat="44.44109" lon="5.09683">
        <ele>876.859863</ele>
        <time>2014-11-16T10:10:45Z</time>
      </trkpt>
      <trkpt lat="44.44117" lon="5.0969">
        <ele>878.301758</ele>
        <time>2014-11-16T10:10:52Z</time>
      </trkpt>
      <trkpt lat="44.44131" lon="5.09697">
        <ele>880.224365</ele>
        <time>2014-11-16T10:11:02Z</time>
      </trkpt>
      <trkpt lat="44.4414" lon="5.09698">
        <ele>881.185791</ele>
        <time>2014-11-16T10:11:10Z</time>
      </trkpt>
      <trkpt lat="44.44148" lon="5.09699">
        <ele>882.146973</ele>
        <time>2014-11-16T10:11:17Z</time>
      </trkpt>
      <trkpt lat="44.44155" lon="5.09698">
        <ele>883.108154</ele>
        <time>2014-11-16T10:11:24Z</time>
      </trkpt>
      <trkpt lat="44.44165" lon="5.09698">
        <ele>883.588867</ele>
        <time>2014-11-16T10:11:32Z</time>
      </trkpt>
      <trkpt lat="44.44176" lon="5.09696">
        <ele>885.031006</ele>
        <time>2014-11-16T10:11:40Z</time>
      </trkpt>
      <trkpt lat="44.44186" lon="5.09695">
        <ele>886.953369</ele>
        <time>2014-11-16T10:11:50Z</time>
      </trkpt>
      <trkpt lat="44.44187" lon="5.09695">
        <ele>886.953369</ele>
        <time>2014-11-16T10:11:51Z</time>
      </trkpt>
      <trkpt lat="44.44196" lon="5.097">
        <ele>888.395508</ele>
        <time>2014-11-16T10:12:01Z</time>
      </trkpt>
      <trkpt lat="44.44206" lon="5.09706">
        <ele>889.356689</ele>
        <time>2014-11-16T10:12:12Z</time>
      </trkpt>
      <trkpt lat="44.44218" lon="5.0971">
        <ele>890.318115</ele>
        <time>2014-11-16T10:12:19Z</time>
      </trkpt>
      <trkpt lat="44.44222" lon="5.09711">
        <ele>890.798584</ele>
        <time>2014-11-16T10:12:22Z</time>
      </trkpt>
      <trkpt lat="44.44237" lon="5.09711">
        <ele>892.240967</ele>
        <time>2014-11-16T10:12:31Z</time>
      </trkpt>
      <trkpt lat="44.4424" lon="5.09715">
        <ele>892.72168</ele>
        <time>2014-11-16T10:12:34Z</time>
      </trkpt>
      <trkpt lat="44.44236" lon="5.09718">
        <ele>893.202148</ele>
        <time>2014-11-16T10:12:39Z</time>
      </trkpt>
      <trkpt lat="44.4422" lon="5.09714">
        <ele>892.240967</ele>
        <time>2014-11-16T10:12:50Z</time>
      </trkpt>
      <trkpt lat="44.4421" lon="5.09712">
        <ele>892.72168</ele>
        <time>2014-11-16T10:12:56Z</time>
      </trkpt>
      <trkpt lat="44.442" lon="5.09713">
        <ele>893.682861</ele>
        <time>2014-11-16T10:13:03Z</time>
      </trkpt>
      <trkpt lat="44.44191" lon="5.09712">
        <ele>894.644043</ele>
        <time>2014-11-16T10:13:11Z</time>
      </trkpt>
      <trkpt lat="44.44178" lon="5.09713">
        <ele>896.086182</ele>
        <time>2014-11-16T10:13:20Z</time>
      </trkpt>
      <trkpt lat="44.44168" lon="5.09719">
        <ele>897.047363</ele>
        <time>2014-11-16T10:13:30Z</time>
      </trkpt>
      <trkpt lat="44.44161" lon="5.09725">
        <ele>898.489258</ele>
        <time>2014-11-16T10:13:38Z</time>
      </trkpt>
      <trkpt lat="44.4415" lon="5.0973">
        <ele>900.412109</ele>
        <time>2014-11-16T10:13:48Z</time>
      </trkpt>
      <trkpt lat="44.44142" lon="5.09731">
        <ele>901.373291</ele>
        <time>2014-11-16T10:13:56Z</time>
      </trkpt>
      <trkpt lat="44.4413" lon="5.09735">
        <ele>902.815186</ele>
        <time>2014-11-16T10:14:05Z</time>
      </trkpt>
      <trkpt lat="44.44121" lon="5.09736">
        <ele>904.257324</ele>
        <time>2014-11-16T10:14:14Z</time>
      </trkpt>
      <trkpt lat="44.44112" lon="5.0974">
        <ele>904.737793</ele>
        <time>2014-11-16T10:14:24Z</time>
      </trkpt>
      <trkpt lat="44.44104" lon="5.09745">
        <ele>905.699219</ele>
        <time>2014-11-16T10:14:32Z</time>
      </trkpt>
      <trkpt lat="44.44102" lon="5.09746">
        <ele>905.699219</ele>
        <time>2014-11-16T10:14:35Z</time>
      </trkpt>
      <trkpt lat="44.44095" lon="5.09754">
        <ele>906.6604</ele>
        <time>2014-11-16T10:14:45Z</time>
      </trkpt>
      <trkpt lat="44.44092" lon="5.09757">
        <ele>907.141113</ele>
        <time>2014-11-16T10:14:54Z</time>
      </trkpt>
      <trkpt lat="44.44091" lon="5.09757">
        <ele>908.102783</ele>
        <time>2014-11-16T10:16:46Z</time>
      </trkpt>
      <trkpt lat="44.44086" lon="5.09763">
        <ele>908.583252</ele>
        <time>2014-11-16T10:17:09Z</time>
      </trkpt>
      <trkpt lat="44.44077" lon="5.09771">
        <ele>909.544678</ele>
        <time>2014-11-16T10:17:17Z</time>
      </trkpt>
      <trkpt lat="44.44071" lon="5.0978">
        <ele>910.505859</ele>
        <time>2014-11-16T10:17:27Z</time>
      </trkpt>
      <trkpt lat="44.44063" lon="5.09791">
        <ele>911.467285</ele>
        <time>2014-11-16T10:17:40Z</time>
      </trkpt>
      <trkpt lat="44.44058" lon="5.09796">
        <ele>911.947998</ele>
        <time>2014-11-16T10:17:48Z</time>
      </trkpt>
      <trkpt lat="44.4405" lon="5.09804">
        <ele>912.90918</ele>
        <time>2014-11-16T10:17:57Z</time>
      </trkpt>
      <trkpt lat="44.44042" lon="5.0981">
        <ele>913.389893</ele>
        <time>2014-11-16T10:18:07Z</time>
      </trkpt>
      <trkpt lat="44.44038" lon="5.09813">
        <ele>913.870361</ele>
        <time>2014-11-16T10:18:15Z</time>
      </trkpt>
      <trkpt lat="44.44034" lon="5.09814">
        <ele>914.351074</ele>
        <time>2014-11-16T10:18:23Z</time>
      </trkpt>
      <trkpt lat="44.4403" lon="5.09821">
        <ele>914.351074</ele>
        <time>2014-11-16T10:18:31Z</time>
      </trkpt>
      <trkpt lat="44.44033" lon="5.09823">
        <ele>914.831787</ele>
        <time>2014-11-16T10:18:39Z</time>
      </trkpt>
      <trkpt lat="44.44034" lon="5.09823">
        <ele>914.831787</ele>
        <time>2014-11-16T10:18:52Z</time>
      </trkpt>
      <trkpt lat="44.44042" lon="5.0982">
        <ele>915.793213</ele>
        <time>2014-11-16T10:19:24Z</time>
      </trkpt>
      <trkpt lat="44.4405" lon="5.09819">
        <ele>916.754395</ele>
        <time>2014-11-16T10:19:33Z</time>
      </trkpt>
      <trkpt lat="44.44059" lon="5.0982">
        <ele>917.715576</ele>
        <time>2014-11-16T10:19:44Z</time>
      </trkpt>
      <trkpt lat="44.44068" lon="5.09819">
        <ele>918.677002</ele>
        <time>2014-11-16T10:19:52Z</time>
      </trkpt>
      <trkpt lat="44.44077" lon="5.09817">
        <ele>919.157715</ele>
        <time>2014-11-16T10:19:59Z</time>
      </trkpt>
      <trkpt lat="44.44084" lon="5.09813">
        <ele>920.118896</ele>
        <time>2014-11-16T10:20:07Z</time>
      </trkpt>
      <trkpt lat="44.44093" lon="5.09811">
        <ele>921.080322</ele>
        <time>2014-11-16T10:20:17Z</time>
      </trkpt>
      <trkpt lat="44.44096" lon="5.09811">
        <ele>921.560791</ele>
        <time>2014-11-16T10:20:20Z</time>
      </trkpt>
      <trkpt lat="44.44107" lon="5.0981">
        <ele>922.522217</ele>
        <time>2014-11-16T10:20:31Z</time>
      </trkpt>
      <trkpt lat="44.44113" lon="5.09806">
        <ele>923.483643</ele>
        <time>2014-11-16T10:20:42Z</time>
      </trkpt>
      <trkpt lat="44.4412" lon="5.09804">
        <ele>924.445068</ele>
        <time>2014-11-16T10:20:50Z</time>
      </trkpt>
      <trkpt lat="44.4413" lon="5.098">
        <ele>925.40625</ele>
        <time>2014-11-16T10:21:02Z</time>
      </trkpt>
      <trkpt lat="44.44137" lon="5.09801">
        <ele>926.367676</ele>
        <time>2014-11-16T10:21:11Z</time>
      </trkpt>
      <trkpt lat="44.44143" lon="5.09803">
        <ele>926.848389</ele>
        <time>2014-11-16T10:21:19Z</time>
      </trkpt>
      <trkpt lat="44.4415" lon="5.09801">
        <ele>927.80957</ele>
        <time>2014-11-16T10:21:29Z</time>
      </trkpt>
      <trkpt lat="44.44159" lon="5.09802">
        <ele>928.770996</ele>
        <time>2014-11-16T10:21:42Z</time>
      </trkpt>
      <trkpt lat="44.44171" lon="5.09801">
        <ele>930.212891</ele>
        <time>2014-11-16T10:21:56Z</time>
      </trkpt>
      <trkpt lat="44.44179" lon="5.09803">
        <ele>931.174316</ele>
        <time>2014-11-16T10:22:06Z</time>
      </trkpt>
      <trkpt lat="44.44185" lon="5.09804">
        <ele>932.135498</ele>
        <time>2014-11-16T10:22:18Z</time>
      </trkpt>
      <trkpt lat="44.44195" lon="5.09804">
        <ele>933.09668</ele>
        <time>2014-11-16T10:22:28Z</time>
      </trkpt>
      <trkpt lat="44.44203" lon="5.09805">
        <ele>934.058105</ele>
        <time>2014-11-16T10:22:39Z</time>
      </trkpt>
      <trkpt lat="44.44218" lon="5.09812">
        <ele>935.019531</ele>
        <time>2014-11-16T10:22:54Z</time>
      </trkpt>
      <trkpt lat="44.44227" lon="5.09814">
        <ele>935.980713</ele>
        <time>2014-11-16T10:23:07Z</time>
      </trkpt>
      <trkpt lat="44.44233" lon="5.09819">
        <ele>937.422607</ele>
        <time>2014-11-16T10:23:19Z</time>
      </trkpt>
      <trkpt lat="44.44243" lon="5.09825">
        <ele>938.864746</ele>
        <time>2014-11-16T10:23:32Z</time>
      </trkpt>
      <trkpt lat="44.44249" lon="5.09827">
        <ele>939.825928</ele>
        <time>2014-11-16T10:23:42Z</time>
      </trkpt>
      <trkpt lat="44.44254" lon="5.0983">
        <ele>941.268066</ele>
        <time>2014-11-16T10:23:54Z</time>
      </trkpt>
      <trkpt lat="44.44264" lon="5.09836">
        <ele>942.229492</ele>
        <time>2014-11-16T10:24:07Z</time>
      </trkpt>
      <trkpt lat="44.4427" lon="5.0984">
        <ele>942.710205</ele>
        <time>2014-11-16T10:24:16Z</time>
      </trkpt>
      <trkpt lat="44.44281" lon="5.09848">
        <ele>944.1521</ele>
        <time>2014-11-16T10:24:31Z</time>
      </trkpt>
      <trkpt lat="44.44285" lon="5.09852">
        <ele>944.632568</ele>
        <time>2014-11-16T10:24:37Z</time>
      </trkpt>
      <trkpt lat="44.44295" lon="5.09857">
        <ele>945.593994</ele>
        <time>2014-11-16T10:24:48Z</time>
      </trkpt>
      <trkpt lat="44.44299" lon="5.09862">
        <ele>946.074707</ele>
        <time>2014-11-16T10:24:55Z</time>
      </trkpt>
      <trkpt lat="44.44302" lon="5.0987">
        <ele>947.035889</ele>
        <time>2014-11-16T10:25:04Z</time>
      </trkpt>
      <trkpt lat="44.44305" lon="5.09872">
        <ele>947.516602</ele>
        <time>2014-11-16T10:25:08Z</time>
      </trkpt>
      <trkpt lat="44.44317" lon="5.09878">
        <ele>948.477783</ele>
        <time>2014-11-16T10:25:20Z</time>
      </trkpt>
      <trkpt lat="44.44324" lon="5.09889">
        <ele>949.919922</ele>
        <time>2014-11-16T10:25:34Z</time>
      </trkpt>
      <trkpt lat="44.44327" lon="5.09899">
        <ele>951.361816</ele>
        <time>2014-11-16T10:25:45Z</time>
      </trkpt>
      <trkpt lat="44.44334" lon="5.09904">
        <ele>952.322998</ele>
        <time>2014-11-16T10:25:56Z</time>
      </trkpt>
      <trkpt lat="44.44338" lon="5.09912">
        <ele>953.284424</ele>
        <time>2014-11-16T10:26:05Z</time>
      </trkpt>
      <trkpt lat="44.44345" lon="5.09919">
        <ele>953.765137</ele>
        <time>2014-11-16T10:26:15Z</time>
      </trkpt>
      <trkpt lat="44.44354" lon="5.09931">
        <ele>955.207031</ele>
        <time>2014-11-16T10:26:29Z</time>
      </trkpt>
      <trkpt lat="44.44361" lon="5.09935">
        <ele>956.168457</ele>
        <time>2014-11-16T10:26:42Z</time>
      </trkpt>
      <trkpt lat="44.44373" lon="5.09941">
        <ele>957.610596</ele>
        <time>2014-11-16T10:26:54Z</time>
      </trkpt>
      <trkpt lat="44.44384" lon="5.09944">
        <ele>958.091309</ele>
        <time>2014-11-16T10:27:07Z</time>
      </trkpt>
      <trkpt lat="44.44393" lon="5.0995">
        <ele>959.05249</ele>
        <time>2014-11-16T10:27:18Z</time>
      </trkpt>
      <trkpt lat="44.444" lon="5.09954">
        <ele>960.494385</ele>
        <time>2014-11-16T10:27:29Z</time>
      </trkpt>
      <trkpt lat="44.44408" lon="5.0996">
        <ele>961.455811</ele>
        <time>2014-11-16T10:27:40Z</time>
      </trkpt>
      <trkpt lat="44.44418" lon="5.0996">
        <ele>962.416992</ele>
        <time>2014-11-16T10:27:50Z</time>
      </trkpt>
      <trkpt lat="44.44427" lon="5.09962">
        <ele>963.378418</ele>
        <time>2014-11-16T10:28:00Z</time>
      </trkpt>
      <trkpt lat="44.44433" lon="5.09961">
        <ele>964.3396</ele>
        <time>2014-11-16T10:28:09Z</time>
      </trkpt>
      <trkpt lat="44.44443" lon="5.09962">
        <ele>965.781738</ele>
        <time>2014-11-16T10:28:21Z</time>
      </trkpt>
      <trkpt lat="44.44454" lon="5.09954">
        <ele>967.223633</ele>
        <time>2014-11-16T10:28:34Z</time>
      </trkpt>
      <trkpt lat="44.44458" lon="5.09947">
        <ele>967.704102</ele>
        <time>2014-11-16T10:28:44Z</time>
      </trkpt>
      <trkpt lat="44.44455" lon="5.09939">
        <ele>968.184814</ele>
        <time>2014-11-16T10:28:54Z</time>
      </trkpt>
      <trkpt lat="44.44447" lon="5.09929">
        <ele>969.626953</ele>
        <time>2014-11-16T10:29:07Z</time>
      </trkpt>
      <trkpt lat="44.44439" lon="5.09916">
        <ele>971.549316</ele>
        <time>2014-11-16T10:29:21Z</time>
      </trkpt>
      <trkpt lat="44.44436" lon="5.09908">
        <ele>972.030273</ele>
        <time>2014-11-16T10:29:29Z</time>
      </trkpt>
      <trkpt lat="44.44433" lon="5.09897">
        <ele>973.472412</ele>
        <time>2014-11-16T10:29:41Z</time>
      </trkpt>
      <trkpt lat="44.44428" lon="5.09877">
        <ele>974.914307</ele>
        <time>2014-11-16T10:29:58Z</time>
      </trkpt>
      <trkpt lat="44.44428" lon="5.09876">
        <ele>975.394775</ele>
        <time>2014-11-16T10:29:59Z</time>
      </trkpt>
      <trkpt lat="44.44424" lon="5.09862">
        <ele>976.356201</ele>
        <time>2014-11-16T10:30:10Z</time>
      </trkpt>
      <trkpt lat="44.44424" lon="5.09851">
        <ele>976.836914</ele>
        <time>2014-11-16T10:30:19Z</time>
      </trkpt>
      <trkpt lat="44.44423" lon="5.09843">
        <ele>977.317627</ele>
        <time>2014-11-16T10:30:24Z</time>
      </trkpt>
      <trkpt lat="44.44422" lon="5.0983">
        <ele>978.278809</ele>
        <time>2014-11-16T10:30:34Z</time>
      </trkpt>
      <trkpt lat="44.44422" lon="5.09818">
        <ele>979.720703</ele>
        <time>2014-11-16T10:30:46Z</time>
      </trkpt>
      <trkpt lat="44.44422" lon="5.09808">
        <ele>980.201416</ele>
        <time>2014-11-16T10:30:55Z</time>
      </trkpt>
      <trkpt lat="44.4442" lon="5.09794">
        <ele>981.643311</ele>
        <time>2014-11-16T10:31:07Z</time>
      </trkpt>
      <trkpt lat="44.44418" lon="5.09782">
        <ele>982.604736</ele>
        <time>2014-11-16T10:31:17Z</time>
      </trkpt>
      <trkpt lat="44.44418" lon="5.09771">
        <ele>983.565918</ele>
        <time>2014-11-16T10:31:26Z</time>
      </trkpt>
      <trkpt lat="44.44415" lon="5.09754">
        <ele>985.008057</ele>
        <time>2014-11-16T10:31:40Z</time>
      </trkpt>
      <trkpt lat="44.44414" lon="5.09743">
        <ele>985.969238</ele>
        <time>2014-11-16T10:31:50Z</time>
      </trkpt>
      <trkpt lat="44.44412" lon="5.09731">
        <ele>987.411133</ele>
        <time>2014-11-16T10:32:01Z</time>
      </trkpt>
      <trkpt lat="44.44408" lon="5.09711">
        <ele>988.853516</ele>
        <time>2014-11-16T10:32:15Z</time>
      </trkpt>
      <trkpt lat="44.44407" lon="5.09697">
        <ele>989.814697</ele>
        <time>2014-11-16T10:32:27Z</time>
      </trkpt>
      <trkpt lat="44.44404" lon="5.09682">
        <ele>990.775879</ele>
        <time>2014-11-16T10:32:39Z</time>
      </trkpt>
      <trkpt lat="44.44402" lon="5.09669">
        <ele>991.256592</ele>
        <time>2014-11-16T10:32:50Z</time>
      </trkpt>
      <trkpt lat="44.44399" lon="5.09657">
        <ele>992.218018</ele>
        <time>2014-11-16T10:32:59Z</time>
      </trkpt>
      <trkpt lat="44.44396" lon="5.09645">
        <ele>993.179199</ele>
        <time>2014-11-16T10:33:08Z</time>
      </trkpt>
      <trkpt lat="44.44394" lon="5.09635">
        <ele>993.659912</ele>
        <time>2014-11-16T10:33:16Z</time>
      </trkpt>
      <trkpt lat="44.44392" lon="5.09625">
        <ele>994.621094</ele>
        <time>2014-11-16T10:33:26Z</time>
      </trkpt>
      <trkpt lat="44.44388" lon="5.09611">
        <ele>995.58252</ele>
        <time>2014-11-16T10:33:37Z</time>
      </trkpt>
      <trkpt lat="44.44384" lon="5.09601">
        <ele>996.543945</ele>
        <time>2014-11-16T10:33:47Z</time>
      </trkpt>
      <trkpt lat="44.44381" lon="5.09586">
        <ele>997.505127</ele>
        <time>2014-11-16T10:33:59Z</time>
      </trkpt>
      <trkpt lat="44.44379" lon="5.09577">
        <ele>998.466309</ele>
        <time>2014-11-16T10:34:06Z</time>
      </trkpt>
      <trkpt lat="44.44375" lon="5.09567">
        <ele>998.947021</ele>
        <time>2014-11-16T10:34:15Z</time>
      </trkpt>
      <trkpt lat="44.44368" lon="5.09554">
        <ele>1000.38916</ele>
        <time>2014-11-16T10:34:28Z</time>
      </trkpt>
      <trkpt lat="44.44361" lon="5.09542">
        <ele>1001.831055</ele>
        <time>2014-11-16T10:34:42Z</time>
      </trkpt>
      <trkpt lat="44.44356" lon="5.09529">
        <ele>1002.792236</ele>
        <time>2014-11-16T10:34:54Z</time>
      </trkpt>
      <trkpt lat="44.44353" lon="5.0952">
        <ele>1003.753662</ele>
        <time>2014-11-16T10:35:02Z</time>
      </trkpt>
      <trkpt lat="44.4435" lon="5.09512">
        <ele>1004.234619</ele>
        <time>2014-11-16T10:35:08Z</time>
      </trkpt>
      <trkpt lat="44.44348" lon="5.09498">
        <ele>1005.195801</ele>
        <time>2014-11-16T10:35:18Z</time>
      </trkpt>
      <trkpt lat="44.44352" lon="5.09485">
        <ele>1005.676514</ele>
        <time>2014-11-16T10:35:28Z</time>
      </trkpt>
      <trkpt lat="44.44356" lon="5.0948">
        <ele>1006.637695</ele>
        <time>2014-11-16T10:35:35Z</time>
      </trkpt>
      <trkpt lat="44.44365" lon="5.0947">
        <ele>1007.599121</ele>
        <time>2014-11-16T10:35:47Z</time>
      </trkpt>
      <trkpt lat="44.44372" lon="5.09464">
        <ele>1008.560303</ele>
        <time>2014-11-16T10:35:55Z</time>
      </trkpt>
      <trkpt lat="44.4438" lon="5.09457">
        <ele>1009.521729</ele>
        <time>2014-11-16T10:36:04Z</time>
      </trkpt>
      <trkpt lat="44.44387" lon="5.09453">
        <ele>1010.48291</ele>
        <time>2014-11-16T10:36:13Z</time>
      </trkpt>
      <trkpt lat="44.44395" lon="5.09448">
        <ele>1011.925049</ele>
        <time>2014-11-16T10:36:23Z</time>
      </trkpt>
      <trkpt lat="44.444" lon="5.09445">
        <ele>1012.88623</ele>
        <time>2014-11-16T10:36:31Z</time>
      </trkpt>
      <trkpt lat="44.44407" lon="5.0944">
        <ele>1013.366943</ele>
        <time>2014-11-16T10:36:39Z</time>
      </trkpt>
      <trkpt lat="44.44416" lon="5.09434">
        <ele>1014.328125</ele>
        <time>2014-11-16T10:36:49Z</time>
      </trkpt>
      <trkpt lat="44.44424" lon="5.09428">
        <ele>1015.289551</ele>
        <time>2014-11-16T10:36:58Z</time>
      </trkpt>
      <trkpt lat="44.4443" lon="5.09422">
        <ele>1016.250732</ele>
        <time>2014-11-16T10:37:07Z</time>
      </trkpt>
      <trkpt lat="44.44437" lon="5.09416">
        <ele>1017.692627</ele>
        <time>2014-11-16T10:37:18Z</time>
      </trkpt>
      <trkpt lat="44.44444" lon="5.09411">
        <ele>1018.17334</ele>
        <time>2014-11-16T10:37:27Z</time>
      </trkpt>
      <trkpt lat="44.44447" lon="5.0941">
        <ele>1018.654053</ele>
        <time>2014-11-16T10:37:30Z</time>
      </trkpt>
      <trkpt lat="44.44454" lon="5.09406">
        <ele>1019.134766</ele>
        <time>2014-11-16T10:37:38Z</time>
      </trkpt>
      <trkpt lat="44.44462" lon="5.09398">
        <ele>1020.096191</ele>
        <time>2014-11-16T10:37:48Z</time>
      </trkpt>
      <trkpt lat="44.4447" lon="5.09394">
        <ele>1020.576904</ele>
        <time>2014-11-16T10:37:57Z</time>
      </trkpt>
      <trkpt lat="44.44474" lon="5.09391">
        <ele>1021.057617</ele>
        <time>2014-11-16T10:38:04Z</time>
      </trkpt>
      <trkpt lat="44.44483" lon="5.09385">
        <ele>1022.018799</ele>
        <time>2014-11-16T10:38:15Z</time>
      </trkpt>
      <trkpt lat="44.4449" lon="5.09378">
        <ele>1022.499512</ele>
        <time>2014-11-16T10:38:24Z</time>
      </trkpt>
      <trkpt lat="44.44499" lon="5.09371">
        <ele>1023.941406</ele>
        <time>2014-11-16T10:38:35Z</time>
      </trkpt>
      <trkpt lat="44.4451" lon="5.09359">
        <ele>1024.902832</ele>
        <time>2014-11-16T10:38:47Z</time>
      </trkpt>
      <trkpt lat="44.44518" lon="5.09353">
        <ele>1025.383301</ele>
        <time>2014-11-16T10:38:55Z</time>
      </trkpt>
      <trkpt lat="44.44523" lon="5.09351">
        <ele>1025.864014</ele>
        <time>2014-11-16T10:39:01Z</time>
      </trkpt>
      <trkpt lat="44.44529" lon="5.0935">
        <ele>1026.344727</ele>
        <time>2014-11-16T10:39:10Z</time>
      </trkpt>
      <trkpt lat="44.44536" lon="5.09347">
        <ele>1026.825439</ele>
        <time>2014-11-16T10:39:18Z</time>
      </trkpt>
      <trkpt lat="44.44543" lon="5.09338">
        <ele>1027.306152</ele>
        <time>2014-11-16T10:39:26Z</time>
      </trkpt>
      <trkpt lat="44.44545" lon="5.09334">
        <ele>1027.786621</ele>
        <time>2014-11-16T10:39:29Z</time>
      </trkpt>
      <trkpt lat="44.44551" lon="5.09329">
        <ele>1028.748047</ele>
        <time>2014-11-16T10:39:37Z</time>
      </trkpt>
      <trkpt lat="44.44556" lon="5.09325">
        <ele>1029.228516</ele>
        <time>2014-11-16T10:39:45Z</time>
      </trkpt>
      <trkpt lat="44.44561" lon="5.09322">
        <ele>1029.709229</ele>
        <time>2014-11-16T10:39:53Z</time>
      </trkpt>
      <trkpt lat="44.44567" lon="5.09317">
        <ele>1030.189941</ele>
        <time>2014-11-16T10:40:02Z</time>
      </trkpt>
      <trkpt lat="44.44572" lon="5.09311">
        <ele>1031.631836</ele>
        <time>2014-11-16T10:40:12Z</time>
      </trkpt>
      <trkpt lat="44.44572" lon="5.09309">
        <ele>1031.631836</ele>
        <time>2014-11-16T10:40:25Z</time>
      </trkpt>
      <trkpt lat="44.44569" lon="5.0931">
        <ele>1032.112549</ele>
        <time>2014-11-16T10:40:32Z</time>
      </trkpt>
      <trkpt lat="44.44568" lon="5.0931">
        <ele>1032.112549</ele>
        <time>2014-11-16T10:41:07Z</time>
      </trkpt>
      <trkpt lat="44.4457" lon="5.09309">
        <ele>1032.112549</ele>
        <time>2014-11-16T10:41:35Z</time>
      </trkpt>
      <trkpt lat="44.44571" lon="5.09308">
        <ele>1032.593262</ele>
        <time>2014-11-16T10:41:48Z</time>
      </trkpt>
      <trkpt lat="44.44575" lon="5.09303">
        <ele>1033.07373</ele>
        <time>2014-11-16T10:43:07Z</time>
      </trkpt>
      <trkpt lat="44.44587" lon="5.09293">
        <ele>1034.035156</ele>
        <time>2014-11-16T10:43:22Z</time>
      </trkpt>
      <trkpt lat="44.44594" lon="5.09287">
        <ele>1034.035156</ele>
        <time>2014-11-16T10:43:33Z</time>
      </trkpt>
      <trkpt lat="44.44596" lon="5.09286">
        <ele>1034.515869</ele>
        <time>2014-11-16T10:43:44Z</time>
      </trkpt>
      <trkpt lat="44.44598" lon="5.09284">
        <ele>1034.515869</ele>
        <time>2014-11-16T10:43:55Z</time>
      </trkpt>
      <trkpt lat="44.44602" lon="5.09283">
        <ele>1034.996582</ele>
        <time>2014-11-16T10:44:17Z</time>
      </trkpt>
      <trkpt lat="44.44601" lon="5.09284">
        <ele>1034.996582</ele>
        <time>2014-11-16T10:44:24Z</time>
      </trkpt>
      <trkpt lat="44.44603" lon="5.09283">
        <ele>1034.996582</ele>
        <time>2014-11-16T10:44:27Z</time>
      </trkpt>
      <trkpt lat="44.44612" lon="5.09279">
        <ele>1035.957764</ele>
        <time>2014-11-16T10:44:36Z</time>
      </trkpt>
      <trkpt lat="44.44623" lon="5.09268">
        <ele>1036.438721</ele>
        <time>2014-11-16T10:44:47Z</time>
      </trkpt>
      <trkpt lat="44.44634" lon="5.09259">
        <ele>1037.399902</ele>
        <time>2014-11-16T10:44:57Z</time>
      </trkpt>
      <trkpt lat="44.44645" lon="5.09251">
        <ele>1037.399902</ele>
        <time>2014-11-16T10:45:07Z</time>
      </trkpt>
      <trkpt lat="44.44656" lon="5.0924">
        <ele>1037.880615</ele>
        <time>2014-11-16T10:45:19Z</time>
      </trkpt>
      <trkpt lat="44.44659" lon="5.09238">
        <ele>1038.361328</ele>
        <time>2014-11-16T10:45:29Z</time>
      </trkpt>
      <trkpt lat="44.44662" lon="5.09237">
        <ele>1038.361328</ele>
        <time>2014-11-16T10:45:39Z</time>
      </trkpt>
      <trkpt lat="44.44662" lon="5.09236">
        <ele>1037.880615</ele>
        <time>2014-11-16T10:45:56Z</time>
      </trkpt>
      <trkpt lat="44.44662" lon="5.09238">
        <ele>1038.842041</ele>
        <time>2014-11-16T10:47:14Z</time>
      </trkpt>
      <trkpt lat="44.44663" lon="5.09238">
        <ele>1038.842041</ele>
        <time>2014-11-16T10:47:25Z</time>
      </trkpt>
      <trkpt lat="44.44664" lon="5.09243">
        <ele>1039.32251</ele>
        <time>2014-11-16T10:47:31Z</time>
      </trkpt>
      <trkpt lat="44.44659" lon="5.09252">
        <ele>1040.764404</ele>
        <time>2014-11-16T10:47:40Z</time>
      </trkpt>
      <trkpt lat="44.44655" lon="5.09253">
        <ele>1040.764404</ele>
        <time>2014-11-16T10:47:50Z</time>
      </trkpt>
      <trkpt lat="44.44649" lon="5.09257">
        <ele>1040.764404</ele>
        <time>2014-11-16T10:48:04Z</time>
      </trkpt>
      <trkpt lat="44.44643" lon="5.09258">
        <ele>1041.245117</ele>
        <time>2014-11-16T10:48:12Z</time>
      </trkpt>
      <trkpt lat="44.44637" lon="5.09272">
        <ele>1041.72583</ele>
        <time>2014-11-16T10:48:21Z</time>
      </trkpt>
      <trkpt lat="44.44632" lon="5.09283">
        <ele>1042.687256</ele>
        <time>2014-11-16T10:48:30Z</time>
      </trkpt>
      <trkpt lat="44.44628" lon="5.0929">
        <ele>1043.167725</ele>
        <time>2014-11-16T10:48:38Z</time>
      </trkpt>
      <trkpt lat="44.44622" lon="5.09298">
        <ele>1044.12915</ele>
        <time>2014-11-16T10:48:45Z</time>
      </trkpt>
      <trkpt lat="44.44616" lon="5.09307">
        <ele>1045.090332</ele>
        <time>2014-11-16T10:48:53Z</time>
      </trkpt>
      <trkpt lat="44.44612" lon="5.09315">
        <ele>1045.571045</ele>
        <time>2014-11-16T10:49:00Z</time>
      </trkpt>
      <trkpt lat="44.44607" lon="5.09323">
        <ele>1046.532471</ele>
        <time>2014-11-16T10:49:08Z</time>
      </trkpt>
      <trkpt lat="44.446" lon="5.09334">
        <ele>1047.493652</ele>
        <time>2014-11-16T10:49:17Z</time>
      </trkpt>
      <trkpt lat="44.44593" lon="5.09345">
        <ele>1048.454834</ele>
        <time>2014-11-16T10:49:28Z</time>
      </trkpt>
      <trkpt lat="44.44591" lon="5.0935">
        <ele>1048.935547</ele>
        <time>2014-11-16T10:49:34Z</time>
      </trkpt>
      <trkpt lat="44.44587" lon="5.09361">
        <ele>1049.41626</ele>
        <time>2014-11-16T10:49:42Z</time>
      </trkpt>
      <trkpt lat="44.44585" lon="5.09367">
        <ele>1050.377686</ele>
        <time>2014-11-16T10:49:48Z</time>
      </trkpt>
      <trkpt lat="44.44582" lon="5.09375">
        <ele>1050.858154</ele>
        <time>2014-11-16T10:49:55Z</time>
      </trkpt>
      <trkpt lat="44.44579" lon="5.09385">
        <ele>1051.81958</ele>
        <time>2014-11-16T10:50:02Z</time>
      </trkpt>
      <trkpt lat="44.44576" lon="5.09395">
        <ele>1052.781006</ele>
        <time>2014-11-16T10:50:10Z</time>
      </trkpt>
      <trkpt lat="44.44573" lon="5.09404">
        <ele>1053.261719</ele>
        <time>2014-11-16T10:50:17Z</time>
      </trkpt>
      <trkpt lat="44.44569" lon="5.09416">
        <ele>1054.223145</ele>
        <time>2014-11-16T10:50:24Z</time>
      </trkpt>
      <trkpt lat="44.44564" lon="5.09426">
        <ele>1054.703613</ele>
        <time>2014-11-16T10:50:32Z</time>
      </trkpt>
      <trkpt lat="44.4456" lon="5.09435">
        <ele>1055.665039</ele>
        <time>2014-11-16T10:50:39Z</time>
      </trkpt>
      <trkpt lat="44.44558" lon="5.0944">
        <ele>1056.145508</ele>
        <time>2014-11-16T10:50:45Z</time>
      </trkpt>
      <trkpt lat="44.44554" lon="5.09451">
        <ele>1057.106934</ele>
        <time>2014-11-16T10:50:54Z</time>
      </trkpt>
      <trkpt lat="44.44552" lon="5.09457">
        <ele>1057.587646</ele>
        <time>2014-11-16T10:51:02Z</time>
      </trkpt>
      <trkpt lat="44.44549" lon="5.09466">
        <ele>1058.548828</ele>
        <time>2014-11-16T10:51:08Z</time>
      </trkpt>
      <trkpt lat="44.44546" lon="5.09475">
        <ele>1059.029541</ele>
        <time>2014-11-16T10:51:15Z</time>
      </trkpt>
      <trkpt lat="44.44543" lon="5.09483">
        <ele>1059.990723</ele>
        <time>2014-11-16T10:51:22Z</time>
      </trkpt>
      <trkpt lat="44.44537" lon="5.09495">
        <ele>1060.952148</ele>
        <time>2014-11-16T10:51:30Z</time>
      </trkpt>
      <trkpt lat="44.44532" lon="5.09505">
        <ele>1061.432861</ele>
        <time>2014-11-16T10:51:37Z</time>
      </trkpt>
      <trkpt lat="44.4453" lon="5.09513">
        <ele>1062.394043</ele>
        <time>2014-11-16T10:51:46Z</time>
      </trkpt>
      <trkpt lat="44.44528" lon="5.09524">
        <ele>1062.874756</ele>
        <time>2014-11-16T10:51:53Z</time>
      </trkpt>
      <trkpt lat="44.44524" lon="5.09533">
        <ele>1063.355469</ele>
        <time>2014-11-16T10:52:00Z</time>
      </trkpt>
      <trkpt lat="44.4452" lon="5.09544">
        <ele>1064.31665</ele>
        <time>2014-11-16T10:52:10Z</time>
      </trkpt>
      <trkpt lat="44.44516" lon="5.09554">
        <ele>1065.278076</ele>
        <time>2014-11-16T10:52:18Z</time>
      </trkpt>
      <trkpt lat="44.44512" lon="5.09563">
        <ele>1066.239258</ele>
        <time>2014-11-16T10:52:23Z</time>
      </trkpt>
      <trkpt lat="44.44509" lon="5.09575">
        <ele>1067.200684</ele>
        <time>2014-11-16T10:52:32Z</time>
      </trkpt>
      <trkpt lat="44.44507" lon="5.09593">
        <ele>1068.162109</ele>
        <time>2014-11-16T10:52:43Z</time>
      </trkpt>
      <trkpt lat="44.44511" lon="5.096">
        <ele>1069.604248</ele>
        <time>2014-11-16T10:52:51Z</time>
      </trkpt>
      <trkpt lat="44.44515" lon="5.09609">
        <ele>1070.56543</ele>
        <time>2014-11-16T10:53:00Z</time>
      </trkpt>
      <trkpt lat="44.44517" lon="5.09612">
        <ele>1071.046143</ele>
        <time>2014-11-16T10:53:05Z</time>
      </trkpt>
      <trkpt lat="44.44523" lon="5.09624">
        <ele>1072.488037</ele>
        <time>2014-11-16T10:53:17Z</time>
      </trkpt>
      <trkpt lat="44.44529" lon="5.0964">
        <ele>1073.929932</ele>
        <time>2014-11-16T10:53:30Z</time>
      </trkpt>
      <trkpt lat="44.44529" lon="5.09642">
        <ele>1073.929932</ele>
        <time>2014-11-16T10:53:32Z</time>
      </trkpt>
      <trkpt lat="44.44535" lon="5.09656">
        <ele>1074.891357</ele>
        <time>2014-11-16T10:53:43Z</time>
      </trkpt>
      <trkpt lat="44.44539" lon="5.09665">
        <ele>1075.852539</ele>
        <time>2014-11-16T10:53:50Z</time>
      </trkpt>
      <trkpt lat="44.44543" lon="5.09677">
        <ele>1076.813965</ele>
        <time>2014-11-16T10:54:00Z</time>
      </trkpt>
      <trkpt lat="44.44546" lon="5.09685">
        <ele>1077.294678</ele>
        <time>2014-11-16T10:54:07Z</time>
      </trkpt>
      <trkpt lat="44.44551" lon="5.09697">
        <ele>1078.736572</ele>
        <time>2014-11-16T10:54:19Z</time>
      </trkpt>
      <trkpt lat="44.44558" lon="5.09706">
        <ele>1079.697754</ele>
        <time>2014-11-16T10:54:29Z</time>
      </trkpt>
      <trkpt lat="44.44565" lon="5.09716">
        <ele>1081.139893</ele>
        <time>2014-11-16T10:54:40Z</time>
      </trkpt>
      <trkpt lat="44.4457" lon="5.09723">
        <ele>1081.620361</ele>
        <time>2014-11-16T10:54:47Z</time>
      </trkpt>
      <trkpt lat="44.44575" lon="5.0973">
        <ele>1082.581787</ele>
        <time>2014-11-16T10:54:55Z</time>
      </trkpt>
      <trkpt lat="44.44579" lon="5.09734">
        <ele>1083.062256</ele>
        <time>2014-11-16T10:55:01Z</time>
      </trkpt>
      <trkpt lat="44.44584" lon="5.09742">
        <ele>1083.542969</ele>
        <time>2014-11-16T10:55:10Z</time>
      </trkpt>
      <trkpt lat="44.44589" lon="5.0975">
        <ele>1084.985352</ele>
        <time>2014-11-16T10:55:19Z</time>
      </trkpt>
      <trkpt lat="44.44601" lon="5.09759">
        <ele>1085.946533</ele>
        <time>2014-11-16T10:55:34Z</time>
      </trkpt>
      <trkpt lat="44.44608" lon="5.09765">
        <ele>1086.907715</ele>
        <time>2014-11-16T10:55:43Z</time>
      </trkpt>
      <trkpt lat="44.44614" lon="5.0977">
        <ele>1087.388428</ele>
        <time>2014-11-16T10:55:51Z</time>
      </trkpt>
      <trkpt lat="44.4462" lon="5.09773">
        <ele>1088.349854</ele>
        <time>2014-11-16T10:55:59Z</time>
      </trkpt>
      <trkpt lat="44.44627" lon="5.0978">
        <ele>1089.311035</ele>
        <time>2014-11-16T10:56:10Z</time>
      </trkpt>
      <trkpt lat="44.44632" lon="5.0979">
        <ele>1090.272461</ele>
        <time>2014-11-16T10:56:19Z</time>
      </trkpt>
      <trkpt lat="44.4464" lon="5.09796">
        <ele>1091.233643</ele>
        <time>2014-11-16T10:56:28Z</time>
      </trkpt>
      <trkpt lat="44.44645" lon="5.09801">
        <ele>1092.195068</ele>
        <time>2014-11-16T10:56:36Z</time>
      </trkpt>
      <trkpt lat="44.4465" lon="5.09808">
        <ele>1092.675781</ele>
        <time>2014-11-16T10:56:43Z</time>
      </trkpt>
      <trkpt lat="44.44657" lon="5.0981">
        <ele>1093.636963</ele>
        <time>2014-11-16T10:56:51Z</time>
      </trkpt>
      <trkpt lat="44.44661" lon="5.09813">
        <ele>1094.598145</ele>
        <time>2014-11-16T10:56:58Z</time>
      </trkpt>
      <trkpt lat="44.44668" lon="5.09819">
        <ele>1095.078857</ele>
        <time>2014-11-16T10:57:07Z</time>
      </trkpt>
      <trkpt lat="44.44674" lon="5.09823">
        <ele>1096.520996</ele>
        <time>2014-11-16T10:57:16Z</time>
      </trkpt>
      <trkpt lat="44.44683" lon="5.09829">
        <ele>1097.962891</ele>
        <time>2014-11-16T10:57:27Z</time>
      </trkpt>
      <trkpt lat="44.44689" lon="5.09832">
        <ele>1098.924072</ele>
        <time>2014-11-16T10:57:35Z</time>
      </trkpt>
      <trkpt lat="44.44695" lon="5.09834">
        <ele>1099.404785</ele>
        <time>2014-11-16T10:57:43Z</time>
      </trkpt>
      <trkpt lat="44.44701" lon="5.09841">
        <ele>1100.366455</ele>
        <time>2014-11-16T10:57:53Z</time>
      </trkpt>
      <trkpt lat="44.44708" lon="5.09846">
        <ele>1100.846924</ele>
        <time>2014-11-16T10:58:02Z</time>
      </trkpt>
      <trkpt lat="44.44712" lon="5.09849">
        <ele>1101.327637</ele>
        <time>2014-11-16T10:58:07Z</time>
      </trkpt>
      <trkpt lat="44.44719" lon="5.09851">
        <ele>1102.288818</ele>
        <time>2014-11-16T10:58:15Z</time>
      </trkpt>
      <trkpt lat="44.44726" lon="5.09855">
        <ele>1102.769531</ele>
        <time>2014-11-16T10:58:24Z</time>
      </trkpt>
      <trkpt lat="44.44735" lon="5.09862">
        <ele>1104.21167</ele>
        <time>2014-11-16T10:58:37Z</time>
      </trkpt>
      <trkpt lat="44.44743" lon="5.09867">
        <ele>1105.172852</ele>
        <time>2014-11-16T10:58:47Z</time>
      </trkpt>
      <trkpt lat="44.4475" lon="5.09871">
        <ele>1106.134033</ele>
        <time>2014-11-16T10:58:56Z</time>
      </trkpt>
      <trkpt lat="44.44757" lon="5.09873">
        <ele>1107.095459</ele>
        <time>2014-11-16T10:59:05Z</time>
      </trkpt>
      <trkpt lat="44.44765" lon="5.09877">
        <ele>1108.537354</ele>
        <time>2014-11-16T10:59:17Z</time>
      </trkpt>
      <trkpt lat="44.44772" lon="5.09883">
        <ele>1109.018066</ele>
        <time>2014-11-16T10:59:26Z</time>
      </trkpt>
      <trkpt lat="44.44776" lon="5.09891">
        <ele>1109.979248</ele>
        <time>2014-11-16T10:59:35Z</time>
      </trkpt>
      <trkpt lat="44.44781" lon="5.09897">
        <ele>1110.940674</ele>
        <time>2014-11-16T10:59:43Z</time>
      </trkpt>
      <trkpt lat="44.44791" lon="5.09902">
        <ele>1111.9021</ele>
        <time>2014-11-16T10:59:54Z</time>
      </trkpt>
      <trkpt lat="44.44793" lon="5.09905">
        <ele>1111.9021</ele>
        <time>2014-11-16T10:59:59Z</time>
      </trkpt>
      <trkpt lat="44.44802" lon="5.09911">
        <ele>1112.863281</ele>
        <time>2014-11-16T11:00:09Z</time>
      </trkpt>
      <trkpt lat="44.44804" lon="5.09913">
        <ele>1113.343994</ele>
        <time>2014-11-16T11:00:12Z</time>
      </trkpt>
      <trkpt lat="44.44812" lon="5.0992">
        <ele>1113.824463</ele>
        <time>2014-11-16T11:00:22Z</time>
      </trkpt>
      <trkpt lat="44.44816" lon="5.0993">
        <ele>1114.305176</ele>
        <time>2014-11-16T11:00:30Z</time>
      </trkpt>
      <trkpt lat="44.44822" lon="5.09937">
        <ele>1114.785889</ele>
        <time>2014-11-16T11:00:39Z</time>
      </trkpt>
      <trkpt lat="44.44827" lon="5.09946">
        <ele>1115.266602</ele>
        <time>2014-11-16T11:00:48Z</time>
      </trkpt>
      <trkpt lat="44.44832" lon="5.09956">
        <ele>1115.747314</ele>
        <time>2014-11-16T11:00:58Z</time>
      </trkpt>
      <trkpt lat="44.44833" lon="5.09964">
        <ele>1116.228027</ele>
        <time>2014-11-16T11:01:03Z</time>
      </trkpt>
      <trkpt lat="44.44836" lon="5.09974">
        <ele>1116.70874</ele>
        <time>2014-11-16T11:01:12Z</time>
      </trkpt>
      <trkpt lat="44.44841" lon="5.09983">
        <ele>1116.70874</ele>
        <time>2014-11-16T11:01:22Z</time>
      </trkpt>
      <trkpt lat="44.44844" lon="5.09978">
        <ele>1117.669922</ele>
        <time>2014-11-16T11:01:29Z</time>
      </trkpt>
      <trkpt lat="44.44843" lon="5.09969">
        <ele>1118.150635</ele>
        <time>2014-11-16T11:01:36Z</time>
      </trkpt>
      <trkpt lat="44.44837" lon="5.09955">
        <ele>1118.150635</ele>
        <time>2014-11-16T11:01:48Z</time>
      </trkpt>
      <trkpt lat="44.44833" lon="5.09948">
        <ele>1118.631348</ele>
        <time>2014-11-16T11:01:55Z</time>
      </trkpt>
      <trkpt lat="44.44827" lon="5.09935">
        <ele>1119.112061</ele>
        <time>2014-11-16T11:02:09Z</time>
      </trkpt>
      <trkpt lat="44.44817" lon="5.09917">
        <ele>1120.073242</ele>
        <time>2014-11-16T11:02:24Z</time>
      </trkpt>
      <trkpt lat="44.4481" lon="5.09905">
        <ele>1120.073242</ele>
        <time>2014-11-16T11:02:36Z</time>
      </trkpt>
      <trkpt lat="44.44801" lon="5.09891">
        <ele>1121.515137</ele>
        <time>2014-11-16T11:02:49Z</time>
      </trkpt>
      <trkpt lat="44.44791" lon="5.09875">
        <ele>1122.476563</ele>
        <time>2014-11-16T11:03:04Z</time>
      </trkpt>
      <trkpt lat="44.44789" lon="5.09872">
        <ele>1122.957275</ele>
        <time>2014-11-16T11:03:08Z</time>
      </trkpt>
      <trkpt lat="44.44783" lon="5.09863">
        <ele>1123.918457</ele>
        <time>2014-11-16T11:03:19Z</time>
      </trkpt>
      <trkpt lat="44.44776" lon="5.09852">
        <ele>1124.39917</ele>
        <time>2014-11-16T11:03:31Z</time>
      </trkpt>
      <trkpt lat="44.44768" lon="5.09839">
        <ele>1125.841064</ele>
        <time>2014-11-16T11:03:42Z</time>
      </trkpt>
      <trkpt lat="44.44758" lon="5.09825">
        <ele>1126.80249</ele>
        <time>2014-11-16T11:03:57Z</time>
      </trkpt>
      <trkpt lat="44.44746" lon="5.09808">
        <ele>1128.244385</ele>
        <time>2014-11-16T11:04:16Z</time>
      </trkpt>
      <trkpt lat="44.44736" lon="5.09792">
        <ele>1130.166992</ele>
        <time>2014-11-16T11:04:33Z</time>
      </trkpt>
      <trkpt lat="44.4473" lon="5.0978">
        <ele>1131.128418</ele>
        <time>2014-11-16T11:04:46Z</time>
      </trkpt>
      <trkpt lat="44.44726" lon="5.0977">
        <ele>1132.089844</ele>
        <time>2014-11-16T11:04:56Z</time>
      </trkpt>
      <trkpt lat="44.44718" lon="5.09754">
        <ele>1133.051025</ele>
        <time>2014-11-16T11:05:08Z</time>
      </trkpt>
      <trkpt lat="44.44711" lon="5.0974">
        <ele>1134.012451</ele>
        <time>2014-11-16T11:05:19Z</time>
      </trkpt>
      <trkpt lat="44.447" lon="5.09726">
        <ele>1134.973877</ele>
        <time>2014-11-16T11:05:35Z</time>
      </trkpt>
      <trkpt lat="44.44693" lon="5.09713">
        <ele>1135.935059</ele>
        <time>2014-11-16T11:05:48Z</time>
      </trkpt>
      <trkpt lat="44.44686" lon="5.09696">
        <ele>1136.89624</ele>
        <time>2014-11-16T11:06:03Z</time>
      </trkpt>
      <trkpt lat="44.44684" lon="5.09683">
        <ele>1137.857666</ele>
        <time>2014-11-16T11:06:13Z</time>
      </trkpt>
      <trkpt lat="44.44686" lon="5.09676">
        <ele>1138.338379</ele>
        <time>2014-11-16T11:06:19Z</time>
      </trkpt>
      <trkpt lat="44.44691" lon="5.09666">
        <ele>1138.819092</ele>
        <time>2014-11-16T11:06:29Z</time>
      </trkpt>
      <trkpt lat="44.44698" lon="5.09658">
        <ele>1140.260986</ele>
        <time>2014-11-16T11:06:39Z</time>
      </trkpt>
      <trkpt lat="44.44706" lon="5.09652">
        <ele>1141.222168</ele>
        <time>2014-11-16T11:06:48Z</time>
      </trkpt>
      <trkpt lat="44.44713" lon="5.09645">
        <ele>1142.183594</ele>
        <time>2014-11-16T11:06:57Z</time>
      </trkpt>
      <trkpt lat="44.44719" lon="5.0964">
        <ele>1142.664307</ele>
        <time>2014-11-16T11:07:05Z</time>
      </trkpt>
      <trkpt lat="44.44721" lon="5.09638">
        <ele>1142.664307</ele>
        <time>2014-11-16T11:07:08Z</time>
      </trkpt>
      <trkpt lat="44.44727" lon="5.09633">
        <ele>1143.625488</ele>
        <time>2014-11-16T11:07:17Z</time>
      </trkpt>
      <trkpt lat="44.44733" lon="5.0963">
        <ele>1144.58667</ele>
        <time>2014-11-16T11:07:25Z</time>
      </trkpt>
      <trkpt lat="44.44739" lon="5.09627">
        <ele>1145.067383</ele>
        <time>2014-11-16T11:07:31Z</time>
      </trkpt>
      <trkpt lat="44.44745" lon="5.09625">
        <ele>1145.548096</ele>
        <time>2014-11-16T11:07:38Z</time>
      </trkpt>
      <trkpt lat="44.44753" lon="5.09625">
        <ele>1146.028809</ele>
        <time>2014-11-16T11:07:47Z</time>
      </trkpt>
      <trkpt lat="44.44759" lon="5.09627">
        <ele>1146.98999</ele>
        <time>2014-11-16T11:07:56Z</time>
      </trkpt>
      <trkpt lat="44.44769" lon="5.0963">
        <ele>1147.951416</ele>
        <time>2014-11-16T11:08:08Z</time>
      </trkpt>
      <trkpt lat="44.44776" lon="5.09634">
        <ele>1149.393555</ele>
        <time>2014-11-16T11:08:17Z</time>
      </trkpt>
      <trkpt lat="44.44784" lon="5.09643">
        <ele>1150.35498</ele>
        <time>2014-11-16T11:08:29Z</time>
      </trkpt>
      <trkpt lat="44.44792" lon="5.09649">
        <ele>1151.316162</ele>
        <time>2014-11-16T11:08:39Z</time>
      </trkpt>
      <trkpt lat="44.44797" lon="5.09655">
        <ele>1151.796875</ele>
        <time>2014-11-16T11:08:46Z</time>
      </trkpt>
      <trkpt lat="44.44802" lon="5.09661">
        <ele>1151.796875</ele>
        <time>2014-11-16T11:08:53Z</time>
      </trkpt>
      <trkpt lat="44.44809" lon="5.09668">
        <ele>1152.277344</ele>
        <time>2014-11-16T11:09:02Z</time>
      </trkpt>
      <trkpt lat="44.44816" lon="5.09676">
        <ele>1153.23877</ele>
        <time>2014-11-16T11:09:11Z</time>
      </trkpt>
      <trkpt lat="44.4482" lon="5.09682">
        <ele>1153.719482</ele>
        <time>2014-11-16T11:09:18Z</time>
      </trkpt>
      <trkpt lat="44.44825" lon="5.09688">
        <ele>1154.680664</ele>
        <time>2014-11-16T11:09:27Z</time>
      </trkpt>
      <trkpt lat="44.4483" lon="5.09696">
        <ele>1155.161377</ele>
        <time>2014-11-16T11:09:36Z</time>
      </trkpt>
      <trkpt lat="44.44834" lon="5.09704">
        <ele>1156.603271</ele>
        <time>2014-11-16T11:09:46Z</time>
      </trkpt>
      <trkpt lat="44.44838" lon="5.09712">
        <ele>1157.564697</ele>
        <time>2014-11-16T11:09:54Z</time>
      </trkpt>
      <trkpt lat="44.4484" lon="5.09723">
        <ele>1158.525879</ele>
        <time>2014-11-16T11:10:02Z</time>
      </trkpt>
      <trkpt lat="44.44841" lon="5.09734">
        <ele>1159.006592</ele>
        <time>2014-11-16T11:10:10Z</time>
      </trkpt>
      <trkpt lat="44.44842" lon="5.09736">
        <ele>1159.006592</ele>
        <time>2014-11-16T11:10:12Z</time>
      </trkpt>
      <trkpt lat="44.44846" lon="5.09744">
        <ele>1159.967773</ele>
        <time>2014-11-16T11:10:24Z</time>
      </trkpt>
      <trkpt lat="44.44842" lon="5.09747">
        <ele>1160.448486</ele>
        <time>2014-11-16T11:10:34Z</time>
      </trkpt>
      <trkpt lat="44.4484" lon="5.0975">
        <ele>1161.409912</ele>
        <time>2014-11-16T11:10:42Z</time>
      </trkpt>
      <trkpt lat="44.44843" lon="5.09757">
        <ele>1161.890625</ele>
        <time>2014-11-16T11:10:51Z</time>
      </trkpt>
      <trkpt lat="44.44848" lon="5.09765">
        <ele>1162.851807</ele>
        <time>2014-11-16T11:10:59Z</time>
      </trkpt>
      <trkpt lat="44.44855" lon="5.09774">
        <ele>1163.812988</ele>
        <time>2014-11-16T11:11:10Z</time>
      </trkpt>
      <trkpt lat="44.4486" lon="5.09774">
        <ele>1164.774658</ele>
        <time>2014-11-16T11:11:20Z</time>
      </trkpt>
      <trkpt lat="44.44862" lon="5.09775">
        <ele>1164.774658</ele>
        <time>2014-11-16T11:11:21Z</time>
      </trkpt>
      <trkpt lat="44.44868" lon="5.09782">
        <ele>1165.255371</ele>
        <time>2014-11-16T11:11:34Z</time>
      </trkpt>
      <trkpt lat="44.4487" lon="5.09782">
        <ele>1165.255371</ele>
        <time>2014-11-16T11:12:55Z</time>
      </trkpt>
      <trkpt lat="44.44871" lon="5.09782">
        <ele>1164.774658</ele>
        <time>2014-11-16T11:13:41Z</time>
      </trkpt>
      <trkpt lat="44.44871" lon="5.09782">
        <ele>1165.255371</ele>
        <time>2014-11-16T11:14:24Z</time>
      </trkpt>
      <trkpt lat="44.44872" lon="5.09783">
        <ele>1165.255371</ele>
        <time>2014-11-16T11:15:48Z</time>
      </trkpt>
      <trkpt lat="44.44873" lon="5.09783">
        <ele>1165.255371</ele>
        <time>2014-11-16T11:16:01Z</time>
      </trkpt>
      <trkpt lat="44.44874" lon="5.09784">
        <ele>1165.736084</ele>
        <time>2014-11-16T11:16:29Z</time>
      </trkpt>
      <trkpt lat="44.44877" lon="5.09786">
        <ele>1166.697266</ele>
        <time>2014-11-16T11:16:37Z</time>
      </trkpt>
      <trkpt lat="44.44881" lon="5.09788">
        <ele>1167.177979</ele>
        <time>2014-11-16T11:16:45Z</time>
      </trkpt>
      <trkpt lat="44.44885" lon="5.09791">
        <ele>1168.619873</ele>
        <time>2014-11-16T11:16:54Z</time>
      </trkpt>
      <trkpt lat="44.44891" lon="5.09794">
        <ele>1169.581299</ele>
        <time>2014-11-16T11:17:03Z</time>
      </trkpt>
      <trkpt lat="44.44894" lon="5.09795">
        <ele>1170.54248</ele>
        <time>2014-11-16T11:17:11Z</time>
      </trkpt>
      <trkpt lat="44.44898" lon="5.098">
        <ele>1171.984375</ele>
        <time>2014-11-16T11:17:19Z</time>
      </trkpt>
      <trkpt lat="44.44901" lon="5.09804">
        <ele>1172.945801</ele>
        <time>2014-11-16T11:17:29Z</time>
      </trkpt>
      <trkpt lat="44.44904" lon="5.09805">
        <ele>1172.945801</ele>
        <time>2014-11-16T11:17:37Z</time>
      </trkpt>
      <trkpt lat="44.4491" lon="5.09809">
        <ele>1175.348877</ele>
        <time>2014-11-16T11:17:48Z</time>
      </trkpt>
      <trkpt lat="44.44916" lon="5.09813">
        <ele>1177.752197</ele>
        <time>2014-11-16T11:18:00Z</time>
      </trkpt>
      <trkpt lat="44.44919" lon="5.09814">
        <ele>1179.194092</ele>
        <time>2014-11-16T11:18:09Z</time>
      </trkpt>
      <trkpt lat="44.44925" lon="5.09816">
        <ele>1180.636475</ele>
        <time>2014-11-16T11:18:19Z</time>
      </trkpt>
      <trkpt lat="44.44927" lon="5.09818">
        <ele>1182.078369</ele>
        <time>2014-11-16T11:18:27Z</time>
      </trkpt>
      <trkpt lat="44.44933" lon="5.09821">
        <ele>1184.000977</ele>
        <time>2014-11-16T11:18:41Z</time>
      </trkpt>
      <trkpt lat="44.44938" lon="5.09822">
        <ele>1185.442871</ele>
        <time>2014-11-16T11:18:52Z</time>
      </trkpt>
      <trkpt lat="44.44942" lon="5.09824">
        <ele>1186.884766</ele>
        <time>2014-11-16T11:19:03Z</time>
      </trkpt>
      <trkpt lat="44.44947" lon="5.09827">
        <ele>1188.326904</ele>
        <time>2014-11-16T11:19:15Z</time>
      </trkpt>
      <trkpt lat="44.44952" lon="5.09829">
        <ele>1189.768799</ele>
        <time>2014-11-16T11:19:26Z</time>
      </trkpt>
      <trkpt lat="44.44957" lon="5.09831">
        <ele>1191.691406</ele>
        <time>2014-11-16T11:19:38Z</time>
      </trkpt>
      <trkpt lat="44.4496" lon="5.09832">
        <ele>1193.133301</ele>
        <time>2014-11-16T11:19:49Z</time>
      </trkpt>
      <trkpt lat="44.44963" lon="5.09834">
        <ele>1194.575195</ele>
        <time>2014-11-16T11:19:57Z</time>
      </trkpt>
      <trkpt lat="44.44967" lon="5.09837">
        <ele>1196.498291</ele>
        <time>2014-11-16T11:20:08Z</time>
      </trkpt>
      <trkpt lat="44.44973" lon="5.09841">
        <ele>1198.901367</ele>
        <time>2014-11-16T11:20:25Z</time>
      </trkpt>
      <trkpt lat="44.44978" lon="5.09844">
        <ele>1200.343506</ele>
        <time>2014-11-16T11:20:50Z</time>
      </trkpt>
      <trkpt lat="44.44985" lon="5.09845">
        <ele>1202.265869</ele>
        <time>2014-11-16T11:21:01Z</time>
      </trkpt>
      <trkpt lat="44.44992" lon="5.0985">
        <ele>1205.630615</ele>
        <time>2014-11-16T11:21:15Z</time>
      </trkpt>
      <trkpt lat="44.44995" lon="5.09853">
        <ele>1207.07251</ele>
        <time>2014-11-16T11:21:26Z</time>
      </trkpt>
      <trkpt lat="44.44999" lon="5.09855">
        <ele>1209.47583</ele>
        <time>2014-11-16T11:21:39Z</time>
      </trkpt>
      <trkpt lat="44.45" lon="5.09857">
        <ele>1209.47583</ele>
        <time>2014-11-16T11:21:52Z</time>
      </trkpt>
      <trkpt lat="44.45006" lon="5.09858">
        <ele>1211.398438</ele>
        <time>2014-11-16T11:22:02Z</time>
      </trkpt>
      <trkpt lat="44.45014" lon="5.09858">
        <ele>1213.801758</ele>
        <time>2014-11-16T11:22:13Z</time>
      </trkpt>
      <trkpt lat="44.4502" lon="5.09859">
        <ele>1214.763184</ele>
        <time>2014-11-16T11:22:21Z</time>
      </trkpt>
      <trkpt lat="44.45024" lon="5.09865">
        <ele>1217.166504</ele>
        <time>2014-11-16T11:22:31Z</time>
      </trkpt>
      <trkpt lat="44.45029" lon="5.09872">
        <ele>1218.608398</ele>
        <time>2014-11-16T11:22:43Z</time>
      </trkpt>
      <trkpt lat="44.45034" lon="5.09875">
        <ele>1219.569824</ele>
        <time>2014-11-16T11:22:52Z</time>
      </trkpt>
      <trkpt lat="44.45038" lon="5.09881">
        <ele>1220.531006</ele>
        <time>2014-11-16T11:23:02Z</time>
      </trkpt>
      <trkpt lat="44.45045" lon="5.09886">
        <ele>1222.453613</ele>
        <time>2014-11-16T11:23:13Z</time>
      </trkpt>
      <trkpt lat="44.45051" lon="5.09887">
        <ele>1222.934326</ele>
        <time>2014-11-16T11:23:24Z</time>
      </trkpt>
      <trkpt lat="44.45055" lon="5.09893">
        <ele>1222.934326</ele>
        <time>2014-11-16T11:24:21Z</time>
      </trkpt>
      <trkpt lat="44.45057" lon="5.09895">
        <ele>1222.934326</ele>
        <time>2014-11-16T11:24:31Z</time>
      </trkpt>
      <trkpt lat="44.45061" lon="5.09901">
        <ele>1222.453613</ele>
        <time>2014-11-16T11:24:43Z</time>
      </trkpt>
      <trkpt lat="44.45066" lon="5.09907">
        <ele>1222.934326</ele>
        <time>2014-11-16T11:24:52Z</time>
      </trkpt>
      <trkpt lat="44.45072" lon="5.09914">
        <ele>1223.895508</ele>
        <time>2014-11-16T11:25:01Z</time>
      </trkpt>
      <trkpt lat="44.4508" lon="5.09924">
        <ele>1225.818115</ele>
        <time>2014-11-16T11:25:12Z</time>
      </trkpt>
      <trkpt lat="44.45085" lon="5.0993">
        <ele>1227.740723</ele>
        <time>2014-11-16T11:25:21Z</time>
      </trkpt>
      <trkpt lat="44.45091" lon="5.09938">
        <ele>1229.663574</ele>
        <time>2014-11-16T11:25:31Z</time>
      </trkpt>
      <trkpt lat="44.45096" lon="5.09948">
        <ele>1232.066895</ele>
        <time>2014-11-16T11:25:44Z</time>
      </trkpt>
      <trkpt lat="44.451" lon="5.09956">
        <ele>1233.508789</ele>
        <time>2014-11-16T11:25:53Z</time>
      </trkpt>
      <trkpt lat="44.45104" lon="5.09967">
        <ele>1235.912109</ele>
        <time>2014-11-16T11:26:05Z</time>
      </trkpt>
      <trkpt lat="44.45109" lon="5.09975">
        <ele>1238.31543</ele>
        <time>2014-11-16T11:26:17Z</time>
      </trkpt>
      <trkpt lat="44.45113" lon="5.09976">
        <ele>1239.757324</ele>
        <time>2014-11-16T11:26:31Z</time>
      </trkpt>
      <trkpt lat="44.45116" lon="5.09979">
        <ele>1240.718506</ele>
        <time>2014-11-16T11:26:46Z</time>
      </trkpt>
      <trkpt lat="44.4512" lon="5.09979">
        <ele>1241.199219</ele>
        <time>2014-11-16T11:27:11Z</time>
      </trkpt>
      <trkpt lat="44.45123" lon="5.09982">
        <ele>1242.160645</ele>
        <time>2014-11-16T11:28:45Z</time>
      </trkpt>
      <trkpt lat="44.4513" lon="5.09991">
        <ele>1244.563965</ele>
        <time>2014-11-16T11:28:59Z</time>
      </trkpt>
      <trkpt lat="44.45134" lon="5.10001">
        <ele>1246.486816</ele>
        <time>2014-11-16T11:29:11Z</time>
      </trkpt>
      <trkpt lat="44.45138" lon="5.10007">
        <ele>1248.40918</ele>
        <time>2014-11-16T11:29:26Z</time>
      </trkpt>
      <trkpt lat="44.45143" lon="5.10014">
        <ele>1250.8125</ele>
        <time>2014-11-16T11:29:42Z</time>
      </trkpt>
      <trkpt lat="44.45145" lon="5.10018">
        <ele>1251.773926</ele>
        <time>2014-11-16T11:29:51Z</time>
      </trkpt>
      <trkpt lat="44.45148" lon="5.10024">
        <ele>1252.735107</ele>
        <time>2014-11-16T11:30:01Z</time>
      </trkpt>
      <trkpt lat="44.45152" lon="5.10024">
        <ele>1253.696533</ele>
        <time>2014-11-16T11:30:10Z</time>
      </trkpt>
      <trkpt lat="44.45157" lon="5.10026">
        <ele>1255.619141</ele>
        <time>2014-11-16T11:30:21Z</time>
      </trkpt>
      <trkpt lat="44.45162" lon="5.10027">
        <ele>1257.061035</ele>
        <time>2014-11-16T11:30:32Z</time>
      </trkpt>
      <trkpt lat="44.4517" lon="5.1003">
        <ele>1259.464355</ele>
        <time>2014-11-16T11:30:51Z</time>
      </trkpt>
      <trkpt lat="44.45175" lon="5.10031">
        <ele>1261.387207</ele>
        <time>2014-11-16T11:31:03Z</time>
      </trkpt>
      <trkpt lat="44.45182" lon="5.10034">
        <ele>1263.790283</ele>
        <time>2014-11-16T11:31:19Z</time>
      </trkpt>
      <trkpt lat="44.45187" lon="5.10037">
        <ele>1265.232422</ele>
        <time>2014-11-16T11:31:33Z</time>
      </trkpt>
      <trkpt lat="44.4519" lon="5.1004">
        <ele>1266.674316</ele>
        <time>2014-11-16T11:32:51Z</time>
      </trkpt>
      <trkpt lat="44.45198" lon="5.10046">
        <ele>1269.077637</ele>
        <time>2014-11-16T11:33:02Z</time>
      </trkpt>
      <trkpt lat="44.45206" lon="5.10056">
        <ele>1271.961426</ele>
        <time>2014-11-16T11:33:15Z</time>
      </trkpt>
      <trkpt lat="44.45214" lon="5.10064">
        <ele>1274.364746</ele>
        <time>2014-11-16T11:33:25Z</time>
      </trkpt>
      <trkpt lat="44.45221" lon="5.10075">
        <ele>1275.806641</ele>
        <time>2014-11-16T11:33:37Z</time>
      </trkpt>
      <trkpt lat="44.45229" lon="5.10085">
        <ele>1278.690918</ele>
        <time>2014-11-16T11:33:49Z</time>
      </trkpt>
      <trkpt lat="44.45234" lon="5.10093">
        <ele>1280.613525</ele>
        <time>2014-11-16T11:33:59Z</time>
      </trkpt>
      <trkpt lat="44.45238" lon="5.10097">
        <ele>1282.05542</ele>
        <time>2014-11-16T11:34:07Z</time>
      </trkpt>
      <trkpt lat="44.45245" lon="5.10106">
        <ele>1284.45874</ele>
        <time>2014-11-16T11:34:19Z</time>
      </trkpt>
      <trkpt lat="44.45249" lon="5.10112">
        <ele>1285.900635</ele>
        <time>2014-11-16T11:34:27Z</time>
      </trkpt>
      <trkpt lat="44.45251" lon="5.10115">
        <ele>1286.861816</ele>
        <time>2014-11-16T11:34:33Z</time>
      </trkpt>
      <trkpt lat="44.45257" lon="5.10123">
        <ele>1288.784668</ele>
        <time>2014-11-16T11:34:44Z</time>
      </trkpt>
      <trkpt lat="44.45259" lon="5.10125">
        <ele>1289.74585</ele>
        <time>2014-11-16T11:34:51Z</time>
      </trkpt>
      <trkpt lat="44.45263" lon="5.10129">
        <ele>1291.187744</ele>
        <time>2014-11-16T11:35:00Z</time>
      </trkpt>
      <trkpt lat="44.45265" lon="5.10135">
        <ele>1293.110596</ele>
        <time>2014-11-16T11:35:11Z</time>
      </trkpt>
      <trkpt lat="44.45268" lon="5.10137">
        <ele>1293.591309</ele>
        <time>2014-11-16T11:35:19Z</time>
      </trkpt>
      <trkpt lat="44.45272" lon="5.1014">
        <ele>1295.033203</ele>
        <time>2014-11-16T11:35:28Z</time>
      </trkpt>
      <trkpt lat="44.45276" lon="5.10145">
        <ele>1296.955811</ele>
        <time>2014-11-16T11:35:46Z</time>
      </trkpt>
      <trkpt lat="44.45279" lon="5.1015">
        <ele>1297.917236</ele>
        <time>2014-11-16T11:35:56Z</time>
      </trkpt>
      <trkpt lat="44.4528" lon="5.10151">
        <ele>1299.359131</ele>
        <time>2014-11-16T11:36:04Z</time>
      </trkpt>
      <trkpt lat="44.45283" lon="5.10155">
        <ele>1300.320557</ele>
        <time>2014-11-16T11:36:12Z</time>
      </trkpt>
      <trkpt lat="44.45285" lon="5.10157">
        <ele>1301.281738</ele>
        <time>2014-11-16T11:36:20Z</time>
      </trkpt>
      <trkpt lat="44.45288" lon="5.10163">
        <ele>1303.204346</ele>
        <time>2014-11-16T11:36:33Z</time>
      </trkpt>
      <trkpt lat="44.4529" lon="5.10164">
        <ele>1304.165771</ele>
        <time>2014-11-16T11:36:42Z</time>
      </trkpt>
      <trkpt lat="44.45294" lon="5.10165">
        <ele>1305.126953</ele>
        <time>2014-11-16T11:36:51Z</time>
      </trkpt>
      <trkpt lat="44.45299" lon="5.10167">
        <ele>1306.568848</ele>
        <time>2014-11-16T11:37:01Z</time>
      </trkpt>
      <trkpt lat="44.45301" lon="5.10166">
        <ele>1308.01123</ele>
        <time>2014-11-16T11:37:10Z</time>
      </trkpt>
      <trkpt lat="44.45304" lon="5.10168">
        <ele>1308.972412</ele>
        <time>2014-11-16T11:37:20Z</time>
      </trkpt>
      <trkpt lat="44.45308" lon="5.10168">
        <ele>1309.933594</ele>
        <time>2014-11-16T11:37:30Z</time>
      </trkpt>
      <trkpt lat="44.45315" lon="5.10172">
        <ele>1311.375732</ele>
        <time>2014-11-16T11:37:44Z</time>
      </trkpt>
      <trkpt lat="44.45321" lon="5.10174">
        <ele>1312.336914</ele>
        <time>2014-11-16T11:37:56Z</time>
      </trkpt>
      <trkpt lat="44.45327" lon="5.10174">
        <ele>1314.259521</ele>
        <time>2014-11-16T11:38:08Z</time>
      </trkpt>
      <trkpt lat="44.45333" lon="5.10175">
        <ele>1315.220947</ele>
        <time>2014-11-16T11:38:19Z</time>
      </trkpt>
      <trkpt lat="44.45341" lon="5.10176">
        <ele>1317.143555</ele>
        <time>2014-11-16T11:38:34Z</time>
      </trkpt>
      <trkpt lat="44.4534" lon="5.10181">
        <ele>1318.585449</ele>
        <time>2014-11-16T11:38:53Z</time>
      </trkpt>
      <trkpt lat="44.4534" lon="5.10183">
        <ele>1318.585449</ele>
        <time>2014-11-16T11:39:03Z</time>
      </trkpt>
      <trkpt lat="44.45342" lon="5.10182">
        <ele>1317.624023</ele>
        <time>2014-11-16T11:39:25Z</time>
      </trkpt>
      <trkpt lat="44.45342" lon="5.10183">
        <ele>1318.585449</ele>
        <time>2014-11-16T11:39:39Z</time>
      </trkpt>
      <trkpt lat="44.45342" lon="5.10183">
        <ele>1318.104736</ele>
        <time>2014-11-16T11:40:06Z</time>
      </trkpt>
      <trkpt lat="44.45348" lon="5.10184">
        <ele>1319.546875</ele>
        <time>2014-11-16T11:40:39Z</time>
      </trkpt>
      <trkpt lat="44.45359" lon="5.10187">
        <ele>1321.469238</ele>
        <time>2014-11-16T11:40:51Z</time>
      </trkpt>
      <trkpt lat="44.45365" lon="5.10189">
        <ele>1322.430664</ele>
        <time>2014-11-16T11:41:01Z</time>
      </trkpt>
      <trkpt lat="44.45368" lon="5.10189">
        <ele>1322.911377</ele>
        <time>2014-11-16T11:41:30Z</time>
      </trkpt>
      <trkpt lat="44.45373" lon="5.10189">
        <ele>1322.911377</ele>
        <time>2014-11-16T11:41:41Z</time>
      </trkpt>
      <trkpt lat="44.45381" lon="5.10188">
        <ele>1323.39209</ele>
        <time>2014-11-16T11:41:52Z</time>
      </trkpt>
      <trkpt lat="44.45392" lon="5.10187">
        <ele>1323.39209</ele>
        <time>2014-11-16T11:42:06Z</time>
      </trkpt>
      <trkpt lat="44.45398" lon="5.10187">
        <ele>1323.872559</ele>
        <time>2014-11-16T11:42:13Z</time>
      </trkpt>
      <trkpt lat="44.45409" lon="5.10187">
        <ele>1323.872559</ele>
        <time>2014-11-16T11:42:26Z</time>
      </trkpt>
      <trkpt lat="44.45417" lon="5.10187">
        <ele>1323.39209</ele>
        <time>2014-11-16T11:42:37Z</time>
      </trkpt>
      <trkpt lat="44.45423" lon="5.10185">
        <ele>1323.39209</ele>
        <time>2014-11-16T11:42:47Z</time>
      </trkpt>
      <trkpt lat="44.45431" lon="5.10184">
        <ele>1322.911377</ele>
        <time>2014-11-16T11:42:59Z</time>
      </trkpt>
      <trkpt lat="44.45437" lon="5.10184">
        <ele>1322.911377</ele>
        <time>2014-11-16T11:43:08Z</time>
      </trkpt>
      <trkpt lat="44.45443" lon="5.10183">
        <ele>1323.872559</ele>
        <time>2014-11-16T11:43:18Z</time>
      </trkpt>
      <trkpt lat="44.45448" lon="5.10182">
        <ele>1323.872559</ele>
        <time>2014-11-16T11:43:29Z</time>
      </trkpt>
      <trkpt lat="44.45458" lon="5.10181">
        <ele>1325.314697</ele>
        <time>2014-11-16T11:43:40Z</time>
      </trkpt>
      <trkpt lat="44.45468" lon="5.10179">
        <ele>1325.79541</ele>
        <time>2014-11-16T11:43:52Z</time>
      </trkpt>
      <trkpt lat="44.45478" lon="5.10178">
        <ele>1327.237549</ele>
        <time>2014-11-16T11:44:03Z</time>
      </trkpt>
      <trkpt lat="44.45486" lon="5.10178">
        <ele>1329.640625</ele>
        <time>2014-11-16T11:44:13Z</time>
      </trkpt>
      <trkpt lat="44.45494" lon="5.10179">
        <ele>1330.602051</ele>
        <time>2014-11-16T11:44:22Z</time>
      </trkpt>
      <trkpt lat="44.45502" lon="5.10179">
        <ele>1331.563232</ele>
        <time>2014-11-16T11:44:32Z</time>
      </trkpt>
      <trkpt lat="44.45511" lon="5.10181">
        <ele>1333.48584</ele>
        <time>2014-11-16T11:44:44Z</time>
      </trkpt>
      <trkpt lat="44.45519" lon="5.10183">
        <ele>1335.408447</ele>
        <time>2014-11-16T11:44:55Z</time>
      </trkpt>
      <trkpt lat="44.45525" lon="5.10188">
        <ele>1336.850342</ele>
        <time>2014-11-16T11:45:09Z</time>
      </trkpt>
      <trkpt lat="44.45525" lon="5.10189">
        <ele>1337.331055</ele>
        <time>2014-11-16T11:45:21Z</time>
      </trkpt>
      <trkpt lat="44.45525" lon="5.10189">
        <ele>1334.927979</ele>
        <time>2014-11-16T11:45:41Z</time>
      </trkpt>
      <trkpt lat="44.45525" lon="5.10189">
        <ele>1337.331055</ele>
        <time>2014-11-16T11:45:45Z</time>
      </trkpt>
      <trkpt lat="44.45525" lon="5.10189">
        <ele>1334.927979</ele>
        <time>2014-11-16T11:45:58Z</time>
      </trkpt>
      <trkpt lat="44.45524" lon="5.10189">
        <ele>1336.369873</ele>
        <time>2014-11-16T11:46:12Z</time>
      </trkpt>
      <trkpt lat="44.45525" lon="5.10187">
        <ele>1336.369873</ele>
        <time>2014-11-16T11:46:21Z</time>
      </trkpt>
      <trkpt lat="44.45525" lon="5.10186">
        <ele>1335.88916</ele>
        <time>2014-11-16T11:46:34Z</time>
      </trkpt>
      <trkpt lat="44.45524" lon="5.10186">
        <ele>1335.88916</ele>
        <time>2014-11-16T11:46:44Z</time>
      </trkpt>
      <trkpt lat="44.45528" lon="5.10179">
        <ele>1334.927979</ele>
        <time>2014-11-16T11:48:02Z</time>
      </trkpt>
      <trkpt lat="44.45532" lon="5.10169">
        <ele>1333.48584</ele>
        <time>2014-11-16T11:48:14Z</time>
      </trkpt>
      <trkpt lat="44.45536" lon="5.10166">
        <ele>1333.48584</ele>
        <time>2014-11-16T11:49:12Z</time>
      </trkpt>
      <trkpt lat="44.45543" lon="5.10157">
        <ele>1332.043945</ele>
        <time>2014-11-16T11:49:25Z</time>
      </trkpt>
      <trkpt lat="44.45553" lon="5.10148">
        <ele>1332.043945</ele>
        <time>2014-11-16T11:49:39Z</time>
      </trkpt>
      <trkpt lat="44.45562" lon="5.10142">
        <ele>1332.043945</ele>
        <time>2014-11-16T11:49:53Z</time>
      </trkpt>
      <trkpt lat="44.45568" lon="5.10136">
        <ele>1332.524658</ele>
        <time>2014-11-16T11:50:04Z</time>
      </trkpt>
      <trkpt lat="44.4557" lon="5.10133">
        <ele>1332.524658</ele>
        <time>2014-11-16T11:50:15Z</time>
      </trkpt>
      <trkpt lat="44.45572" lon="5.1013">
        <ele>1331.563232</ele>
        <time>2014-11-16T11:50:23Z</time>
      </trkpt>
      <trkpt lat="44.45577" lon="5.10125">
        <ele>1330.121338</ele>
        <time>2014-11-16T11:50:31Z</time>
      </trkpt>
      <trkpt lat="44.45586" lon="5.10117">
        <ele>1329.159912</ele>
        <time>2014-11-16T11:50:45Z</time>
      </trkpt>
      <trkpt lat="44.45594" lon="5.10115">
        <ele>1328.679443</ele>
        <time>2014-11-16T11:50:56Z</time>
      </trkpt>
      <trkpt lat="44.45604" lon="5.10112">
        <ele>1329.640625</ele>
        <time>2014-11-16T11:51:10Z</time>
      </trkpt>
      <trkpt lat="44.45613" lon="5.10107">
        <ele>1330.602051</ele>
        <time>2014-11-16T11:51:23Z</time>
      </trkpt>
      <trkpt lat="44.45626" lon="5.10102">
        <ele>1330.602051</ele>
        <time>2014-11-16T11:51:37Z</time>
      </trkpt>
      <trkpt lat="44.45636" lon="5.101">
        <ele>1331.563232</ele>
        <time>2014-11-16T11:51:48Z</time>
      </trkpt>
      <trkpt lat="44.45645" lon="5.10097">
        <ele>1331.082764</ele>
        <time>2014-11-16T11:51:59Z</time>
      </trkpt>
      <trkpt lat="44.45652" lon="5.10094">
        <ele>1331.082764</ele>
        <time>2014-11-16T11:52:09Z</time>
      </trkpt>
      <trkpt lat="44.4566" lon="5.10089">
        <ele>1330.602051</ele>
        <time>2014-11-16T11:52:19Z</time>
      </trkpt>
      <trkpt lat="44.45669" lon="5.10083">
        <ele>1329.640625</ele>
        <time>2014-11-16T11:52:31Z</time>
      </trkpt>
      <trkpt lat="44.45677" lon="5.10077">
        <ele>1329.640625</ele>
        <time>2014-11-16T11:52:43Z</time>
      </trkpt>
      <trkpt lat="44.45685" lon="5.10071">
        <ele>1329.159912</ele>
        <time>2014-11-16T11:52:56Z</time>
      </trkpt>
      <trkpt lat="44.45693" lon="5.10069">
        <ele>1328.679443</ele>
        <time>2014-11-16T11:53:07Z</time>
      </trkpt>
      <trkpt lat="44.45703" lon="5.10069">
        <ele>1328.679443</ele>
        <time>2014-11-16T11:53:20Z</time>
      </trkpt>
      <trkpt lat="44.45708" lon="5.10067">
        <ele>1328.679443</ele>
        <time>2014-11-16T11:53:30Z</time>
      </trkpt>
      <trkpt lat="44.45714" lon="5.10065">
        <ele>1328.679443</ele>
        <time>2014-11-16T11:53:39Z</time>
      </trkpt>
      <trkpt lat="44.45723" lon="5.10066">
        <ele>1328.19873</ele>
        <time>2014-11-16T11:53:49Z</time>
      </trkpt>
      <trkpt lat="44.45732" lon="5.10068">
        <ele>1327.718018</ele>
        <time>2014-11-16T11:54:00Z</time>
      </trkpt>
      <trkpt lat="44.45744" lon="5.1007">
        <ele>1327.237549</ele>
        <time>2014-11-16T11:54:13Z</time>
      </trkpt>
      <trkpt lat="44.45755" lon="5.10069">
        <ele>1327.718018</ele>
        <time>2014-11-16T11:54:25Z</time>
      </trkpt>
      <trkpt lat="44.45764" lon="5.10067">
        <ele>1328.679443</ele>
        <time>2014-11-16T11:54:36Z</time>
      </trkpt>
      <trkpt lat="44.45774" lon="5.10066">
        <ele>1330.121338</ele>
        <time>2014-11-16T11:54:47Z</time>
      </trkpt>
      <trkpt lat="44.45784" lon="5.10064">
        <ele>1331.082764</ele>
        <time>2014-11-16T11:54:57Z</time>
      </trkpt>
      <trkpt lat="44.45793" lon="5.10061">
        <ele>1331.082764</ele>
        <time>2014-11-16T11:55:08Z</time>
      </trkpt>
      <trkpt lat="44.45801" lon="5.1006">
        <ele>1332.043945</ele>
        <time>2014-11-16T11:55:18Z</time>
      </trkpt>
      <trkpt lat="44.45805" lon="5.10059">
        <ele>1332.043945</ele>
        <time>2014-11-16T11:55:26Z</time>
      </trkpt>
      <trkpt lat="44.45811" lon="5.10058">
        <ele>1333.005127</ele>
        <time>2014-11-16T11:55:35Z</time>
      </trkpt>
      <trkpt lat="44.45821" lon="5.10055">
        <ele>1333.005127</ele>
        <time>2014-11-16T11:55:50Z</time>
      </trkpt>
      <trkpt lat="44.45832" lon="5.10049">
        <ele>1333.48584</ele>
        <time>2014-11-16T11:56:03Z</time>
      </trkpt>
      <trkpt lat="44.45845" lon="5.10041">
        <ele>1332.043945</ele>
        <time>2014-11-16T11:56:18Z</time>
      </trkpt>
      <trkpt lat="44.45854" lon="5.10036">
        <ele>1331.082764</ele>
        <time>2014-11-16T11:56:29Z</time>
      </trkpt>
      <trkpt lat="44.45863" lon="5.1003">
        <ele>1331.082764</ele>
        <time>2014-11-16T11:56:39Z</time>
      </trkpt>
      <trkpt lat="44.45871" lon="5.10025">
        <ele>1330.602051</ele>
        <time>2014-11-16T11:56:49Z</time>
      </trkpt>
      <trkpt lat="44.45878" lon="5.10019">
        <ele>1330.121338</ele>
        <time>2014-11-16T11:56:59Z</time>
      </trkpt>
      <trkpt lat="44.45883" lon="5.10011">
        <ele>1328.679443</ele>
        <time>2014-11-16T11:57:08Z</time>
      </trkpt>
      <trkpt lat="44.45885" lon="5.10002">
        <ele>1328.19873</ele>
        <time>2014-11-16T11:57:21Z</time>
      </trkpt>
      <trkpt lat="44.45885" lon="5.10002">
        <ele>1328.19873</ele>
        <time>2014-11-16T11:57:32Z</time>
      </trkpt>
      <trkpt lat="44.45886" lon="5.1">
        <ele>1328.679443</ele>
        <time>2014-11-16T11:58:38Z</time>
      </trkpt>
      <trkpt lat="44.45888" lon="5.0999">
        <ele>1328.19873</ele>
        <time>2014-11-16T11:58:45Z</time>
      </trkpt>
      <trkpt lat="44.45893" lon="5.09979">
        <ele>1328.19873</ele>
        <time>2014-11-16T11:58:59Z</time>
      </trkpt>
      <trkpt lat="44.45894" lon="5.09976">
        <ele>1328.679443</ele>
        <time>2014-11-16T11:59:06Z</time>
      </trkpt>
      <trkpt lat="44.45899" lon="5.0997">
        <ele>1328.19873</ele>
        <time>2014-11-16T11:59:19Z</time>
      </trkpt>
      <trkpt lat="44.45906" lon="5.09961">
        <ele>1327.237549</ele>
        <time>2014-11-16T11:59:32Z</time>
      </trkpt>
      <trkpt lat="44.4591" lon="5.0996">
        <ele>1327.237549</ele>
        <time>2014-11-16T11:59:41Z</time>
      </trkpt>
      <trkpt lat="44.45918" lon="5.09952">
        <ele>1326.276123</ele>
        <time>2014-11-16T11:59:51Z</time>
      </trkpt>
      <trkpt lat="44.45928" lon="5.0994">
        <ele>1324.834229</ele>
        <time>2014-11-16T12:00:05Z</time>
      </trkpt>
      <trkpt lat="44.45934" lon="5.09931">
        <ele>1323.39209</ele>
        <time>2014-11-16T12:00:15Z</time>
      </trkpt>
      <trkpt lat="44.45946" lon="5.09929">
        <ele>1323.39209</ele>
        <time>2014-11-16T12:00:28Z</time>
      </trkpt>
      <trkpt lat="44.45946" lon="5.09926">
        <ele>1323.872559</ele>
        <time>2014-11-16T12:00:35Z</time>
      </trkpt>
      <trkpt lat="44.4595" lon="5.09914">
        <ele>1322.911377</ele>
        <time>2014-11-16T12:00:46Z</time>
      </trkpt>
      <trkpt lat="44.4595" lon="5.09908">
        <ele>1322.430664</ele>
        <time>2014-11-16T12:00:54Z</time>
      </trkpt>
      <trkpt lat="44.4595" lon="5.099">
        <ele>1320.508057</ele>
        <time>2014-11-16T12:01:05Z</time>
      </trkpt>
      <trkpt lat="44.45947" lon="5.09892">
        <ele>1319.546875</ele>
        <time>2014-11-16T12:01:14Z</time>
      </trkpt>
      <trkpt lat="44.45946" lon="5.09878">
        <ele>1318.104736</ele>
        <time>2014-11-16T12:01:27Z</time>
      </trkpt>
      <trkpt lat="44.45945" lon="5.09868">
        <ele>1316.182129</ele>
        <time>2014-11-16T12:01:37Z</time>
      </trkpt>
      <trkpt lat="44.45942" lon="5.09862">
        <ele>1314.740234</ele>
        <time>2014-11-16T12:01:47Z</time>
      </trkpt>
      <trkpt lat="44.45936" lon="5.09863">
        <ele>1314.259521</ele>
        <time>2014-11-16T12:01:57Z</time>
      </trkpt>
      <trkpt lat="44.45937" lon="5.09865">
        <ele>1314.740234</ele>
        <time>2014-11-16T12:02:07Z</time>
      </trkpt>
      <trkpt lat="44.45937" lon="5.09867">
        <ele>1314.259521</ele>
        <time>2014-11-16T12:02:25Z</time>
      </trkpt>
      <trkpt lat="44.45938" lon="5.09867">
        <ele>1315.70166</ele>
        <time>2014-11-16T12:04:44Z</time>
      </trkpt>
      <trkpt lat="44.45936" lon="5.09867">
        <ele>1315.220947</ele>
        <time>2014-11-16T12:04:53Z</time>
      </trkpt>
      <trkpt lat="44.45938" lon="5.09865">
        <ele>1315.220947</ele>
        <time>2014-11-16T12:05:02Z</time>
      </trkpt>
      <trkpt lat="44.45938" lon="5.09862">
        <ele>1314.740234</ele>
        <time>2014-11-16T12:05:12Z</time>
      </trkpt>
      <trkpt lat="44.45933" lon="5.09857">
        <ele>1313.778809</ele>
        <time>2014-11-16T12:05:23Z</time>
      </trkpt>
      <trkpt lat="44.45936" lon="5.0986">
        <ele>1314.740234</ele>
        <time>2014-11-16T12:07:14Z</time>
      </trkpt>
      <trkpt lat="44.45937" lon="5.09865">
        <ele>1315.220947</ele>
        <time>2014-11-16T12:07:19Z</time>
      </trkpt>
      <trkpt lat="44.45936" lon="5.09863">
        <ele>1315.220947</ele>
        <time>2014-11-16T12:07:26Z</time>
      </trkpt>
      <trkpt lat="44.4593" lon="5.09857">
        <ele>1313.778809</ele>
        <time>2014-11-16T12:07:34Z</time>
      </trkpt>
      <trkpt lat="44.4593" lon="5.09857">
        <ele>1313.29834</ele>
        <time>2014-11-16T12:07:48Z</time>
      </trkpt>
      <trkpt lat="44.4593" lon="5.09851">
        <ele>1315.220947</ele>
        <time>2014-11-16T12:17:41Z</time>
      </trkpt>
      <trkpt lat="44.4593" lon="5.09856">
        <ele>1315.70166</ele>
        <time>2014-11-16T12:18:46Z</time>
      </trkpt>
      <trkpt lat="44.45931" lon="5.09859">
        <ele>1316.182129</ele>
        <time>2014-11-16T12:18:59Z</time>
      </trkpt>
      <trkpt lat="44.45934" lon="5.09861">
        <ele>1316.662842</ele>
        <time>2014-11-16T12:19:12Z</time>
      </trkpt>
      <trkpt lat="44.45934" lon="5.09861">
        <ele>1316.662842</ele>
        <time>2014-11-16T12:19:35Z</time>
      </trkpt>
      <trkpt lat="44.45934" lon="5.09862">
        <ele>1316.662842</ele>
        <time>2014-11-16T12:19:52Z</time>
      </trkpt>
      <trkpt lat="44.45934" lon="5.09862">
        <ele>1316.662842</ele>
        <time>2014-11-16T12:20:09Z</time>
      </trkpt>
      <trkpt lat="44.45933" lon="5.09863">
        <ele>1316.662842</ele>
        <time>2014-11-16T12:20:18Z</time>
      </trkpt>
      <trkpt lat="44.45932" lon="5.09863">
        <ele>1316.662842</ele>
        <time>2014-11-16T12:20:37Z</time>
      </trkpt>
      <trkpt lat="44.45932" lon="5.09862">
        <ele>1316.182129</ele>
        <time>2014-11-16T12:20:52Z</time>
      </trkpt>
      <trkpt lat="44.45932" lon="5.09862">
        <ele>1316.662842</ele>
        <time>2014-11-16T12:21:02Z</time>
      </trkpt>
      <trkpt lat="44.45933" lon="5.09863">
        <ele>1316.662842</ele>
        <time>2014-11-16T12:21:17Z</time>
      </trkpt>
      <trkpt lat="44.45931" lon="5.0986">
        <ele>1315.70166</ele>
        <time>2014-11-16T12:21:30Z</time>
      </trkpt>
      <trkpt lat="44.4593" lon="5.09857">
        <ele>1315.220947</ele>
        <time>2014-11-16T12:21:43Z</time>
      </trkpt>
      <trkpt lat="44.4593" lon="5.09856">
        <ele>1315.220947</ele>
        <time>2014-11-16T12:21:58Z</time>
      </trkpt>
      <trkpt lat="44.4593" lon="5.09855">
        <ele>1315.220947</ele>
        <time>2014-11-16T12:22:13Z</time>
      </trkpt>
      <trkpt lat="44.4593" lon="5.09856">
        <ele>1315.220947</ele>
        <time>2014-11-16T12:22:28Z</time>
      </trkpt>
      <trkpt lat="44.45931" lon="5.09855">
        <ele>1315.220947</ele>
        <time>2014-11-16T12:22:40Z</time>
      </trkpt>
      <trkpt lat="44.45931" lon="5.09857">
        <ele>1315.220947</ele>
        <time>2014-11-16T12:24:22Z</time>
      </trkpt>
      <trkpt lat="44.45932" lon="5.09861">
        <ele>1315.70166</ele>
        <time>2014-11-16T12:24:29Z</time>
      </trkpt>
      <trkpt lat="44.4593" lon="5.09859">
        <ele>1313.778809</ele>
        <time>2014-11-16T12:24:33Z</time>
      </trkpt>
      <trkpt lat="44.4593" lon="5.09855">
        <ele>1314.259521</ele>
        <time>2014-11-16T12:24:41Z</time>
      </trkpt>
      <trkpt lat="44.45931" lon="5.09859">
        <ele>1315.220947</ele>
        <time>2014-11-16T12:24:52Z</time>
      </trkpt>
      <trkpt lat="44.45933" lon="5.0986">
        <ele>1316.182129</ele>
        <time>2014-11-16T12:24:58Z</time>
      </trkpt>
      <trkpt lat="44.45933" lon="5.0986">
        <ele>1315.70166</ele>
        <time>2014-11-16T12:25:15Z</time>
      </trkpt>
      <trkpt lat="44.45933" lon="5.0986">
        <ele>1315.70166</ele>
        <time>2014-11-16T12:25:26Z</time>
      </trkpt>
      <trkpt lat="44.45932" lon="5.09859">
        <ele>1315.70166</ele>
        <time>2014-11-16T12:25:43Z</time>
      </trkpt>
      <trkpt lat="44.45933" lon="5.0986">
        <ele>1316.182129</ele>
        <time>2014-11-16T12:26:15Z</time>
      </trkpt>
      <trkpt lat="44.45933" lon="5.09859">
        <ele>1314.740234</ele>
        <time>2014-11-16T12:27:00Z</time>
      </trkpt>
      <trkpt lat="44.45933" lon="5.09859">
        <ele>1314.740234</ele>
        <time>2014-11-16T12:28:13Z</time>
      </trkpt>
      <trkpt lat="44.4593" lon="5.09858">
        <ele>1314.259521</ele>
        <time>2014-11-16T12:28:48Z</time>
      </trkpt>
      <trkpt lat="44.45931" lon="5.09855">
        <ele>1313.29834</ele>
        <time>2014-11-16T12:28:57Z</time>
      </trkpt>
      <trkpt lat="44.45923" lon="5.09848">
        <ele>1312.336914</ele>
        <time>2014-11-16T12:29:42Z</time>
      </trkpt>
      <trkpt lat="44.45916" lon="5.09842">
        <ele>1310.414307</ele>
        <time>2014-11-16T12:29:52Z</time>
      </trkpt>
      <trkpt lat="44.45915" lon="5.09838">
        <ele>1309.933594</ele>
        <time>2014-11-16T12:30:02Z</time>
      </trkpt>
      <trkpt lat="44.45918" lon="5.09844">
        <ele>1309.933594</ele>
        <time>2014-11-16T12:30:50Z</time>
      </trkpt>
      <trkpt lat="44.45924" lon="5.09851">
        <ele>1311.375732</ele>
        <time>2014-11-16T12:31:01Z</time>
      </trkpt>
      <trkpt lat="44.45931" lon="5.09855">
        <ele>1311.856445</ele>
        <time>2014-11-16T12:31:15Z</time>
      </trkpt>
      <trkpt lat="44.4593" lon="5.09855">
        <ele>1312.336914</ele>
        <time>2014-11-16T12:31:36Z</time>
      </trkpt>
      <trkpt lat="44.45932" lon="5.09861">
        <ele>1313.29834</ele>
        <time>2014-11-16T12:31:46Z</time>
      </trkpt>
      <trkpt lat="44.45933" lon="5.09863">
        <ele>1313.778809</ele>
        <time>2014-11-16T12:31:56Z</time>
      </trkpt>
      <trkpt lat="44.45934" lon="5.09864">
        <ele>1313.778809</ele>
        <time>2014-11-16T12:32:10Z</time>
      </trkpt>
      <trkpt lat="44.45936" lon="5.09863">
        <ele>1313.778809</ele>
        <time>2014-11-16T12:32:35Z</time>
      </trkpt>
      <trkpt lat="44.45934" lon="5.0986">
        <ele>1312.817627</ele>
        <time>2014-11-16T12:32:42Z</time>
      </trkpt>
      <trkpt lat="44.45935" lon="5.09861">
        <ele>1313.29834</ele>
        <time>2014-11-16T12:32:49Z</time>
      </trkpt>
      <trkpt lat="44.45936" lon="5.09863">
        <ele>1313.778809</ele>
        <time>2014-11-16T12:32:59Z</time>
      </trkpt>
      <trkpt lat="44.45934" lon="5.09867">
        <ele>1314.740234</ele>
        <time>2014-11-16T12:34:04Z</time>
      </trkpt>
      <trkpt lat="44.45931" lon="5.09873">
        <ele>1314.740234</ele>
        <time>2014-11-16T12:34:11Z</time>
      </trkpt>
      <trkpt lat="44.45921" lon="5.09889">
        <ele>1316.182129</ele>
        <time>2014-11-16T12:34:26Z</time>
      </trkpt>
      <trkpt lat="44.45914" lon="5.09901">
        <ele>1318.104736</ele>
        <time>2014-11-16T12:34:38Z</time>
      </trkpt>
      <trkpt lat="44.45912" lon="5.09909">
        <ele>1319.546875</ele>
        <time>2014-11-16T12:34:46Z</time>
      </trkpt>
      <trkpt lat="44.45905" lon="5.0992">
        <ele>1320.508057</ele>
        <time>2014-11-16T12:34:59Z</time>
      </trkpt>
      <trkpt lat="44.45895" lon="5.0993">
        <ele>1320.508057</ele>
        <time>2014-11-16T12:35:11Z</time>
      </trkpt>
      <trkpt lat="44.45885" lon="5.09943">
        <ele>1321.469238</ele>
        <time>2014-11-16T12:35:24Z</time>
      </trkpt>
      <trkpt lat="44.4588" lon="5.09954">
        <ele>1322.430664</ele>
        <time>2014-11-16T12:35:34Z</time>
      </trkpt>
      <trkpt lat="44.45875" lon="5.09965">
        <ele>1321.949951</ele>
        <time>2014-11-16T12:35:44Z</time>
      </trkpt>
      <trkpt lat="44.45868" lon="5.0998">
        <ele>1323.39209</ele>
        <time>2014-11-16T12:35:56Z</time>
      </trkpt>
      <trkpt lat="44.45861" lon="5.09993">
        <ele>1325.314697</ele>
        <time>2014-11-16T12:36:09Z</time>
      </trkpt>
      <trkpt lat="44.45857" lon="5.09999">
        <ele>1325.79541</ele>
        <time>2014-11-16T12:36:17Z</time>
      </trkpt>
      <trkpt lat="44.45853" lon="5.10011">
        <ele>1327.237549</ele>
        <time>2014-11-16T12:36:30Z</time>
      </trkpt>
      <trkpt lat="44.45852" lon="5.10013">
        <ele>1327.237549</ele>
        <time>2014-11-16T12:36:32Z</time>
      </trkpt>
      <trkpt lat="44.45846" lon="5.10019">
        <ele>1328.679443</ele>
        <time>2014-11-16T12:36:39Z</time>
      </trkpt>
      <trkpt lat="44.45843" lon="5.10029">
        <ele>1330.121338</ele>
        <time>2014-11-16T12:36:47Z</time>
      </trkpt>
      <trkpt lat="44.45834" lon="5.10044">
        <ele>1332.524658</ele>
        <time>2014-11-16T12:37:00Z</time>
      </trkpt>
      <trkpt lat="44.45821" lon="5.10053">
        <ele>1332.524658</ele>
        <time>2014-11-16T12:37:15Z</time>
      </trkpt>
      <trkpt lat="44.45817" lon="5.10055">
        <ele>1332.043945</ele>
        <time>2014-11-16T12:37:22Z</time>
      </trkpt>
      <trkpt lat="44.45802" lon="5.10058">
        <ele>1330.121338</ele>
        <time>2014-11-16T12:37:37Z</time>
      </trkpt>
      <trkpt lat="44.45796" lon="5.1006">
        <ele>1330.121338</ele>
        <time>2014-11-16T12:37:42Z</time>
      </trkpt>
      <trkpt lat="44.45795" lon="5.10061">
        <ele>1330.602051</ele>
        <time>2014-11-16T12:37:44Z</time>
      </trkpt>
      <trkpt lat="44.45784" lon="5.10064">
        <ele>1330.602051</ele>
        <time>2014-11-16T12:37:55Z</time>
      </trkpt>
      <trkpt lat="44.45774" lon="5.10065">
        <ele>1327.718018</ele>
        <time>2014-11-16T12:38:05Z</time>
      </trkpt>
      <trkpt lat="44.45769" lon="5.10066">
        <ele>1329.159912</ele>
        <time>2014-11-16T12:38:11Z</time>
      </trkpt>
      <trkpt lat="44.45754" lon="5.10068">
        <ele>1326.276123</ele>
        <time>2014-11-16T12:38:24Z</time>
      </trkpt>
      <trkpt lat="44.45747" lon="5.10069">
        <ele>1325.79541</ele>
        <time>2014-11-16T12:38:29Z</time>
      </trkpt>
      <trkpt lat="44.45734" lon="5.10068">
        <ele>1326.276123</ele>
        <time>2014-11-16T12:38:40Z</time>
      </trkpt>
      <trkpt lat="44.4572" lon="5.10065">
        <ele>1326.756836</ele>
        <time>2014-11-16T12:38:52Z</time>
      </trkpt>
      <trkpt lat="44.45707" lon="5.10062">
        <ele>1327.237549</ele>
        <time>2014-11-16T12:39:03Z</time>
      </trkpt>
      <trkpt lat="44.45695" lon="5.10062">
        <ele>1325.79541</ele>
        <time>2014-11-16T12:39:14Z</time>
      </trkpt>
      <trkpt lat="44.4569" lon="5.10063">
        <ele>1325.79541</ele>
        <time>2014-11-16T12:39:18Z</time>
      </trkpt>
      <trkpt lat="44.45686" lon="5.10064">
        <ele>1326.276123</ele>
        <time>2014-11-16T12:39:22Z</time>
      </trkpt>
      <trkpt lat="44.45672" lon="5.10073">
        <ele>1328.19873</ele>
        <time>2014-11-16T12:39:35Z</time>
      </trkpt>
      <trkpt lat="44.4566" lon="5.10077">
        <ele>1328.19873</ele>
        <time>2014-11-16T12:39:47Z</time>
      </trkpt>
      <trkpt lat="44.45653" lon="5.10078">
        <ele>1328.679443</ele>
        <time>2014-11-16T12:39:54Z</time>
      </trkpt>
      <trkpt lat="44.45639" lon="5.10086">
        <ele>1329.159912</ele>
        <time>2014-11-16T12:40:09Z</time>
      </trkpt>
      <trkpt lat="44.45626" lon="5.10095">
        <ele>1328.679443</ele>
        <time>2014-11-16T12:40:24Z</time>
      </trkpt>
      <trkpt lat="44.45617" lon="5.101">
        <ele>1328.19873</ele>
        <time>2014-11-16T12:40:33Z</time>
      </trkpt>
      <trkpt lat="44.45614" lon="5.10102">
        <ele>1328.679443</ele>
        <time>2014-11-16T12:40:41Z</time>
      </trkpt>
      <trkpt lat="44.45605" lon="5.10106">
        <ele>1328.19873</ele>
        <time>2014-11-16T12:40:52Z</time>
      </trkpt>
      <trkpt lat="44.45597" lon="5.1011">
        <ele>1327.237549</ele>
        <time>2014-11-16T12:41:03Z</time>
      </trkpt>
      <trkpt lat="44.45594" lon="5.10112">
        <ele>1327.237549</ele>
        <time>2014-11-16T12:41:11Z</time>
      </trkpt>
      <trkpt lat="44.45589" lon="5.10115">
        <ele>1327.718018</ele>
        <time>2014-11-16T12:41:23Z</time>
      </trkpt>
      <trkpt lat="44.4558" lon="5.10122">
        <ele>1328.679443</ele>
        <time>2014-11-16T12:41:34Z</time>
      </trkpt>
      <trkpt lat="44.45573" lon="5.10128">
        <ele>1330.121338</ele>
        <time>2014-11-16T12:41:44Z</time>
      </trkpt>
      <trkpt lat="44.45564" lon="5.10137">
        <ele>1331.563232</ele>
        <time>2014-11-16T12:41:56Z</time>
      </trkpt>
      <trkpt lat="44.45556" lon="5.10145">
        <ele>1330.602051</ele>
        <time>2014-11-16T12:42:03Z</time>
      </trkpt>
      <trkpt lat="44.45547" lon="5.1015">
        <ele>1331.563232</ele>
        <time>2014-11-16T12:42:11Z</time>
      </trkpt>
      <trkpt lat="44.45534" lon="5.10154">
        <ele>1330.121338</ele>
        <time>2014-11-16T12:42:21Z</time>
      </trkpt>
      <trkpt lat="44.45519" lon="5.10162">
        <ele>1330.602051</ele>
        <time>2014-11-16T12:42:34Z</time>
      </trkpt>
      <trkpt lat="44.45501" lon="5.10171">
        <ele>1329.159912</ele>
        <time>2014-11-16T12:42:49Z</time>
      </trkpt>
      <trkpt lat="44.45494" lon="5.10177">
        <ele>1328.19873</ele>
        <time>2014-11-16T12:42:57Z</time>
      </trkpt>
      <trkpt lat="44.45479" lon="5.10178">
        <ele>1325.314697</ele>
        <time>2014-11-16T12:43:09Z</time>
      </trkpt>
      <trkpt lat="44.45464" lon="5.1018">
        <ele>1324.353516</ele>
        <time>2014-11-16T12:43:21Z</time>
      </trkpt>
      <trkpt lat="44.45441" lon="5.10181">
        <ele>1321.469238</ele>
        <time>2014-11-16T12:43:38Z</time>
      </trkpt>
      <trkpt lat="44.45435" lon="5.10182">
        <ele>1321.949951</ele>
        <time>2014-11-16T12:43:43Z</time>
      </trkpt>
      <trkpt lat="44.45432" lon="5.10182">
        <ele>1320.98877</ele>
        <time>2014-11-16T12:43:45Z</time>
      </trkpt>
      <trkpt lat="44.45415" lon="5.1018">
        <ele>1320.508057</ele>
        <time>2014-11-16T12:43:58Z</time>
      </trkpt>
      <trkpt lat="44.45404" lon="5.10181">
        <ele>1320.98877</ele>
        <time>2014-11-16T12:44:07Z</time>
      </trkpt>
      <trkpt lat="44.45389" lon="5.1018">
        <ele>1320.508057</ele>
        <time>2014-11-16T12:44:20Z</time>
      </trkpt>
      <trkpt lat="44.45374" lon="5.1018">
        <ele>1320.508057</ele>
        <time>2014-11-16T12:44:32Z</time>
      </trkpt>
      <trkpt lat="44.45363" lon="5.10184">
        <ele>1320.027344</ele>
        <time>2014-11-16T12:44:45Z</time>
      </trkpt>
      <trkpt lat="44.45359" lon="5.10184">
        <ele>1319.546875</ele>
        <time>2014-11-16T12:44:50Z</time>
      </trkpt>
      <trkpt lat="44.45353" lon="5.10185">
        <ele>1319.546875</ele>
        <time>2014-11-16T12:44:56Z</time>
      </trkpt>
      <trkpt lat="44.4535" lon="5.10185">
        <ele>1317.624023</ele>
        <time>2014-11-16T12:45:03Z</time>
      </trkpt>
      <trkpt lat="44.45346" lon="5.10181">
        <ele>1317.143555</ele>
        <time>2014-11-16T12:45:07Z</time>
      </trkpt>
      <trkpt lat="44.45342" lon="5.10182">
        <ele>1316.182129</ele>
        <time>2014-11-16T12:45:13Z</time>
      </trkpt>
      <trkpt lat="44.45332" lon="5.10184">
        <ele>1314.740234</ele>
        <time>2014-11-16T12:45:22Z</time>
      </trkpt>
      <trkpt lat="44.45326" lon="5.10188">
        <ele>1313.778809</ele>
        <time>2014-11-16T12:45:31Z</time>
      </trkpt>
      <trkpt lat="44.45321" lon="5.1019">
        <ele>1314.259521</ele>
        <time>2014-11-16T12:45:38Z</time>
      </trkpt>
      <trkpt lat="44.45316" lon="5.10194">
        <ele>1312.817627</ele>
        <time>2014-11-16T12:45:45Z</time>
      </trkpt>
      <trkpt lat="44.45313" lon="5.10195">
        <ele>1311.856445</ele>
        <time>2014-11-16T12:45:48Z</time>
      </trkpt>
      <trkpt lat="44.45307" lon="5.10197">
        <ele>1310.89502</ele>
        <time>2014-11-16T12:45:56Z</time>
      </trkpt>
      <trkpt lat="44.45299" lon="5.102">
        <ele>1309.453125</ele>
        <time>2014-11-16T12:46:05Z</time>
      </trkpt>
      <trkpt lat="44.45295" lon="5.10203">
        <ele>1308.972412</ele>
        <time>2014-11-16T12:46:13Z</time>
      </trkpt>
      <trkpt lat="44.45288" lon="5.10202">
        <ele>1307.530273</ele>
        <time>2014-11-16T12:46:21Z</time>
      </trkpt>
      <trkpt lat="44.45285" lon="5.10202">
        <ele>1306.088135</ele>
        <time>2014-11-16T12:46:26Z</time>
      </trkpt>
      <trkpt lat="44.45277" lon="5.10199">
        <ele>1303.204346</ele>
        <time>2014-11-16T12:46:36Z</time>
      </trkpt>
      <trkpt lat="44.4527" lon="5.10197">
        <ele>1301.281738</ele>
        <time>2014-11-16T12:46:45Z</time>
      </trkpt>
      <trkpt lat="44.45266" lon="5.102">
        <ele>1300.801025</ele>
        <time>2014-11-16T12:46:53Z</time>
      </trkpt>
      <trkpt lat="44.45264" lon="5.10201">
        <ele>1300.801025</ele>
        <time>2014-11-16T12:47:02Z</time>
      </trkpt>
      <trkpt lat="44.45259" lon="5.10204">
        <ele>1299.359131</ele>
        <time>2014-11-16T12:47:12Z</time>
      </trkpt>
      <trkpt lat="44.45249" lon="5.10207">
        <ele>1296.955811</ele>
        <time>2014-11-16T12:47:22Z</time>
      </trkpt>
      <trkpt lat="44.4524" lon="5.10208">
        <ele>1295.033203</ele>
        <time>2014-11-16T12:47:32Z</time>
      </trkpt>
      <trkpt lat="44.45238" lon="5.10209">
        <ele>1293.591309</ele>
        <time>2014-11-16T12:47:35Z</time>
      </trkpt>
      <trkpt lat="44.45229" lon="5.10211">
        <ele>1291.187744</ele>
        <time>2014-11-16T12:47:47Z</time>
      </trkpt>
      <trkpt lat="44.45227" lon="5.10212">
        <ele>1290.226563</ele>
        <time>2014-11-16T12:47:50Z</time>
      </trkpt>
      <trkpt lat="44.45219" lon="5.10211">
        <ele>1288.784668</ele>
        <time>2014-11-16T12:48:01Z</time>
      </trkpt>
      <trkpt lat="44.45214" lon="5.10213">
        <ele>1286.381348</ele>
        <time>2014-11-16T12:48:09Z</time>
      </trkpt>
      <trkpt lat="44.45208" lon="5.10215">
        <ele>1284.45874</ele>
        <time>2014-11-16T12:48:19Z</time>
      </trkpt>
      <trkpt lat="44.452" lon="5.10214">
        <ele>1283.497314</ele>
        <time>2014-11-16T12:48:26Z</time>
      </trkpt>
      <trkpt lat="44.4519" lon="5.10215">
        <ele>1280.132813</ele>
        <time>2014-11-16T12:48:38Z</time>
      </trkpt>
      <trkpt lat="44.45179" lon="5.10217">
        <ele>1278.690918</ele>
        <time>2014-11-16T12:48:51Z</time>
      </trkpt>
      <trkpt lat="44.4517" lon="5.10219">
        <ele>1275.806641</ele>
        <time>2014-11-16T12:49:01Z</time>
      </trkpt>
      <trkpt lat="44.45157" lon="5.10224">
        <ele>1275.325928</ele>
        <time>2014-11-16T12:49:14Z</time>
      </trkpt>
      <trkpt lat="44.45149" lon="5.10226">
        <ele>1273.403564</ele>
        <time>2014-11-16T12:49:25Z</time>
      </trkpt>
      <trkpt lat="44.45135" lon="5.10232">
        <ele>1271.000244</ele>
        <time>2014-11-16T12:49:40Z</time>
      </trkpt>
      <trkpt lat="44.45134" lon="5.10232">
        <ele>1270.519531</ele>
        <time>2014-11-16T12:49:41Z</time>
      </trkpt>
      <trkpt lat="44.45127" lon="5.10235">
        <ele>1269.55835</ele>
        <time>2014-11-16T12:49:50Z</time>
      </trkpt>
      <trkpt lat="44.45119" lon="5.10235">
        <ele>1268.116211</ele>
        <time>2014-11-16T12:50:00Z</time>
      </trkpt>
      <trkpt lat="44.45115" lon="5.10235">
        <ele>1266.674316</ele>
        <time>2014-11-16T12:50:07Z</time>
      </trkpt>
      <trkpt lat="44.4511" lon="5.10238">
        <ele>1264.751709</ele>
        <time>2014-11-16T12:50:16Z</time>
      </trkpt>
      <trkpt lat="44.45106" lon="5.10238">
        <ele>1263.790283</ele>
        <time>2014-11-16T12:50:25Z</time>
      </trkpt>
      <trkpt lat="44.451" lon="5.10235">
        <ele>1262.348389</ele>
        <time>2014-11-16T12:50:32Z</time>
      </trkpt>
      <trkpt lat="44.4509" lon="5.10236">
        <ele>1260.425781</ele>
        <time>2014-11-16T12:50:44Z</time>
      </trkpt>
      <trkpt lat="44.45082" lon="5.10237">
        <ele>1258.983643</ele>
        <time>2014-11-16T12:50:52Z</time>
      </trkpt>
      <trkpt lat="44.45075" lon="5.1024">
        <ele>1258.50293</ele>
        <time>2014-11-16T12:51:01Z</time>
      </trkpt>
      <trkpt lat="44.4507" lon="5.10243">
        <ele>1257.541748</ele>
        <time>2014-11-16T12:51:08Z</time>
      </trkpt>
      <trkpt lat="44.45067" lon="5.10244">
        <ele>1256.099609</ele>
        <time>2014-11-16T12:51:16Z</time>
      </trkpt>
      <trkpt lat="44.45057" lon="5.10251">
        <ele>1256.580322</ele>
        <time>2014-11-16T12:51:28Z</time>
      </trkpt>
      <trkpt lat="44.45053" lon="5.10254">
        <ele>1255.619141</ele>
        <time>2014-11-16T12:51:35Z</time>
      </trkpt>
      <trkpt lat="44.45045" lon="5.10257">
        <ele>1255.138428</ele>
        <time>2014-11-16T12:51:45Z</time>
      </trkpt>
      <trkpt lat="44.4504" lon="5.10259">
        <ele>1254.177246</ele>
        <time>2014-11-16T12:51:50Z</time>
      </trkpt>
      <trkpt lat="44.45034" lon="5.10259">
        <ele>1253.21582</ele>
        <time>2014-11-16T12:51:59Z</time>
      </trkpt>
      <trkpt lat="44.45029" lon="5.10264">
        <ele>1252.254395</ele>
        <time>2014-11-16T12:52:08Z</time>
      </trkpt>
      <trkpt lat="44.45023" lon="5.10271">
        <ele>1251.293213</ele>
        <time>2014-11-16T12:52:18Z</time>
      </trkpt>
      <trkpt lat="44.45021" lon="5.1027">
        <ele>1250.332031</ele>
        <time>2014-11-16T12:52:21Z</time>
      </trkpt>
      <trkpt lat="44.45015" lon="5.10274">
        <ele>1248.889893</ele>
        <time>2014-11-16T12:52:30Z</time>
      </trkpt>
      <trkpt lat="44.45008" lon="5.10278">
        <ele>1247.447998</ele>
        <time>2014-11-16T12:52:40Z</time>
      </trkpt>
      <trkpt lat="44.45002" lon="5.10285">
        <ele>1247.447998</ele>
        <time>2014-11-16T12:52:53Z</time>
      </trkpt>
      <trkpt lat="44.45" lon="5.10286">
        <ele>1246.486816</ele>
        <time>2014-11-16T12:52:57Z</time>
      </trkpt>
      <trkpt lat="44.44996" lon="5.10288">
        <ele>1244.563965</ele>
        <time>2014-11-16T12:53:05Z</time>
      </trkpt>
      <trkpt lat="44.4499" lon="5.10288">
        <ele>1242.641357</ele>
        <time>2014-11-16T12:53:14Z</time>
      </trkpt>
      <trkpt lat="44.44984" lon="5.10284">
        <ele>1242.160645</ele>
        <time>2014-11-16T12:53:24Z</time>
      </trkpt>
      <trkpt lat="44.4498" lon="5.10282">
        <ele>1240.718506</ele>
        <time>2014-11-16T12:53:35Z</time>
      </trkpt>
      <trkpt lat="44.44976" lon="5.10283">
        <ele>1239.276611</ele>
        <time>2014-11-16T12:53:44Z</time>
      </trkpt>
      <trkpt lat="44.44973" lon="5.10286">
        <ele>1237.834717</ele>
        <time>2014-11-16T12:53:54Z</time>
      </trkpt>
      <trkpt lat="44.44966" lon="5.10283">
        <ele>1236.873291</ele>
        <time>2014-11-16T12:54:04Z</time>
      </trkpt>
      <trkpt lat="44.4496" lon="5.10285">
        <ele>1233.989502</ele>
        <time>2014-11-16T12:54:18Z</time>
      </trkpt>
      <trkpt lat="44.44954" lon="5.10288">
        <ele>1233.028076</ele>
        <time>2014-11-16T12:54:28Z</time>
      </trkpt>
      <trkpt lat="44.4495" lon="5.10289">
        <ele>1232.547607</ele>
        <time>2014-11-16T12:54:36Z</time>
      </trkpt>
      <trkpt lat="44.44946" lon="5.10292">
        <ele>1231.105713</ele>
        <time>2014-11-16T12:54:44Z</time>
      </trkpt>
      <trkpt lat="44.44938" lon="5.10294">
        <ele>1228.702393</ele>
        <time>2014-11-16T12:54:56Z</time>
      </trkpt>
      <trkpt lat="44.4493" lon="5.10295">
        <ele>1227.740723</ele>
        <time>2014-11-16T12:55:08Z</time>
      </trkpt>
      <trkpt lat="44.44923" lon="5.10297">
        <ele>1225.818115</ele>
        <time>2014-11-16T12:55:22Z</time>
      </trkpt>
      <trkpt lat="44.44914" lon="5.103">
        <ele>1222.934326</ele>
        <time>2014-11-16T12:55:37Z</time>
      </trkpt>
      <trkpt lat="44.44906" lon="5.10301">
        <ele>1220.050293</ele>
        <time>2014-11-16T12:55:51Z</time>
      </trkpt>
      <trkpt lat="44.449" lon="5.10301">
        <ele>1218.608398</ele>
        <time>2014-11-16T12:56:02Z</time>
      </trkpt>
      <trkpt lat="44.44893" lon="5.10301">
        <ele>1216.205078</ele>
        <time>2014-11-16T12:56:14Z</time>
      </trkpt>
      <trkpt lat="44.44885" lon="5.10298">
        <ele>1213.321289</ele>
        <time>2014-11-16T12:56:29Z</time>
      </trkpt>
      <trkpt lat="44.44878" lon="5.10299">
        <ele>1210.917725</ele>
        <time>2014-11-16T12:56:41Z</time>
      </trkpt>
      <trkpt lat="44.44867" lon="5.10302">
        <ele>1208.514404</ele>
        <time>2014-11-16T12:56:55Z</time>
      </trkpt>
      <trkpt lat="44.44855" lon="5.10309">
        <ele>1206.111084</ele>
        <time>2014-11-16T12:57:14Z</time>
      </trkpt>
      <trkpt lat="44.44845" lon="5.10311">
        <ele>1203.227295</ele>
        <time>2014-11-16T12:57:29Z</time>
      </trkpt>
      <trkpt lat="44.44836" lon="5.10312">
        <ele>1200.823975</ele>
        <time>2014-11-16T12:57:43Z</time>
      </trkpt>
      <trkpt lat="44.44829" lon="5.10313">
        <ele>1198.901367</ele>
        <time>2014-11-16T12:57:54Z</time>
      </trkpt>
      <trkpt lat="44.44821" lon="5.10315">
        <ele>1196.498291</ele>
        <time>2014-11-16T12:58:08Z</time>
      </trkpt>
      <trkpt lat="44.44814" lon="5.10317">
        <ele>1195.055908</ele>
        <time>2014-11-16T12:58:19Z</time>
      </trkpt>
      <trkpt lat="44.44807" lon="5.10317">
        <ele>1192.652832</ele>
        <time>2014-11-16T12:58:30Z</time>
      </trkpt>
      <trkpt lat="44.44802" lon="5.10319">
        <ele>1191.210693</ele>
        <time>2014-11-16T12:58:39Z</time>
      </trkpt>
      <trkpt lat="44.44797" lon="5.10323">
        <ele>1189.288086</ele>
        <time>2014-11-16T12:58:50Z</time>
      </trkpt>
      <trkpt lat="44.44791" lon="5.10328">
        <ele>1186.884766</ele>
        <time>2014-11-16T12:59:03Z</time>
      </trkpt>
      <trkpt lat="44.44782" lon="5.10331">
        <ele>1184.000977</ele>
        <time>2014-11-16T12:59:16Z</time>
      </trkpt>
      <trkpt lat="44.44775" lon="5.10332">
        <ele>1182.078369</ele>
        <time>2014-11-16T12:59:28Z</time>
      </trkpt>
      <trkpt lat="44.44769" lon="5.10335">
        <ele>1179.194092</ele>
        <time>2014-11-16T12:59:39Z</time>
      </trkpt>
      <trkpt lat="44.44762" lon="5.10338">
        <ele>1178.23291</ele>
        <time>2014-11-16T12:59:52Z</time>
      </trkpt>
      <trkpt lat="44.44755" lon="5.10339">
        <ele>1176.310303</ele>
        <time>2014-11-16T13:00:04Z</time>
      </trkpt>
      <trkpt lat="44.44748" lon="5.10341">
        <ele>1173.906982</ele>
        <time>2014-11-16T13:00:16Z</time>
      </trkpt>
      <trkpt lat="44.4474" lon="5.10344">
        <ele>1171.023193</ele>
        <time>2014-11-16T13:00:30Z</time>
      </trkpt>
      <trkpt lat="44.44736" lon="5.10346">
        <ele>1170.061768</ele>
        <time>2014-11-16T13:00:40Z</time>
      </trkpt>
      <trkpt lat="44.44731" lon="5.1035">
        <ele>1168.619873</ele>
        <time>2014-11-16T13:00:50Z</time>
      </trkpt>
      <trkpt lat="44.44725" lon="5.10353">
        <ele>1166.216553</ele>
        <time>2014-11-16T13:01:01Z</time>
      </trkpt>
      <trkpt lat="44.44717" lon="5.10357">
        <ele>1163.33252</ele>
        <time>2014-11-16T13:01:15Z</time>
      </trkpt>
      <trkpt lat="44.44711" lon="5.10357">
        <ele>1161.890625</ele>
        <time>2014-11-16T13:01:24Z</time>
      </trkpt>
      <trkpt lat="44.44703" lon="5.10361">
        <ele>1159.487305</ele>
        <time>2014-11-16T13:01:36Z</time>
      </trkpt>
      <trkpt lat="44.44699" lon="5.10366">
        <ele>1158.525879</ele>
        <time>2014-11-16T13:01:46Z</time>
      </trkpt>
      <trkpt lat="44.44698" lon="5.10367">
        <ele>1158.04541</ele>
        <time>2014-11-16T13:02:05Z</time>
      </trkpt>
      <trkpt lat="44.44697" lon="5.10373">
        <ele>1157.083984</ele>
        <time>2014-11-16T13:02:12Z</time>
      </trkpt>
      <trkpt lat="44.44695" lon="5.10376">
        <ele>1157.564697</ele>
        <time>2014-11-16T13:02:16Z</time>
      </trkpt>
      <trkpt lat="44.44691" lon="5.10381">
        <ele>1155.64209</ele>
        <time>2014-11-16T13:02:25Z</time>
      </trkpt>
      <trkpt lat="44.44687" lon="5.10389">
        <ele>1154.680664</ele>
        <time>2014-11-16T13:02:34Z</time>
      </trkpt>
      <trkpt lat="44.44683" lon="5.10394">
        <ele>1153.719482</ele>
        <time>2014-11-16T13:02:42Z</time>
      </trkpt>
      <trkpt lat="44.44677" lon="5.10404">
        <ele>1152.758057</ele>
        <time>2014-11-16T13:02:54Z</time>
      </trkpt>
      <trkpt lat="44.44672" lon="5.10408">
        <ele>1151.796875</ele>
        <time>2014-11-16T13:03:02Z</time>
      </trkpt>
      <trkpt lat="44.44665" lon="5.10411">
        <ele>1150.835449</ele>
        <time>2014-11-16T13:03:09Z</time>
      </trkpt>
      <trkpt lat="44.44664" lon="5.10411">
        <ele>1150.835449</ele>
        <time>2014-11-16T13:03:10Z</time>
      </trkpt>
      <trkpt lat="44.44658" lon="5.10417">
        <ele>1150.35498</ele>
        <time>2014-11-16T13:03:19Z</time>
      </trkpt>
      <trkpt lat="44.44653" lon="5.10423">
        <ele>1151.316162</ele>
        <time>2014-11-16T13:03:29Z</time>
      </trkpt>
      <trkpt lat="44.44648" lon="5.1043">
        <ele>1152.277344</ele>
        <time>2014-11-16T13:03:37Z</time>
      </trkpt>
      <trkpt lat="44.44643" lon="5.10434">
        <ele>1151.316162</ele>
        <time>2014-11-16T13:03:42Z</time>
      </trkpt>
      <trkpt lat="44.44632" lon="5.10445">
        <ele>1151.316162</ele>
        <time>2014-11-16T13:03:54Z</time>
      </trkpt>
      <trkpt lat="44.44624" lon="5.1045">
        <ele>1152.758057</ele>
        <time>2014-11-16T13:04:05Z</time>
      </trkpt>
      <trkpt lat="44.44614" lon="5.10453">
        <ele>1154.200195</ele>
        <time>2014-11-16T13:04:16Z</time>
      </trkpt>
      <trkpt lat="44.44609" lon="5.10454">
        <ele>1155.161377</ele>
        <time>2014-11-16T13:04:22Z</time>
      </trkpt>
      <trkpt lat="44.44603" lon="5.10457">
        <ele>1156.603271</ele>
        <time>2014-11-16T13:04:31Z</time>
      </trkpt>
      <trkpt lat="44.44598" lon="5.10461">
        <ele>1157.564697</ele>
        <time>2014-11-16T13:04:39Z</time>
      </trkpt>
      <trkpt lat="44.44599" lon="5.10466">
        <ele>1158.525879</ele>
        <time>2014-11-16T13:04:47Z</time>
      </trkpt>
      <trkpt lat="44.44594" lon="5.10468">
        <ele>1159.487305</ele>
        <time>2014-11-16T13:07:16Z</time>
      </trkpt>
      <trkpt lat="44.44585" lon="5.10472">
        <ele>1161.409912</ele>
        <time>2014-11-16T13:07:25Z</time>
      </trkpt>
      <trkpt lat="44.44582" lon="5.10473">
        <ele>1161.890625</ele>
        <time>2014-11-16T13:07:27Z</time>
      </trkpt>
      <trkpt lat="44.44572" lon="5.10482">
        <ele>1164.774658</ele>
        <time>2014-11-16T13:07:37Z</time>
      </trkpt>
      <trkpt lat="44.44569" lon="5.10483">
        <ele>1164.774658</ele>
        <time>2014-11-16T13:07:40Z</time>
      </trkpt>
      <trkpt lat="44.44564" lon="5.10484">
        <ele>1165.736084</ele>
        <time>2014-11-16T13:07:44Z</time>
      </trkpt>
      <trkpt lat="44.44557" lon="5.10488">
        <ele>1166.697266</ele>
        <time>2014-11-16T13:07:52Z</time>
      </trkpt>
      <trkpt lat="44.44557" lon="5.10489">
        <ele>1166.697266</ele>
        <time>2014-11-16T13:08:03Z</time>
      </trkpt>
      <trkpt lat="44.44552" lon="5.10495">
        <ele>1167.658447</ele>
        <time>2014-11-16T13:08:12Z</time>
      </trkpt>
      <trkpt lat="44.44545" lon="5.10504">
        <ele>1171.023193</ele>
        <time>2014-11-16T13:08:21Z</time>
      </trkpt>
      <trkpt lat="44.44538" lon="5.10513">
        <ele>1172.465088</ele>
        <time>2014-11-16T13:08:30Z</time>
      </trkpt>
      <trkpt lat="44.44535" lon="5.1052">
        <ele>1174.387695</ele>
        <time>2014-11-16T13:08:39Z</time>
      </trkpt>
      <trkpt lat="44.44529" lon="5.10525">
        <ele>1174.868408</ele>
        <time>2014-11-16T13:13:09Z</time>
      </trkpt>
      <trkpt lat="44.44522" lon="5.10527">
        <ele>1173.906982</ele>
        <time>2014-11-16T13:13:19Z</time>
      </trkpt>
      <trkpt lat="44.44517" lon="5.10531">
        <ele>1174.387695</ele>
        <time>2014-11-16T13:13:27Z</time>
      </trkpt>
      <trkpt lat="44.44511" lon="5.10537">
        <ele>1175.348877</ele>
        <time>2014-11-16T13:13:36Z</time>
      </trkpt>
      <trkpt lat="44.44507" lon="5.10538">
        <ele>1174.868408</ele>
        <time>2014-11-16T13:13:43Z</time>
      </trkpt>
      <trkpt lat="44.44499" lon="5.10544">
        <ele>1174.387695</ele>
        <time>2014-11-16T13:13:57Z</time>
      </trkpt>
      <trkpt lat="44.44496" lon="5.10546">
        <ele>1174.868408</ele>
        <time>2014-11-16T13:14:05Z</time>
      </trkpt>
      <trkpt lat="44.44493" lon="5.10549">
        <ele>1176.310303</ele>
        <time>2014-11-16T13:14:15Z</time>
      </trkpt>
      <trkpt lat="44.44489" lon="5.10554">
        <ele>1177.271729</ele>
        <time>2014-11-16T13:14:24Z</time>
      </trkpt>
      <trkpt lat="44.44485" lon="5.10558">
        <ele>1177.271729</ele>
        <time>2014-11-16T13:14:35Z</time>
      </trkpt>
      <trkpt lat="44.44483" lon="5.1056">
        <ele>1176.791016</ele>
        <time>2014-11-16T13:14:41Z</time>
      </trkpt>
      <trkpt lat="44.44479" lon="5.1056">
        <ele>1176.310303</ele>
        <time>2014-11-16T13:14:48Z</time>
      </trkpt>
      <trkpt lat="44.44473" lon="5.10558">
        <ele>1175.348877</ele>
        <time>2014-11-16T13:14:59Z</time>
      </trkpt>
      <trkpt lat="44.44467" lon="5.10559">
        <ele>1174.868408</ele>
        <time>2014-11-16T13:15:07Z</time>
      </trkpt>
      <trkpt lat="44.44464" lon="5.10561">
        <ele>1174.868408</ele>
        <time>2014-11-16T13:15:12Z</time>
      </trkpt>
      <trkpt lat="44.44457" lon="5.10566">
        <ele>1174.868408</ele>
        <time>2014-11-16T13:15:21Z</time>
      </trkpt>
      <trkpt lat="44.4445" lon="5.10571">
        <ele>1175.348877</ele>
        <time>2014-11-16T13:15:30Z</time>
      </trkpt>
      <trkpt lat="44.44447" lon="5.10572">
        <ele>1175.348877</ele>
        <time>2014-11-16T13:15:39Z</time>
      </trkpt>
      <trkpt lat="44.44442" lon="5.10574">
        <ele>1174.868408</ele>
        <time>2014-11-16T13:15:49Z</time>
      </trkpt>
      <trkpt lat="44.44436" lon="5.10577">
        <ele>1175.348877</ele>
        <time>2014-11-16T13:15:57Z</time>
      </trkpt>
      <trkpt lat="44.44431" lon="5.1058">
        <ele>1175.348877</ele>
        <time>2014-11-16T13:16:06Z</time>
      </trkpt>
      <trkpt lat="44.44427" lon="5.10583">
        <ele>1175.348877</ele>
        <time>2014-11-16T13:16:16Z</time>
      </trkpt>
      <trkpt lat="44.44425" lon="5.10585">
        <ele>1174.868408</ele>
        <time>2014-11-16T13:16:24Z</time>
      </trkpt>
      <trkpt lat="44.4442" lon="5.10585">
        <ele>1173.906982</ele>
        <time>2014-11-16T13:16:34Z</time>
      </trkpt>
      <trkpt lat="44.44411" lon="5.10583">
        <ele>1173.426514</ele>
        <time>2014-11-16T13:16:47Z</time>
      </trkpt>
      <trkpt lat="44.44404" lon="5.10586">
        <ele>1172.945801</ele>
        <time>2014-11-16T13:16:58Z</time>
      </trkpt>
      <trkpt lat="44.44398" lon="5.10589">
        <ele>1172.465088</ele>
        <time>2014-11-16T13:17:06Z</time>
      </trkpt>
      <trkpt lat="44.44393" lon="5.10594">
        <ele>1172.465088</ele>
        <time>2014-11-16T13:17:15Z</time>
      </trkpt>
      <trkpt lat="44.4439" lon="5.10596">
        <ele>1173.906982</ele>
        <time>2014-11-16T13:17:24Z</time>
      </trkpt>
      <trkpt lat="44.44386" lon="5.10602">
        <ele>1174.387695</ele>
        <time>2014-11-16T13:17:33Z</time>
      </trkpt>
      <trkpt lat="44.44382" lon="5.10608">
        <ele>1174.868408</ele>
        <time>2014-11-16T13:17:42Z</time>
      </trkpt>
      <trkpt lat="44.44376" lon="5.10614">
        <ele>1175.348877</ele>
        <time>2014-11-16T13:17:53Z</time>
      </trkpt>
      <trkpt lat="44.44371" lon="5.10617">
        <ele>1175.348877</ele>
        <time>2014-11-16T13:18:01Z</time>
      </trkpt>
      <trkpt lat="44.44364" lon="5.10618">
        <ele>1174.868408</ele>
        <time>2014-11-16T13:18:08Z</time>
      </trkpt>
      <trkpt lat="44.44359" lon="5.10621">
        <ele>1175.82959</ele>
        <time>2014-11-16T13:18:16Z</time>
      </trkpt>
      <trkpt lat="44.44355" lon="5.10625">
        <ele>1176.310303</ele>
        <time>2014-11-16T13:18:23Z</time>
      </trkpt>
      <trkpt lat="44.44349" lon="5.10628">
        <ele>1176.791016</ele>
        <time>2014-11-16T13:18:32Z</time>
      </trkpt>
      <trkpt lat="44.4434" lon="5.1063">
        <ele>1177.271729</ele>
        <time>2014-11-16T13:18:42Z</time>
      </trkpt>
      <trkpt lat="44.44334" lon="5.10631">
        <ele>1177.752197</ele>
        <time>2014-11-16T13:18:51Z</time>
      </trkpt>
      <trkpt lat="44.4433" lon="5.10632">
        <ele>1177.752197</ele>
        <time>2014-11-16T13:18:58Z</time>
      </trkpt>
      <trkpt lat="44.44325" lon="5.10632">
        <ele>1177.271729</ele>
        <time>2014-11-16T13:19:05Z</time>
      </trkpt>
      <trkpt lat="44.44317" lon="5.1063">
        <ele>1176.310303</ele>
        <time>2014-11-16T13:19:16Z</time>
      </trkpt>
      <trkpt lat="44.4431" lon="5.1063">
        <ele>1176.310303</ele>
        <time>2014-11-16T13:19:26Z</time>
      </trkpt>
      <trkpt lat="44.44306" lon="5.1063">
        <ele>1175.348877</ele>
        <time>2014-11-16T13:19:31Z</time>
      </trkpt>
      <trkpt lat="44.443" lon="5.10632">
        <ele>1176.310303</ele>
        <time>2014-11-16T13:19:39Z</time>
      </trkpt>
      <trkpt lat="44.4429" lon="5.10632">
        <ele>1176.791016</ele>
        <time>2014-11-16T13:19:47Z</time>
      </trkpt>
      <trkpt lat="44.44284" lon="5.10634">
        <ele>1177.271729</ele>
        <time>2014-11-16T13:19:56Z</time>
      </trkpt>
      <trkpt lat="44.44275" lon="5.10635">
        <ele>1177.752197</ele>
        <time>2014-11-16T13:20:05Z</time>
      </trkpt>
      <trkpt lat="44.44264" lon="5.10638">
        <ele>1178.23291</ele>
        <time>2014-11-16T13:20:16Z</time>
      </trkpt>
      <trkpt lat="44.44255" lon="5.10641">
        <ele>1178.713623</ele>
        <time>2014-11-16T13:20:25Z</time>
      </trkpt>
      <trkpt lat="44.44245" lon="5.10645">
        <ele>1178.713623</ele>
        <time>2014-11-16T13:20:36Z</time>
      </trkpt>
      <trkpt lat="44.44237" lon="5.10646">
        <ele>1178.713623</ele>
        <time>2014-11-16T13:20:46Z</time>
      </trkpt>
      <trkpt lat="44.4423" lon="5.10648">
        <ele>1179.674805</ele>
        <time>2014-11-16T13:20:56Z</time>
      </trkpt>
      <trkpt lat="44.44224" lon="5.1065">
        <ele>1179.674805</ele>
        <time>2014-11-16T13:21:05Z</time>
      </trkpt>
      <trkpt lat="44.44218" lon="5.10652">
        <ele>1179.674805</ele>
        <time>2014-11-16T13:21:15Z</time>
      </trkpt>
      <trkpt lat="44.4421" lon="5.10654">
        <ele>1180.155762</ele>
        <time>2014-11-16T13:21:24Z</time>
      </trkpt>
      <trkpt lat="44.44203" lon="5.10657">
        <ele>1180.636475</ele>
        <time>2014-11-16T13:21:34Z</time>
      </trkpt>
      <trkpt lat="44.44198" lon="5.10656">
        <ele>1181.117188</ele>
        <time>2014-11-16T13:21:43Z</time>
      </trkpt>
      <trkpt lat="44.44191" lon="5.10659">
        <ele>1181.597656</ele>
        <time>2014-11-16T13:21:53Z</time>
      </trkpt>
      <trkpt lat="44.44182" lon="5.10662">
        <ele>1182.559082</ele>
        <time>2014-11-16T13:22:05Z</time>
      </trkpt>
      <trkpt lat="44.44178" lon="5.10664">
        <ele>1182.078369</ele>
        <time>2014-11-16T13:22:11Z</time>
      </trkpt>
      <trkpt lat="44.44172" lon="5.10666">
        <ele>1182.078369</ele>
        <time>2014-11-16T13:22:20Z</time>
      </trkpt>
      <trkpt lat="44.44167" lon="5.10665">
        <ele>1180.636475</ele>
        <time>2014-11-16T13:22:29Z</time>
      </trkpt>
      <trkpt lat="44.44161" lon="5.10667">
        <ele>1179.194092</ele>
        <time>2014-11-16T13:22:40Z</time>
      </trkpt>
      <trkpt lat="44.44155" lon="5.10669">
        <ele>1177.752197</ele>
        <time>2014-11-16T13:22:50Z</time>
      </trkpt>
      <trkpt lat="44.44152" lon="5.10669">
        <ele>1176.791016</ele>
        <time>2014-11-16T13:22:59Z</time>
      </trkpt>
      <trkpt lat="44.44149" lon="5.10672">
        <ele>1175.82959</ele>
        <time>2014-11-16T13:23:08Z</time>
      </trkpt>
      <trkpt lat="44.44146" lon="5.10673">
        <ele>1174.387695</ele>
        <time>2014-11-16T13:23:16Z</time>
      </trkpt>
      <trkpt lat="44.4414" lon="5.10677">
        <ele>1173.426514</ele>
        <time>2014-11-16T13:23:30Z</time>
      </trkpt>
      <trkpt lat="44.44138" lon="5.10678">
        <ele>1172.945801</ele>
        <time>2014-11-16T13:23:43Z</time>
      </trkpt>
      <trkpt lat="44.44136" lon="5.10681">
        <ele>1171.984375</ele>
        <time>2014-11-16T13:23:58Z</time>
      </trkpt>
      <trkpt lat="44.4413" lon="5.10683">
        <ele>1169.581299</ele>
        <time>2014-11-16T13:24:09Z</time>
      </trkpt>
      <trkpt lat="44.44127" lon="5.10685">
        <ele>1168.619873</ele>
        <time>2014-11-16T13:24:18Z</time>
      </trkpt>
      <trkpt lat="44.44123" lon="5.10683">
        <ele>1167.658447</ele>
        <time>2014-11-16T13:24:26Z</time>
      </trkpt>
      <trkpt lat="44.44119" lon="5.10678">
        <ele>1165.736084</ele>
        <time>2014-11-16T13:24:37Z</time>
      </trkpt>
      <trkpt lat="44.44114" lon="5.10679">
        <ele>1165.255371</ele>
        <time>2014-11-16T13:24:46Z</time>
      </trkpt>
      <trkpt lat="44.44111" lon="5.10682">
        <ele>1163.812988</ele>
        <time>2014-11-16T13:25:50Z</time>
      </trkpt>
      <trkpt lat="44.44106" lon="5.10687">
        <ele>1161.890625</ele>
        <time>2014-11-16T13:25:59Z</time>
      </trkpt>
      <trkpt lat="44.441" lon="5.10687">
        <ele>1159.487305</ele>
        <time>2014-11-16T13:26:08Z</time>
      </trkpt>
      <trkpt lat="44.44093" lon="5.10686">
        <ele>1157.564697</ele>
        <time>2014-11-16T13:26:16Z</time>
      </trkpt>
      <trkpt lat="44.4409" lon="5.10683">
        <ele>1156.122559</ele>
        <time>2014-11-16T13:26:23Z</time>
      </trkpt>
      <trkpt lat="44.44088" lon="5.10678">
        <ele>1154.200195</ele>
        <time>2014-11-16T13:26:31Z</time>
      </trkpt>
      <trkpt lat="44.44082" lon="5.10673">
        <ele>1151.796875</ele>
        <time>2014-11-16T13:26:40Z</time>
      </trkpt>
      <trkpt lat="44.44076" lon="5.1067">
        <ele>1149.874268</ele>
        <time>2014-11-16T13:26:48Z</time>
      </trkpt>
      <trkpt lat="44.44069" lon="5.10671">
        <ele>1148.432129</ele>
        <time>2014-11-16T13:26:58Z</time>
      </trkpt>
      <trkpt lat="44.44064" lon="5.1067">
        <ele>1146.509521</ele>
        <time>2014-11-16T13:27:06Z</time>
      </trkpt>
      <trkpt lat="44.4406" lon="5.10669">
        <ele>1145.548096</ele>
        <time>2014-11-16T13:27:17Z</time>
      </trkpt>
      <trkpt lat="44.44057" lon="5.10664">
        <ele>1143.144775</ele>
        <time>2014-11-16T13:27:33Z</time>
      </trkpt>
      <trkpt lat="44.44055" lon="5.1066">
        <ele>1141.702881</ele>
        <time>2014-11-16T13:27:43Z</time>
      </trkpt>
      <trkpt lat="44.44053" lon="5.10656">
        <ele>1138.819092</ele>
        <time>2014-11-16T13:27:58Z</time>
      </trkpt>
      <trkpt lat="44.44049" lon="5.10653">
        <ele>1137.857666</ele>
        <time>2014-11-16T13:28:06Z</time>
      </trkpt>
      <trkpt lat="44.44045" lon="5.10652">
        <ele>1136.89624</ele>
        <time>2014-11-16T13:28:15Z</time>
      </trkpt>
      <trkpt lat="44.44036" lon="5.10651">
        <ele>1135.454346</ele>
        <time>2014-11-16T13:28:31Z</time>
      </trkpt>
      <trkpt lat="44.44028" lon="5.10651">
        <ele>1133.531738</ele>
        <time>2014-11-16T13:28:47Z</time>
      </trkpt>
      <trkpt lat="44.44025" lon="5.1065">
        <ele>1132.089844</ele>
        <time>2014-11-16T13:28:55Z</time>
      </trkpt>
      <trkpt lat="44.44019" lon="5.10651">
        <ele>1131.128418</ele>
        <time>2014-11-16T13:29:07Z</time>
      </trkpt>
      <trkpt lat="44.44012" lon="5.10655">
        <ele>1131.608887</ele>
        <time>2014-11-16T13:29:16Z</time>
      </trkpt>
      <trkpt lat="44.44007" lon="5.10656">
        <ele>1132.570557</ele>
        <time>2014-11-16T13:29:24Z</time>
      </trkpt>
      <trkpt lat="44.44003" lon="5.1066">
        <ele>1133.051025</ele>
        <time>2014-11-16T13:29:29Z</time>
      </trkpt>
      <trkpt lat="44.43991" lon="5.10662">
        <ele>1132.570557</ele>
        <time>2014-11-16T13:29:39Z</time>
      </trkpt>
      <trkpt lat="44.43988" lon="5.10664">
        <ele>1132.570557</ele>
        <time>2014-11-16T13:29:49Z</time>
      </trkpt>
      <trkpt lat="44.43988" lon="5.10664">
        <ele>1132.570557</ele>
        <time>2014-11-16T13:30:14Z</time>
      </trkpt>
      <trkpt lat="44.43988" lon="5.10664">
        <ele>1132.570557</ele>
        <time>2014-11-16T13:30:39Z</time>
      </trkpt>
      <trkpt lat="44.43986" lon="5.10664">
        <ele>1133.531738</ele>
        <time>2014-11-16T13:30:57Z</time>
      </trkpt>
      <trkpt lat="44.43979" lon="5.10666">
        <ele>1133.531738</ele>
        <time>2014-11-16T13:31:06Z</time>
      </trkpt>
      <trkpt lat="44.43977" lon="5.10668">
        <ele>1133.531738</ele>
        <time>2014-11-16T13:31:14Z</time>
      </trkpt>
      <trkpt lat="44.43977" lon="5.10667">
        <ele>1133.531738</ele>
        <time>2014-11-16T13:31:21Z</time>
      </trkpt>
      <trkpt lat="44.43978" lon="5.10664">
        <ele>1133.531738</ele>
        <time>2014-11-16T13:31:33Z</time>
      </trkpt>
      <trkpt lat="44.43976" lon="5.10661">
        <ele>1133.531738</ele>
        <time>2014-11-16T13:31:36Z</time>
      </trkpt>
      <trkpt lat="44.43971" lon="5.10659">
        <ele>1133.531738</ele>
        <time>2014-11-16T13:31:41Z</time>
      </trkpt>
      <trkpt lat="44.4397" lon="5.10656">
        <ele>1132.570557</ele>
        <time>2014-11-16T13:31:44Z</time>
      </trkpt>
      <trkpt lat="44.43963" lon="5.10659">
        <ele>1132.570557</ele>
        <time>2014-11-16T13:31:54Z</time>
      </trkpt>
      <trkpt lat="44.43961" lon="5.10662">
        <ele>1132.089844</ele>
        <time>2014-11-16T13:32:03Z</time>
      </trkpt>
      <trkpt lat="44.43962" lon="5.10661">
        <ele>1132.570557</ele>
        <time>2014-11-16T13:32:06Z</time>
      </trkpt>
      <trkpt lat="44.43964" lon="5.10657">
        <ele>1133.051025</ele>
        <time>2014-11-16T13:32:12Z</time>
      </trkpt>
      <trkpt lat="44.43969" lon="5.10655">
        <ele>1133.051025</ele>
        <time>2014-11-16T13:32:18Z</time>
      </trkpt>
      <trkpt lat="44.4397" lon="5.10649">
        <ele>1132.089844</ele>
        <time>2014-11-16T13:32:27Z</time>
      </trkpt>
      <trkpt lat="44.43968" lon="5.10643">
        <ele>1131.128418</ele>
        <time>2014-11-16T13:32:34Z</time>
      </trkpt>
      <trkpt lat="44.43969" lon="5.10642">
        <ele>1130.647705</ele>
        <time>2014-11-16T13:32:43Z</time>
      </trkpt>
      <trkpt lat="44.43966" lon="5.10636">
        <ele>1130.166992</ele>
        <time>2014-11-16T13:32:50Z</time>
      </trkpt>
      <trkpt lat="44.43964" lon="5.10634">
        <ele>1129.205566</ele>
        <time>2014-11-16T13:32:54Z</time>
      </trkpt>
      <trkpt lat="44.43957" lon="5.10626">
        <ele>1127.763672</ele>
        <time>2014-11-16T13:33:05Z</time>
      </trkpt>
      <trkpt lat="44.43956" lon="5.10624">
        <ele>1127.283203</ele>
        <time>2014-11-16T13:33:18Z</time>
      </trkpt>
      <trkpt lat="44.43953" lon="5.10619">
        <ele>1126.321777</ele>
        <time>2014-11-16T13:33:27Z</time>
      </trkpt>
      <trkpt lat="44.43949" lon="5.10614">
        <ele>1125.360352</ele>
        <time>2014-11-16T13:33:36Z</time>
      </trkpt>
      <trkpt lat="44.43944" lon="5.1061">
        <ele>1124.39917</ele>
        <time>2014-11-16T13:33:45Z</time>
      </trkpt>
      <trkpt lat="44.43943" lon="5.10606">
        <ele>1122.957275</ele>
        <time>2014-11-16T13:33:53Z</time>
      </trkpt>
      <trkpt lat="44.4394" lon="5.10599">
        <ele>1121.034668</ele>
        <time>2014-11-16T13:34:03Z</time>
      </trkpt>
      <trkpt lat="44.43938" lon="5.10595">
        <ele>1120.073242</ele>
        <time>2014-11-16T13:34:14Z</time>
      </trkpt>
      <trkpt lat="44.43934" lon="5.10589">
        <ele>1118.150635</ele>
        <time>2014-11-16T13:34:26Z</time>
      </trkpt>
      <trkpt lat="44.43931" lon="5.10584">
        <ele>1116.70874</ele>
        <time>2014-11-16T13:34:33Z</time>
      </trkpt>
      <trkpt lat="44.43927" lon="5.1058">
        <ele>1115.266602</ele>
        <time>2014-11-16T13:34:42Z</time>
      </trkpt>
      <trkpt lat="44.43923" lon="5.10573">
        <ele>1112.863281</ele>
        <time>2014-11-16T13:34:55Z</time>
      </trkpt>
      <trkpt lat="44.4392" lon="5.1057">
        <ele>1112.382568</ele>
        <time>2014-11-16T13:35:07Z</time>
      </trkpt>
      <trkpt lat="44.43912" lon="5.10563">
        <ele>1111.421387</ele>
        <time>2014-11-16T13:35:15Z</time>
      </trkpt>
      <trkpt lat="44.43908" lon="5.10561">
        <ele>1109.979248</ele>
        <time>2014-11-16T13:35:22Z</time>
      </trkpt>
      <trkpt lat="44.43903" lon="5.10558">
        <ele>1109.979248</ele>
        <time>2014-11-16T13:35:31Z</time>
      </trkpt>
      <trkpt lat="44.43898" lon="5.10555">
        <ele>1109.018066</ele>
        <time>2014-11-16T13:36:02Z</time>
      </trkpt>
      <trkpt lat="44.43893" lon="5.10552">
        <ele>1107.576172</ele>
        <time>2014-11-16T13:36:11Z</time>
      </trkpt>
      <trkpt lat="44.43892" lon="5.10551">
        <ele>1107.095459</ele>
        <time>2014-11-16T13:36:12Z</time>
      </trkpt>
      <trkpt lat="44.43884" lon="5.10552">
        <ele>1108.537354</ele>
        <time>2014-11-16T13:36:21Z</time>
      </trkpt>
      <trkpt lat="44.43874" lon="5.10549">
        <ele>1109.018066</ele>
        <time>2014-11-16T13:36:30Z</time>
      </trkpt>
      <trkpt lat="44.43868" lon="5.10544">
        <ele>1108.056885</ele>
        <time>2014-11-16T13:36:37Z</time>
      </trkpt>
      <trkpt lat="44.4386" lon="5.10539">
        <ele>1107.576172</ele>
        <time>2014-11-16T13:36:45Z</time>
      </trkpt>
      <trkpt lat="44.43848" lon="5.10535">
        <ele>1107.576172</ele>
        <time>2014-11-16T13:36:55Z</time>
      </trkpt>
      <trkpt lat="44.43844" lon="5.10531">
        <ele>1106.614746</ele>
        <time>2014-11-16T13:36:59Z</time>
      </trkpt>
      <trkpt lat="44.4384" lon="5.1053">
        <ele>1107.095459</ele>
        <time>2014-11-16T13:37:05Z</time>
      </trkpt>
      <trkpt lat="44.43831" lon="5.1052">
        <ele>1105.653564</ele>
        <time>2014-11-16T13:37:16Z</time>
      </trkpt>
      <trkpt lat="44.43824" lon="5.10515">
        <ele>1104.692139</ele>
        <time>2014-11-16T13:37:24Z</time>
      </trkpt>
      <trkpt lat="44.43821" lon="5.10515">
        <ele>1105.172852</ele>
        <time>2014-11-16T13:37:34Z</time>
      </trkpt>
      <trkpt lat="44.43816" lon="5.10513">
        <ele>1105.172852</ele>
        <time>2014-11-16T13:38:08Z</time>
      </trkpt>
      <trkpt lat="44.43811" lon="5.10511">
        <ele>1106.134033</ele>
        <time>2014-11-16T13:38:16Z</time>
      </trkpt>
      <trkpt lat="44.43804" lon="5.10508">
        <ele>1107.095459</ele>
        <time>2014-11-16T13:38:26Z</time>
      </trkpt>
      <trkpt lat="44.43798" lon="5.10506">
        <ele>1106.614746</ele>
        <time>2014-11-16T13:38:39Z</time>
      </trkpt>
      <trkpt lat="44.43791" lon="5.10504">
        <ele>1107.576172</ele>
        <time>2014-11-16T13:38:47Z</time>
      </trkpt>
      <trkpt lat="44.43785" lon="5.105">
        <ele>1108.056885</ele>
        <time>2014-11-16T13:38:54Z</time>
      </trkpt>
      <trkpt lat="44.43776" lon="5.10497">
        <ele>1109.018066</ele>
        <time>2014-11-16T13:39:03Z</time>
      </trkpt>
      <trkpt lat="44.43767" lon="5.10492">
        <ele>1109.498779</ele>
        <time>2014-11-16T13:39:12Z</time>
      </trkpt>
      <trkpt lat="44.4376" lon="5.10488">
        <ele>1110.459961</ele>
        <time>2014-11-16T13:39:20Z</time>
      </trkpt>
      <trkpt lat="44.43756" lon="5.10487">
        <ele>1111.421387</ele>
        <time>2014-11-16T13:39:23Z</time>
      </trkpt>
      <trkpt lat="44.43743" lon="5.10477">
        <ele>1112.382568</ele>
        <time>2014-11-16T13:39:39Z</time>
      </trkpt>
      <trkpt lat="44.43734" lon="5.10469">
        <ele>1112.863281</ele>
        <time>2014-11-16T13:39:51Z</time>
      </trkpt>
      <trkpt lat="44.43727" lon="5.10461">
        <ele>1113.343994</ele>
        <time>2014-11-16T13:40:03Z</time>
      </trkpt>
      <trkpt lat="44.43722" lon="5.10456">
        <ele>1113.343994</ele>
        <time>2014-11-16T13:40:15Z</time>
      </trkpt>
      <trkpt lat="44.43711" lon="5.10443">
        <ele>1112.863281</ele>
        <time>2014-11-16T13:40:33Z</time>
      </trkpt>
      <trkpt lat="44.43704" lon="5.10432">
        <ele>1112.382568</ele>
        <time>2014-11-16T13:40:47Z</time>
      </trkpt>
      <trkpt lat="44.43692" lon="5.10418">
        <ele>1110.940674</ele>
        <time>2014-11-16T13:41:09Z</time>
      </trkpt>
      <trkpt lat="44.43681" lon="5.1041">
        <ele>1109.018066</ele>
        <time>2014-11-16T13:41:22Z</time>
      </trkpt>
      <trkpt lat="44.43674" lon="5.10405">
        <ele>1108.056885</ele>
        <time>2014-11-16T13:41:31Z</time>
      </trkpt>
      <trkpt lat="44.43666" lon="5.104">
        <ele>1107.095459</ele>
        <time>2014-11-16T13:41:43Z</time>
      </trkpt>
      <trkpt lat="44.43657" lon="5.10395">
        <ele>1105.172852</ele>
        <time>2014-11-16T13:41:54Z</time>
      </trkpt>
      <trkpt lat="44.43646" lon="5.10388">
        <ele>1104.21167</ele>
        <time>2014-11-16T13:42:05Z</time>
      </trkpt>
      <trkpt lat="44.43638" lon="5.10383">
        <ele>1103.730957</ele>
        <time>2014-11-16T13:42:16Z</time>
      </trkpt>
      <trkpt lat="44.43631" lon="5.1038">
        <ele>1102.769531</ele>
        <time>2014-11-16T13:42:27Z</time>
      </trkpt>
      <trkpt lat="44.4362" lon="5.10375">
        <ele>1101.80835</ele>
        <time>2014-11-16T13:42:37Z</time>
      </trkpt>
      <trkpt lat="44.43611" lon="5.10371">
        <ele>1100.846924</ele>
        <time>2014-11-16T13:42:45Z</time>
      </trkpt>
      <trkpt lat="44.43602" lon="5.10367">
        <ele>1099.404785</ele>
        <time>2014-11-16T13:42:55Z</time>
      </trkpt>
      <trkpt lat="44.43588" lon="5.10355">
        <ele>1097.962891</ele>
        <time>2014-11-16T13:43:11Z</time>
      </trkpt>
      <trkpt lat="44.43579" lon="5.10345">
        <ele>1096.520996</ele>
        <time>2014-11-16T13:43:24Z</time>
      </trkpt>
      <trkpt lat="44.43575" lon="5.10338">
        <ele>1096.040283</ele>
        <time>2014-11-16T13:43:33Z</time>
      </trkpt>
      <trkpt lat="44.43572" lon="5.10334">
        <ele>1095.078857</ele>
        <time>2014-11-16T13:43:42Z</time>
      </trkpt>
      <trkpt lat="44.43572" lon="5.1033">
        <ele>1094.117676</ele>
        <time>2014-11-16T13:43:50Z</time>
      </trkpt>
      <trkpt lat="44.43571" lon="5.10329">
        <ele>1094.117676</ele>
        <time>2014-11-16T13:43:51Z</time>
      </trkpt>
      <trkpt lat="44.43566" lon="5.10324">
        <ele>1092.675781</ele>
        <time>2014-11-16T13:43:58Z</time>
      </trkpt>
      <trkpt lat="44.43564" lon="5.10321">
        <ele>1092.195068</ele>
        <time>2014-11-16T13:44:02Z</time>
      </trkpt>
      <trkpt lat="44.43561" lon="5.10316">
        <ele>1091.714355</ele>
        <time>2014-11-16T13:44:05Z</time>
      </trkpt>
      <trkpt lat="44.43552" lon="5.1031">
        <ele>1091.233643</ele>
        <time>2014-11-16T13:44:11Z</time>
      </trkpt>
      <trkpt lat="44.4355" lon="5.10309">
        <ele>1091.233643</ele>
        <time>2014-11-16T13:44:12Z</time>
      </trkpt>
      <trkpt lat="44.43547" lon="5.10307">
        <ele>1090.272461</ele>
        <time>2014-11-16T13:44:15Z</time>
      </trkpt>
      <trkpt lat="44.43543" lon="5.103">
        <ele>1089.791748</ele>
        <time>2014-11-16T13:44:19Z</time>
      </trkpt>
      <trkpt lat="44.43538" lon="5.10297">
        <ele>1088.830566</ele>
        <time>2014-11-16T13:44:24Z</time>
      </trkpt>
      <trkpt lat="44.43533" lon="5.10293">
        <ele>1087.869141</ele>
        <time>2014-11-16T13:44:29Z</time>
      </trkpt>
      <trkpt lat="44.43529" lon="5.1029">
        <ele>1086.907715</ele>
        <time>2014-11-16T13:44:35Z</time>
      </trkpt>
      <trkpt lat="44.43525" lon="5.10284">
        <ele>1085.46582</ele>
        <time>2014-11-16T13:44:43Z</time>
      </trkpt>
      <trkpt lat="44.43519" lon="5.1028">
        <ele>1084.985352</ele>
        <time>2014-11-16T13:44:52Z</time>
      </trkpt>
      <trkpt lat="44.43513" lon="5.10276">
        <ele>1084.023926</ele>
        <time>2014-11-16T13:44:59Z</time>
      </trkpt>
      <trkpt lat="44.43509" lon="5.10272">
        <ele>1084.023926</ele>
        <time>2014-11-16T13:45:06Z</time>
      </trkpt>
      <trkpt lat="44.43508" lon="5.10271">
        <ele>1083.542969</ele>
        <time>2014-11-16T13:45:08Z</time>
      </trkpt>
      <trkpt lat="44.43508" lon="5.10264">
        <ele>1082.581787</ele>
        <time>2014-11-16T13:45:12Z</time>
      </trkpt>
      <trkpt lat="44.43504" lon="5.10258">
        <ele>1081.620361</ele>
        <time>2014-11-16T13:45:18Z</time>
      </trkpt>
      <trkpt lat="44.43499" lon="5.10252">
        <ele>1080.65918</ele>
        <time>2014-11-16T13:45:25Z</time>
      </trkpt>
      <trkpt lat="44.43494" lon="5.10246">
        <ele>1079.217041</ele>
        <time>2014-11-16T13:45:32Z</time>
      </trkpt>
      <trkpt lat="44.43493" lon="5.10238">
        <ele>1077.775146</ele>
        <time>2014-11-16T13:45:40Z</time>
      </trkpt>
      <trkpt lat="44.4349" lon="5.1023">
        <ele>1075.852539</ele>
        <time>2014-11-16T13:45:48Z</time>
      </trkpt>
      <trkpt lat="44.43488" lon="5.10227">
        <ele>1075.371826</ele>
        <time>2014-11-16T13:45:51Z</time>
      </trkpt>
      <trkpt lat="44.43485" lon="5.1022">
        <ele>1074.410645</ele>
        <time>2014-11-16T13:45:56Z</time>
      </trkpt>
      <trkpt lat="44.43482" lon="5.10218">
        <ele>1074.410645</ele>
        <time>2014-11-16T13:46:00Z</time>
      </trkpt>
      <trkpt lat="44.43478" lon="5.10216">
        <ele>1073.449463</ele>
        <time>2014-11-16T13:46:04Z</time>
      </trkpt>
      <trkpt lat="44.4347" lon="5.1021">
        <ele>1072.007324</ele>
        <time>2014-11-16T13:46:15Z</time>
      </trkpt>
      <trkpt lat="44.43465" lon="5.10209">
        <ele>1071.046143</ele>
        <time>2014-11-16T13:46:20Z</time>
      </trkpt>
      <trkpt lat="44.43461" lon="5.10206">
        <ele>1070.084717</ele>
        <time>2014-11-16T13:46:25Z</time>
      </trkpt>
      <trkpt lat="44.43455" lon="5.10204">
        <ele>1069.123535</ele>
        <time>2014-11-16T13:46:33Z</time>
      </trkpt>
      <trkpt lat="44.43451" lon="5.10203">
        <ele>1068.642822</ele>
        <time>2014-11-16T13:46:36Z</time>
      </trkpt>
      <trkpt lat="44.43444" lon="5.10201">
        <ele>1068.162109</ele>
        <time>2014-11-16T13:46:42Z</time>
      </trkpt>
      <trkpt lat="44.43443" lon="5.102">
        <ele>1068.162109</ele>
        <time>2014-11-16T13:46:43Z</time>
      </trkpt>
      <trkpt lat="44.43437" lon="5.102">
        <ele>1067.681152</ele>
        <time>2014-11-16T13:46:49Z</time>
      </trkpt>
      <trkpt lat="44.43434" lon="5.102">
        <ele>1067.681152</ele>
        <time>2014-11-16T13:46:52Z</time>
      </trkpt>
      <trkpt lat="44.43429" lon="5.10202">
        <ele>1066.719971</ele>
        <time>2014-11-16T13:46:59Z</time>
      </trkpt>
      <trkpt lat="44.43425" lon="5.10202">
        <ele>1066.239258</ele>
        <time>2014-11-16T13:47:02Z</time>
      </trkpt>
      <trkpt lat="44.43417" lon="5.10201">
        <ele>1065.758789</ele>
        <time>2014-11-16T13:47:09Z</time>
      </trkpt>
      <trkpt lat="44.43414" lon="5.10202">
        <ele>1065.278076</ele>
        <time>2014-11-16T13:47:12Z</time>
      </trkpt>
      <trkpt lat="44.43407" lon="5.10202">
        <ele>1064.797363</ele>
        <time>2014-11-16T13:47:20Z</time>
      </trkpt>
      <trkpt lat="44.43404" lon="5.10202">
        <ele>1064.31665</ele>
        <time>2014-11-16T13:47:22Z</time>
      </trkpt>
      <trkpt lat="44.43396" lon="5.10202">
        <ele>1063.835938</ele>
        <time>2014-11-16T13:47:31Z</time>
      </trkpt>
      <trkpt lat="44.43395" lon="5.10202">
        <ele>1063.355469</ele>
        <time>2014-11-16T13:47:32Z</time>
      </trkpt>
      <trkpt lat="44.43387" lon="5.10199">
        <ele>1062.394043</ele>
        <time>2014-11-16T13:47:40Z</time>
      </trkpt>
      <trkpt lat="44.4338" lon="5.102">
        <ele>1061.432861</ele>
        <time>2014-11-16T13:47:47Z</time>
      </trkpt>
      <trkpt lat="44.43379" lon="5.10201">
        <ele>1061.432861</ele>
        <time>2014-11-16T13:47:48Z</time>
      </trkpt>
      <trkpt lat="44.43372" lon="5.10203">
        <ele>1059.990723</ele>
        <time>2014-11-16T13:47:55Z</time>
      </trkpt>
      <trkpt lat="44.43367" lon="5.10203">
        <ele>1059.510254</ele>
        <time>2014-11-16T13:47:59Z</time>
      </trkpt>
      <trkpt lat="44.4336" lon="5.10204">
        <ele>1058.548828</ele>
        <time>2014-11-16T13:48:06Z</time>
      </trkpt>
      <trkpt lat="44.43352" lon="5.10207">
        <ele>1057.587646</ele>
        <time>2014-11-16T13:48:15Z</time>
      </trkpt>
      <trkpt lat="44.43347" lon="5.1021">
        <ele>1056.626221</ele>
        <time>2014-11-16T13:48:21Z</time>
      </trkpt>
      <trkpt lat="44.4334" lon="5.10212">
        <ele>1055.665039</ele>
        <time>2014-11-16T13:48:30Z</time>
      </trkpt>
      <trkpt lat="44.43335" lon="5.10212">
        <ele>1054.703613</ele>
        <time>2014-11-16T13:48:36Z</time>
      </trkpt>
      <trkpt lat="44.43328" lon="5.10212">
        <ele>1053.261719</ele>
        <time>2014-11-16T13:48:44Z</time>
      </trkpt>
      <trkpt lat="44.43324" lon="5.10213">
        <ele>1052.300293</ele>
        <time>2014-11-16T13:48:50Z</time>
      </trkpt>
      <trkpt lat="44.4332" lon="5.10218">
        <ele>1051.338867</ele>
        <time>2014-11-16T13:49:00Z</time>
      </trkpt>
      <trkpt lat="44.43316" lon="5.1022">
        <ele>1050.858154</ele>
        <time>2014-11-16T13:49:07Z</time>
      </trkpt>
      <trkpt lat="44.43314" lon="5.10221">
        <ele>1049.896973</ele>
        <time>2014-11-16T13:49:12Z</time>
      </trkpt>
      <trkpt lat="44.43313" lon="5.10222">
        <ele>1049.41626</ele>
        <time>2014-11-16T13:49:14Z</time>
      </trkpt>
      <trkpt lat="44.43305" lon="5.10228">
        <ele>1049.41626</ele>
        <time>2014-11-16T13:49:24Z</time>
      </trkpt>
      <trkpt lat="44.43302" lon="5.10231">
        <ele>1048.935547</ele>
        <time>2014-11-16T13:49:28Z</time>
      </trkpt>
      <trkpt lat="44.433" lon="5.10235">
        <ele>1048.454834</ele>
        <time>2014-11-16T13:49:35Z</time>
      </trkpt>
      <trkpt lat="44.43295" lon="5.10238">
        <ele>1047.974365</ele>
        <time>2014-11-16T13:49:42Z</time>
      </trkpt>
      <trkpt lat="44.43293" lon="5.10238">
        <ele>1047.493652</ele>
        <time>2014-11-16T13:49:45Z</time>
      </trkpt>
      <trkpt lat="44.43283" lon="5.10244">
        <ele>1047.012939</ele>
        <time>2014-11-16T13:49:56Z</time>
      </trkpt>
      <trkpt lat="44.43276" lon="5.1026">
        <ele>1045.571045</ele>
        <time>2014-11-16T13:50:09Z</time>
      </trkpt>
      <trkpt lat="44.43272" lon="5.10276">
        <ele>1044.12915</ele>
        <time>2014-11-16T13:50:23Z</time>
      </trkpt>
      <trkpt lat="44.43266" lon="5.10293">
        <ele>1042.687256</ele>
        <time>2014-11-16T13:50:38Z</time>
      </trkpt>
      <trkpt lat="44.43259" lon="5.10308">
        <ele>1041.245117</ele>
        <time>2014-11-16T13:50:52Z</time>
      </trkpt>
      <trkpt lat="44.43255" lon="5.10308">
        <ele>1041.245117</ele>
        <time>2014-11-16T13:51:00Z</time>
      </trkpt>
      <trkpt lat="44.43256" lon="5.10313">
        <ele>1040.764404</ele>
        <time>2014-11-16T13:51:03Z</time>
      </trkpt>
      <trkpt lat="44.43254" lon="5.10325">
        <ele>1040.283936</ele>
        <time>2014-11-16T13:51:11Z</time>
      </trkpt>
      <trkpt lat="44.43253" lon="5.10333">
        <ele>1040.283936</ele>
        <time>2014-11-16T13:51:17Z</time>
      </trkpt>
      <trkpt lat="44.43249" lon="5.10347">
        <ele>1039.32251</ele>
        <time>2014-11-16T13:51:27Z</time>
      </trkpt>
      <trkpt lat="44.43245" lon="5.10358">
        <ele>1038.361328</ele>
        <time>2014-11-16T13:51:35Z</time>
      </trkpt>
      <trkpt lat="44.43241" lon="5.10362">
        <ele>1037.399902</ele>
        <time>2014-11-16T13:51:42Z</time>
      </trkpt>
      <trkpt lat="44.4324" lon="5.10363">
        <ele>1037.399902</ele>
        <time>2014-11-16T13:51:43Z</time>
      </trkpt>
      <trkpt lat="44.43232" lon="5.10372">
        <ele>1036.438721</ele>
        <time>2014-11-16T13:51:51Z</time>
      </trkpt>
      <trkpt lat="44.4322" lon="5.10388">
        <ele>1034.996582</ele>
        <time>2014-11-16T13:52:03Z</time>
      </trkpt>
      <trkpt lat="44.43207" lon="5.10402">
        <ele>1034.035156</ele>
        <time>2014-11-16T13:52:15Z</time>
      </trkpt>
      <trkpt lat="44.43198" lon="5.10417">
        <ele>1033.07373</ele>
        <time>2014-11-16T13:52:27Z</time>
      </trkpt>
      <trkpt lat="44.43189" lon="5.10434">
        <ele>1031.631836</ele>
        <time>2014-11-16T13:52:40Z</time>
      </trkpt>
      <trkpt lat="44.43183" lon="5.10449">
        <ele>1030.670654</ele>
        <time>2014-11-16T13:52:49Z</time>
      </trkpt>
      <trkpt lat="44.43178" lon="5.10462">
        <ele>1030.670654</ele>
        <time>2014-11-16T13:52:58Z</time>
      </trkpt>
      <trkpt lat="44.43171" lon="5.1048">
        <ele>1030.189941</ele>
        <time>2014-11-16T13:53:09Z</time>
      </trkpt>
      <trkpt lat="44.43168" lon="5.10487">
        <ele>1030.189941</ele>
        <time>2014-11-16T13:53:15Z</time>
      </trkpt>
      <trkpt lat="44.43166" lon="5.10492">
        <ele>1030.189941</ele>
        <time>2014-11-16T13:53:24Z</time>
      </trkpt>
      <trkpt lat="44.43165" lon="5.10494">
        <ele>1030.189941</ele>
        <time>2014-11-16T13:53:32Z</time>
      </trkpt>
      <trkpt lat="44.43164" lon="5.10498">
        <ele>1030.670654</ele>
        <time>2014-11-16T13:53:45Z</time>
      </trkpt>
      <trkpt lat="44.43163" lon="5.10501">
        <ele>1030.189941</ele>
        <time>2014-11-16T13:53:55Z</time>
      </trkpt>
      <trkpt lat="44.4316" lon="5.10505">
        <ele>1029.228516</ele>
        <time>2014-11-16T13:54:26Z</time>
      </trkpt>
      <trkpt lat="44.43158" lon="5.10508">
        <ele>1028.267334</ele>
        <time>2014-11-16T13:54:39Z</time>
      </trkpt>
      <trkpt lat="44.43157" lon="5.10512">
        <ele>1027.306152</ele>
        <time>2014-11-16T13:54:56Z</time>
      </trkpt>
      <trkpt lat="44.43155" lon="5.10515">
        <ele>1025.864014</ele>
        <time>2014-11-16T13:55:05Z</time>
      </trkpt>
      <trkpt lat="44.43153" lon="5.10516">
        <ele>1025.383301</ele>
        <time>2014-11-16T13:55:14Z</time>
      </trkpt>
      <trkpt lat="44.43153" lon="5.10516">
        <ele>1024.902832</ele>
        <time>2014-11-16T13:55:37Z</time>
      </trkpt>
      <trkpt lat="44.4315" lon="5.10517">
        <ele>1023.460938</ele>
        <time>2014-11-16T13:55:46Z</time>
      </trkpt>
      <trkpt lat="44.43144" lon="5.10519">
        <ele>1022.499512</ele>
        <time>2014-11-16T13:55:55Z</time>
      </trkpt>
      <trkpt lat="44.43139" lon="5.10523">
        <ele>1022.018799</ele>
        <time>2014-11-16T13:56:03Z</time>
      </trkpt>
      <trkpt lat="44.43134" lon="5.10527">
        <ele>1021.538086</ele>
        <time>2014-11-16T13:56:10Z</time>
      </trkpt>
      <trkpt lat="44.43129" lon="5.1053">
        <ele>1020.576904</ele>
        <time>2014-11-16T13:56:18Z</time>
      </trkpt>
      <trkpt lat="44.43126" lon="5.10529">
        <ele>1019.615479</ele>
        <time>2014-11-16T13:56:28Z</time>
      </trkpt>
      <trkpt lat="44.43124" lon="5.10529">
        <ele>1019.134766</ele>
        <time>2014-11-16T13:56:45Z</time>
      </trkpt>
      <trkpt lat="44.43121" lon="5.10528">
        <ele>1017.692627</ele>
        <time>2014-11-16T13:56:56Z</time>
      </trkpt>
      <trkpt lat="44.43118" lon="5.10528">
        <ele>1016.731445</ele>
        <time>2014-11-16T13:57:04Z</time>
      </trkpt>
      <trkpt lat="44.43116" lon="5.10528">
        <ele>1016.731445</ele>
        <time>2014-11-16T13:57:15Z</time>
      </trkpt>
      <trkpt lat="44.43114" lon="5.10527">
        <ele>1015.770264</ele>
        <time>2014-11-16T13:57:59Z</time>
      </trkpt>
      <trkpt lat="44.43116" lon="5.10526">
        <ele>1016.250732</ele>
        <time>2014-11-16T13:58:20Z</time>
      </trkpt>
      <trkpt lat="44.43118" lon="5.10526">
        <ele>1017.212158</ele>
        <time>2014-11-16T13:58:27Z</time>
      </trkpt>
      <trkpt lat="44.43122" lon="5.10529">
        <ele>1018.654053</ele>
        <time>2014-11-16T13:58:33Z</time>
      </trkpt>
      <trkpt lat="44.43124" lon="5.10531">
        <ele>1019.134766</ele>
        <time>2014-11-16T13:58:40Z</time>
      </trkpt>
      <trkpt lat="44.43124" lon="5.1053">
        <ele>1019.134766</ele>
        <time>2014-11-16T13:58:49Z</time>
      </trkpt>
      <trkpt lat="44.43124" lon="5.1053">
        <ele>1019.615479</ele>
        <time>2014-11-16T13:58:58Z</time>
      </trkpt>
      <trkpt lat="44.43124" lon="5.1053">
        <ele>1019.134766</ele>
        <time>2014-11-16T13:59:42Z</time>
      </trkpt>
      <trkpt lat="44.43128" lon="5.10527">
        <ele>1020.576904</ele>
        <time>2014-11-16T13:59:55Z</time>
      </trkpt>
      <trkpt lat="44.43131" lon="5.10527">
        <ele>1021.057617</ele>
        <time>2014-11-16T14:00:00Z</time>
      </trkpt>
      <trkpt lat="44.43136" lon="5.10522">
        <ele>1021.057617</ele>
        <time>2014-11-16T14:00:07Z</time>
      </trkpt>
      <trkpt lat="44.43138" lon="5.10519">
        <ele>1021.538086</ele>
        <time>2014-11-16T14:00:13Z</time>
      </trkpt>
      <trkpt lat="44.43141" lon="5.10518">
        <ele>1022.018799</ele>
        <time>2014-11-16T14:00:18Z</time>
      </trkpt>
      <trkpt lat="44.43144" lon="5.10519">
        <ele>1022.018799</ele>
        <time>2014-11-16T14:00:25Z</time>
      </trkpt>
      <trkpt lat="44.43146" lon="5.10519">
        <ele>1022.499512</ele>
        <time>2014-11-16T14:00:32Z</time>
      </trkpt>
      <trkpt lat="44.43151" lon="5.10517">
        <ele>1023.941406</ele>
        <time>2014-11-16T14:00:41Z</time>
      </trkpt>
      <trkpt lat="44.43155" lon="5.10517">
        <ele>1025.864014</ele>
        <time>2014-11-16T14:00:49Z</time>
      </trkpt>
      <trkpt lat="44.43157" lon="5.10514">
        <ele>1027.306152</ele>
        <time>2014-11-16T14:00:58Z</time>
      </trkpt>
      <trkpt lat="44.43159" lon="5.1051">
        <ele>1028.267334</ele>
        <time>2014-11-16T14:01:04Z</time>
      </trkpt>
      <trkpt lat="44.43162" lon="5.10505">
        <ele>1029.228516</ele>
        <time>2014-11-16T14:01:12Z</time>
      </trkpt>
      <trkpt lat="44.43164" lon="5.10503">
        <ele>1029.709229</ele>
        <time>2014-11-16T14:01:18Z</time>
      </trkpt>
      <trkpt lat="44.43165" lon="5.10496">
        <ele>1029.709229</ele>
        <time>2014-11-16T14:01:26Z</time>
      </trkpt>
      <trkpt lat="44.43165" lon="5.1049">
        <ele>1029.228516</ele>
        <time>2014-11-16T14:01:33Z</time>
      </trkpt>
      <trkpt lat="44.43169" lon="5.10482">
        <ele>1029.709229</ele>
        <time>2014-11-16T14:01:41Z</time>
      </trkpt>
      <trkpt lat="44.4317" lon="5.1048">
        <ele>1029.709229</ele>
        <time>2014-11-16T14:01:47Z</time>
      </trkpt>
      <trkpt lat="44.4317" lon="5.1048">
        <ele>1029.709229</ele>
        <time>2014-11-16T14:02:04Z</time>
      </trkpt>
      <trkpt lat="44.43171" lon="5.10479">
        <ele>1029.228516</ele>
        <time>2014-11-16T14:02:08Z</time>
      </trkpt>
      <trkpt lat="44.43175" lon="5.10468">
        <ele>1030.189941</ele>
        <time>2014-11-16T14:02:18Z</time>
      </trkpt>
      <trkpt lat="44.43182" lon="5.10449">
        <ele>1030.189941</ele>
        <time>2014-11-16T14:02:32Z</time>
      </trkpt>
      <trkpt lat="44.43187" lon="5.10436">
        <ele>1030.670654</ele>
        <time>2014-11-16T14:02:44Z</time>
      </trkpt>
      <trkpt lat="44.43194" lon="5.10422">
        <ele>1031.151367</ele>
        <time>2014-11-16T14:02:59Z</time>
      </trkpt>
      <trkpt lat="44.43197" lon="5.10416">
        <ele>1031.631836</ele>
        <time>2014-11-16T14:03:09Z</time>
      </trkpt>
      <trkpt lat="44.43205" lon="5.10405">
        <ele>1032.112549</ele>
        <time>2014-11-16T14:03:22Z</time>
      </trkpt>
      <trkpt lat="44.43218" lon="5.10389">
        <ele>1033.554443</ele>
        <time>2014-11-16T14:03:37Z</time>
      </trkpt>
      <trkpt lat="44.43233" lon="5.1037">
        <ele>1035.477051</ele>
        <time>2014-11-16T14:03:55Z</time>
      </trkpt>
      <trkpt lat="44.43245" lon="5.10353">
        <ele>1036.438721</ele>
        <time>2014-11-16T14:04:11Z</time>
      </trkpt>
      <trkpt lat="44.4325" lon="5.10341">
        <ele>1037.880615</ele>
        <time>2014-11-16T14:04:22Z</time>
      </trkpt>
      <trkpt lat="44.43255" lon="5.10325">
        <ele>1038.842041</ele>
        <time>2014-11-16T14:04:35Z</time>
      </trkpt>
      <trkpt lat="44.43259" lon="5.10308">
        <ele>1040.283936</ele>
        <time>2014-11-16T14:04:48Z</time>
      </trkpt>
      <trkpt lat="44.43266" lon="5.1029">
        <ele>1041.245117</ele>
        <time>2014-11-16T14:05:02Z</time>
      </trkpt>
      <trkpt lat="44.4327" lon="5.10278">
        <ele>1042.206543</ele>
        <time>2014-11-16T14:05:13Z</time>
      </trkpt>
      <trkpt lat="44.43272" lon="5.10269">
        <ele>1043.167725</ele>
        <time>2014-11-16T14:05:26Z</time>
      </trkpt>
      <trkpt lat="44.43277" lon="5.10252">
        <ele>1044.609619</ele>
        <time>2014-11-16T14:05:39Z</time>
      </trkpt>
      <trkpt lat="44.43281" lon="5.10243">
        <ele>1045.090332</ele>
        <time>2014-11-16T14:05:48Z</time>
      </trkpt>
      <trkpt lat="44.43291" lon="5.10233">
        <ele>1046.532471</ele>
        <time>2014-11-16T14:06:00Z</time>
      </trkpt>
      <trkpt lat="44.43293" lon="5.10232">
        <ele>1046.051758</ele>
        <time>2014-11-16T14:06:08Z</time>
      </trkpt>
      <trkpt lat="44.43295" lon="5.10232">
        <ele>1046.051758</ele>
        <time>2014-11-16T14:06:21Z</time>
      </trkpt>
      <trkpt lat="44.43297" lon="5.10231">
        <ele>1046.051758</ele>
        <time>2014-11-16T14:06:32Z</time>
      </trkpt>
      <trkpt lat="44.43297" lon="5.10227">
        <ele>1044.609619</ele>
        <time>2014-11-16T14:06:41Z</time>
      </trkpt>
      <trkpt lat="44.43296" lon="5.10222">
        <ele>1043.648438</ele>
        <time>2014-11-16T14:06:49Z</time>
      </trkpt>
      <trkpt lat="44.43296" lon="5.10215">
        <ele>1041.245117</ele>
        <time>2014-11-16T14:06:58Z</time>
      </trkpt>
      <trkpt lat="44.43294" lon="5.10211">
        <ele>1039.32251</ele>
        <time>2014-11-16T14:07:05Z</time>
      </trkpt>
      <trkpt lat="44.4329" lon="5.10215">
        <ele>1037.399902</ele>
        <time>2014-11-16T14:07:12Z</time>
      </trkpt>
      <trkpt lat="44.43284" lon="5.10218">
        <ele>1036.438721</ele>
        <time>2014-11-16T14:07:19Z</time>
      </trkpt>
      <trkpt lat="44.43283" lon="5.10219">
        <ele>1035.957764</ele>
        <time>2014-11-16T14:07:21Z</time>
      </trkpt>
      <trkpt lat="44.43278" lon="5.10221">
        <ele>1034.996582</ele>
        <time>2014-11-16T14:07:28Z</time>
      </trkpt>
      <trkpt lat="44.4327" lon="5.10226">
        <ele>1033.07373</ele>
        <time>2014-11-16T14:07:37Z</time>
      </trkpt>
      <trkpt lat="44.43259" lon="5.10231">
        <ele>1030.670654</ele>
        <time>2014-11-16T14:07:49Z</time>
      </trkpt>
      <trkpt lat="44.43256" lon="5.10232">
        <ele>1029.709229</ele>
        <time>2014-11-16T14:07:53Z</time>
      </trkpt>
      <trkpt lat="44.43251" lon="5.10238">
        <ele>1028.267334</ele>
        <time>2014-11-16T14:08:02Z</time>
      </trkpt>
      <trkpt lat="44.4325" lon="5.10242">
        <ele>1027.306152</ele>
        <time>2014-11-16T14:08:10Z</time>
      </trkpt>
      <trkpt lat="44.43248" lon="5.10247">
        <ele>1025.383301</ele>
        <time>2014-11-16T14:08:17Z</time>
      </trkpt>
      <trkpt lat="44.43244" lon="5.10247">
        <ele>1023.941406</ele>
        <time>2014-11-16T14:08:24Z</time>
      </trkpt>
      <trkpt lat="44.43242" lon="5.10252">
        <ele>1021.057617</ele>
        <time>2014-11-16T14:08:34Z</time>
      </trkpt>
      <trkpt lat="44.43238" lon="5.10258">
        <ele>1018.654053</ele>
        <time>2014-11-16T14:08:44Z</time>
      </trkpt>
      <trkpt lat="44.43235" lon="5.10264">
        <ele>1016.731445</ele>
        <time>2014-11-16T14:08:52Z</time>
      </trkpt>
      <trkpt lat="44.4323" lon="5.10272">
        <ele>1015.289551</ele>
        <time>2014-11-16T14:09:01Z</time>
      </trkpt>
      <trkpt lat="44.43225" lon="5.10276">
        <ele>1012.88623</ele>
        <time>2014-11-16T14:09:11Z</time>
      </trkpt>
      <trkpt lat="44.43224" lon="5.1028">
        <ele>1012.88623</ele>
        <time>2014-11-16T14:09:18Z</time>
      </trkpt>
      <trkpt lat="44.43221" lon="5.10284">
        <ele>1011.925049</ele>
        <time>2014-11-16T14:09:25Z</time>
      </trkpt>
      <trkpt lat="44.4322" lon="5.10287">
        <ele>1011.444336</ele>
        <time>2014-11-16T14:09:33Z</time>
      </trkpt>
      <trkpt lat="44.4322" lon="5.10286">
        <ele>1011.444336</ele>
        <time>2014-11-16T14:09:48Z</time>
      </trkpt>
      <trkpt lat="44.43217" lon="5.10286">
        <ele>1010.963623</ele>
        <time>2014-11-16T14:11:13Z</time>
      </trkpt>
      <trkpt lat="44.43212" lon="5.10294">
        <ele>1008.079834</ele>
        <time>2014-11-16T14:11:25Z</time>
      </trkpt>
      <trkpt lat="44.43208" lon="5.10302">
        <ele>1006.156982</ele>
        <time>2014-11-16T14:11:34Z</time>
      </trkpt>
      <trkpt lat="44.43204" lon="5.10309">
        <ele>1004.234619</ele>
        <time>2014-11-16T14:11:43Z</time>
      </trkpt>
      <trkpt lat="44.43199" lon="5.10316">
        <ele>1001.350342</ele>
        <time>2014-11-16T14:11:54Z</time>
      </trkpt>
      <trkpt lat="44.43191" lon="5.10318">
        <ele>998.466309</ele>
        <time>2014-11-16T14:12:07Z</time>
      </trkpt>
      <trkpt lat="44.43185" lon="5.10323">
        <ele>995.58252</ele>
        <time>2014-11-16T14:12:18Z</time>
      </trkpt>
      <trkpt lat="44.43178" lon="5.10327">
        <ele>994.140625</ele>
        <time>2014-11-16T14:12:29Z</time>
      </trkpt>
      <trkpt lat="44.43173" lon="5.1033">
        <ele>992.218018</ele>
        <time>2014-11-16T14:12:39Z</time>
      </trkpt>
      <trkpt lat="44.43165" lon="5.10334">
        <ele>989.333984</ele>
        <time>2014-11-16T14:12:52Z</time>
      </trkpt>
      <trkpt lat="44.43159" lon="5.10338">
        <ele>987.411133</ele>
        <time>2014-11-16T14:13:03Z</time>
      </trkpt>
      <trkpt lat="44.43157" lon="5.10338">
        <ele>987.411133</ele>
        <time>2014-11-16T14:13:11Z</time>
      </trkpt>
      <trkpt lat="44.43153" lon="5.10341">
        <ele>986.449951</ele>
        <time>2014-11-16T14:14:22Z</time>
      </trkpt>
      <trkpt lat="44.43149" lon="5.10345">
        <ele>985.008057</ele>
        <time>2014-11-16T14:14:31Z</time>
      </trkpt>
      <trkpt lat="44.4314" lon="5.10355">
        <ele>984.527344</ele>
        <time>2014-11-16T14:14:43Z</time>
      </trkpt>
      <trkpt lat="44.43131" lon="5.10361">
        <ele>982.124023</ele>
        <time>2014-11-16T14:14:56Z</time>
      </trkpt>
      <trkpt lat="44.43121" lon="5.10367">
        <ele>979.23999</ele>
        <time>2014-11-16T14:15:10Z</time>
      </trkpt>
      <trkpt lat="44.43115" lon="5.10369">
        <ele>977.317627</ele>
        <time>2014-11-16T14:15:21Z</time>
      </trkpt>
      <trkpt lat="44.43112" lon="5.10371">
        <ele>975.875488</ele>
        <time>2014-11-16T14:15:30Z</time>
      </trkpt>
      <trkpt lat="44.43109" lon="5.10369">
        <ele>973.952881</ele>
        <time>2014-11-16T14:15:40Z</time>
      </trkpt>
      <trkpt lat="44.431" lon="5.10371">
        <ele>970.588135</ele>
        <time>2014-11-16T14:15:55Z</time>
      </trkpt>
      <trkpt lat="44.43097" lon="5.10373">
        <ele>969.14624</ele>
        <time>2014-11-16T14:16:06Z</time>
      </trkpt>
      <trkpt lat="44.43088" lon="5.10375">
        <ele>966.262207</ele>
        <time>2014-11-16T14:16:20Z</time>
      </trkpt>
      <trkpt lat="44.43083" lon="5.10382">
        <ele>963.858887</ele>
        <time>2014-11-16T14:16:33Z</time>
      </trkpt>
      <trkpt lat="44.43079" lon="5.10385">
        <ele>962.897705</ele>
        <time>2014-11-16T14:16:40Z</time>
      </trkpt>
      <trkpt lat="44.43073" lon="5.10389">
        <ele>960.494385</ele>
        <time>2014-11-16T14:16:51Z</time>
      </trkpt>
      <trkpt lat="44.43068" lon="5.10391">
        <ele>959.05249</ele>
        <time>2014-11-16T14:16:58Z</time>
      </trkpt>
      <trkpt lat="44.43063" lon="5.10397">
        <ele>958.091309</ele>
        <time>2014-11-16T14:17:10Z</time>
      </trkpt>
      <trkpt lat="44.43057" lon="5.10401">
        <ele>956.168457</ele>
        <time>2014-11-16T14:17:20Z</time>
      </trkpt>
      <trkpt lat="44.43054" lon="5.10402">
        <ele>956.168457</ele>
        <time>2014-11-16T14:17:23Z</time>
      </trkpt>
      <trkpt lat="44.43042" lon="5.1041">
        <ele>954.24585</ele>
        <time>2014-11-16T14:17:36Z</time>
      </trkpt>
      <trkpt lat="44.43031" lon="5.10413">
        <ele>952.803711</ele>
        <time>2014-11-16T14:17:47Z</time>
      </trkpt>
      <trkpt lat="44.43022" lon="5.10412">
        <ele>950.400635</ele>
        <time>2014-11-16T14:17:59Z</time>
      </trkpt>
      <trkpt lat="44.43014" lon="5.10411">
        <ele>948.477783</ele>
        <time>2014-11-16T14:18:07Z</time>
      </trkpt>
      <trkpt lat="44.43009" lon="5.10408">
        <ele>947.035889</ele>
        <time>2014-11-16T14:18:14Z</time>
      </trkpt>
      <trkpt lat="44.43003" lon="5.10407">
        <ele>943.671387</ele>
        <time>2014-11-16T14:18:26Z</time>
      </trkpt>
      <trkpt lat="44.42997" lon="5.10403">
        <ele>942.229492</ele>
        <time>2014-11-16T14:18:34Z</time>
      </trkpt>
      <trkpt lat="44.42989" lon="5.10399">
        <ele>940.306885</ele>
        <time>2014-11-16T14:18:45Z</time>
      </trkpt>
      <trkpt lat="44.42985" lon="5.10397">
        <ele>938.864746</ele>
        <time>2014-11-16T14:18:53Z</time>
      </trkpt>
      <trkpt lat="44.42983" lon="5.10395">
        <ele>938.384033</ele>
        <time>2014-11-16T14:19:08Z</time>
      </trkpt>
      <trkpt lat="44.42978" lon="5.10391">
        <ele>935.980713</ele>
        <time>2014-11-16T14:19:18Z</time>
      </trkpt>
      <trkpt lat="44.42973" lon="5.10386">
        <ele>934.538818</ele>
        <time>2014-11-16T14:19:28Z</time>
      </trkpt>
      <trkpt lat="44.42967" lon="5.10384">
        <ele>932.616211</ele>
        <time>2014-11-16T14:19:38Z</time>
      </trkpt>
      <trkpt lat="44.4296" lon="5.1038">
        <ele>930.212891</ele>
        <time>2014-11-16T14:19:50Z</time>
      </trkpt>
      <trkpt lat="44.42951" lon="5.10377">
        <ele>927.80957</ele>
        <time>2014-11-16T14:20:04Z</time>
      </trkpt>
      <trkpt lat="44.42944" lon="5.10373">
        <ele>926.367676</ele>
        <time>2014-11-16T14:20:15Z</time>
      </trkpt>
      <trkpt lat="44.42936" lon="5.1037">
        <ele>923.964111</ele>
        <time>2014-11-16T14:20:28Z</time>
      </trkpt>
      <trkpt lat="44.42928" lon="5.10365">
        <ele>920.599609</ele>
        <time>2014-11-16T14:20:42Z</time>
      </trkpt>
      <trkpt lat="44.42915" lon="5.10363">
        <ele>917.715576</ele>
        <time>2014-11-16T14:20:59Z</time>
      </trkpt>
      <trkpt lat="44.42904" lon="5.10362">
        <ele>916.273682</ele>
        <time>2014-11-16T14:21:12Z</time>
      </trkpt>
      <trkpt lat="44.42899" lon="5.1036">
        <ele>914.831787</ele>
        <time>2014-11-16T14:21:19Z</time>
      </trkpt>
      <trkpt lat="44.42893" lon="5.10356">
        <ele>912.428467</ele>
        <time>2014-11-16T14:21:32Z</time>
      </trkpt>
      <trkpt lat="44.4289" lon="5.10354">
        <ele>910.986572</ele>
        <time>2014-11-16T14:21:38Z</time>
      </trkpt>
      <trkpt lat="44.42879" lon="5.10357">
        <ele>910.025146</ele>
        <time>2014-11-16T14:21:51Z</time>
      </trkpt>
      <trkpt lat="44.42867" lon="5.10355">
        <ele>907.141113</ele>
        <time>2014-11-16T14:22:05Z</time>
      </trkpt>
      <trkpt lat="44.42857" lon="5.10352">
        <ele>905.699219</ele>
        <time>2014-11-16T14:22:16Z</time>
      </trkpt>
      <trkpt lat="44.42846" lon="5.10349">
        <ele>904.257324</ele>
        <time>2014-11-16T14:22:30Z</time>
      </trkpt>
      <trkpt lat="44.42836" lon="5.10345">
        <ele>900.892578</ele>
        <time>2014-11-16T14:22:44Z</time>
      </trkpt>
      <trkpt lat="44.42827" lon="5.1034">
        <ele>898.008789</ele>
        <time>2014-11-16T14:23:01Z</time>
      </trkpt>
      <trkpt lat="44.42823" lon="5.10338">
        <ele>897.047363</ele>
        <time>2014-11-16T14:23:11Z</time>
      </trkpt>
      <trkpt lat="44.42819" lon="5.10335">
        <ele>895.605469</ele>
        <time>2014-11-16T14:23:20Z</time>
      </trkpt>
      <trkpt lat="44.42813" lon="5.10331">
        <ele>893.682861</ele>
        <time>2014-11-16T14:23:32Z</time>
      </trkpt>
      <trkpt lat="44.42812" lon="5.10332">
        <ele>893.682861</ele>
        <time>2014-11-16T14:23:49Z</time>
      </trkpt>
      <trkpt lat="44.42808" lon="5.10335">
        <ele>893.682861</ele>
        <time>2014-11-16T14:24:55Z</time>
      </trkpt>
      <trkpt lat="44.42803" lon="5.10338">
        <ele>893.682861</ele>
        <time>2014-11-16T14:25:08Z</time>
      </trkpt>
      <trkpt lat="44.42795" lon="5.10343">
        <ele>893.202148</ele>
        <time>2014-11-16T14:25:21Z</time>
      </trkpt>
      <trkpt lat="44.42785" lon="5.1035">
        <ele>892.72168</ele>
        <time>2014-11-16T14:25:35Z</time>
      </trkpt>
      <trkpt lat="44.42789" lon="5.10346">
        <ele>892.240967</ele>
        <time>2014-11-16T14:25:42Z</time>
      </trkpt>
      <trkpt lat="44.42801" lon="5.10339">
        <ele>893.202148</ele>
        <time>2014-11-16T14:25:55Z</time>
      </trkpt>
      <trkpt lat="44.42811" lon="5.10334">
        <ele>893.682861</ele>
        <time>2014-11-16T14:26:07Z</time>
      </trkpt>
      <trkpt lat="44.42811" lon="5.10333">
        <ele>893.202148</ele>
        <time>2014-11-16T14:26:18Z</time>
      </trkpt>
      <trkpt lat="44.42813" lon="5.10334">
        <ele>893.682861</ele>
        <time>2014-11-16T14:26:31Z</time>
      </trkpt>
      <trkpt lat="44.42822" lon="5.1034">
        <ele>896.566895</ele>
        <time>2014-11-16T14:26:43Z</time>
      </trkpt>
      <trkpt lat="44.42831" lon="5.10345">
        <ele>898.969971</ele>
        <time>2014-11-16T14:26:55Z</time>
      </trkpt>
      <trkpt lat="44.42839" lon="5.1035">
        <ele>901.854004</ele>
        <time>2014-11-16T14:27:07Z</time>
      </trkpt>
      <trkpt lat="44.42843" lon="5.10353">
        <ele>903.295898</ele>
        <time>2014-11-16T14:27:21Z</time>
      </trkpt>
      <trkpt lat="44.42849" lon="5.10355">
        <ele>905.218506</ele>
        <time>2014-11-16T14:27:30Z</time>
      </trkpt>
      <trkpt lat="44.42857" lon="5.10357">
        <ele>906.179688</ele>
        <time>2014-11-16T14:27:38Z</time>
      </trkpt>
      <trkpt lat="44.42864" lon="5.10358">
        <ele>907.621826</ele>
        <time>2014-11-16T14:27:46Z</time>
      </trkpt>
      <trkpt lat="44.42872" lon="5.1036">
        <ele>909.063965</ele>
        <time>2014-11-16T14:27:58Z</time>
      </trkpt>
      <trkpt lat="44.42868" lon="5.1036">
        <ele>907.621826</ele>
        <time>2014-11-16T14:28:07Z</time>
      </trkpt>
      <trkpt lat="44.42859" lon="5.10356">
        <ele>906.179688</ele>
        <time>2014-11-16T14:28:19Z</time>
      </trkpt>
      <trkpt lat="44.42854" lon="5.10355">
        <ele>905.699219</ele>
        <time>2014-11-16T14:28:25Z</time>
      </trkpt>
      <trkpt lat="44.42845" lon="5.10356">
        <ele>904.737793</ele>
        <time>2014-11-16T14:28:34Z</time>
      </trkpt>
      <trkpt lat="44.42842" lon="5.10357">
        <ele>904.257324</ele>
        <time>2014-11-16T14:28:44Z</time>
      </trkpt>
      <trkpt lat="44.42843" lon="5.10356">
        <ele>904.737793</ele>
        <time>2014-11-16T14:28:57Z</time>
      </trkpt>
      <trkpt lat="44.42844" lon="5.10356">
        <ele>904.737793</ele>
        <time>2014-11-16T14:29:12Z</time>
      </trkpt>
      <trkpt lat="44.42844" lon="5.10357">
        <ele>904.257324</ele>
        <time>2014-11-16T14:29:21Z</time>
      </trkpt>
      <trkpt lat="44.42841" lon="5.1036">
        <ele>905.218506</ele>
        <time>2014-11-16T14:29:28Z</time>
      </trkpt>
      <trkpt lat="44.42839" lon="5.10358">
        <ele>903.776611</ele>
        <time>2014-11-16T14:29:36Z</time>
      </trkpt>
      <trkpt lat="44.42834" lon="5.10362">
        <ele>904.257324</ele>
        <time>2014-11-16T14:29:43Z</time>
      </trkpt>
      <trkpt lat="44.4283" lon="5.10362">
        <ele>903.776611</ele>
        <time>2014-11-16T14:29:51Z</time>
      </trkpt>
      <trkpt lat="44.42826" lon="5.10366">
        <ele>904.257324</ele>
        <time>2014-11-16T14:30:00Z</time>
      </trkpt>
      <trkpt lat="44.42826" lon="5.10366">
        <ele>904.737793</ele>
        <time>2014-11-16T14:30:01Z</time>
      </trkpt>
      <trkpt lat="44.42821" lon="5.10366">
        <ele>904.257324</ele>
        <time>2014-11-16T14:30:08Z</time>
      </trkpt>
      <trkpt lat="44.42818" lon="5.10367">
        <ele>904.257324</ele>
        <time>2014-11-16T14:30:11Z</time>
      </trkpt>
      <trkpt lat="44.42813" lon="5.10369">
        <ele>904.737793</ele>
        <time>2014-11-16T14:30:19Z</time>
      </trkpt>
      <trkpt lat="44.42811" lon="5.10369">
        <ele>904.257324</ele>
        <time>2014-11-16T14:30:22Z</time>
      </trkpt>
      <trkpt lat="44.42809" lon="5.1037">
        <ele>903.776611</ele>
        <time>2014-11-16T14:30:30Z</time>
      </trkpt>
      <trkpt lat="44.4281" lon="5.10365">
        <ele>902.815186</ele>
        <time>2014-11-16T14:30:40Z</time>
      </trkpt>
      <trkpt lat="44.4281" lon="5.10361">
        <ele>901.373291</ele>
        <time>2014-11-16T14:30:49Z</time>
      </trkpt>
      <trkpt lat="44.4281" lon="5.10358">
        <ele>900.412109</ele>
        <time>2014-11-16T14:30:57Z</time>
      </trkpt>
      <trkpt lat="44.4281" lon="5.10355">
        <ele>898.969971</ele>
        <time>2014-11-16T14:31:04Z</time>
      </trkpt>
      <trkpt lat="44.4281" lon="5.10351">
        <ele>898.008789</ele>
        <time>2014-11-16T14:31:10Z</time>
      </trkpt>
      <trkpt lat="44.42809" lon="5.10348">
        <ele>897.528076</ele>
        <time>2014-11-16T14:31:19Z</time>
      </trkpt>
      <trkpt lat="44.4281" lon="5.10345">
        <ele>895.605469</ele>
        <time>2014-11-16T14:31:31Z</time>
      </trkpt>
      <trkpt lat="44.4281" lon="5.10342">
        <ele>894.644043</ele>
        <time>2014-11-16T14:31:43Z</time>
      </trkpt>
      <trkpt lat="44.42811" lon="5.10339">
        <ele>893.202148</ele>
        <time>2014-11-16T14:31:48Z</time>
      </trkpt>
      <trkpt lat="44.42812" lon="5.10337">
        <ele>893.682861</ele>
        <time>2014-11-16T14:31:54Z</time>
      </trkpt>
      <trkpt lat="44.42811" lon="5.10336">
        <ele>893.202148</ele>
        <time>2014-11-16T14:32:06Z</time>
      </trkpt>
      <trkpt lat="44.4281" lon="5.10334">
        <ele>892.240967</ele>
        <time>2014-11-16T14:32:52Z</time>
      </trkpt>
      <trkpt lat="44.42807" lon="5.10332">
        <ele>891.279297</ele>
        <time>2014-11-16T14:33:00Z</time>
      </trkpt>
      <trkpt lat="44.42803" lon="5.10328">
        <ele>889.837402</ele>
        <time>2014-11-16T14:33:11Z</time>
      </trkpt>
      <trkpt lat="44.42802" lon="5.10326">
        <ele>889.356689</ele>
        <time>2014-11-16T14:33:21Z</time>
      </trkpt>
      <trkpt lat="44.42798" lon="5.10322">
        <ele>887.434082</ele>
        <time>2014-11-16T14:33:32Z</time>
      </trkpt>
      <trkpt lat="44.42795" lon="5.10316">
        <ele>885.992188</ele>
        <time>2014-11-16T14:33:44Z</time>
      </trkpt>
      <trkpt lat="44.42792" lon="5.10306">
        <ele>885.031006</ele>
        <time>2014-11-16T14:33:54Z</time>
      </trkpt>
      <trkpt lat="44.42786" lon="5.10298">
        <ele>883.108154</ele>
        <time>2014-11-16T14:34:05Z</time>
      </trkpt>
      <trkpt lat="44.42782" lon="5.10298">
        <ele>881.185791</ele>
        <time>2014-11-16T14:34:16Z</time>
      </trkpt>
      <trkpt lat="44.42778" lon="5.10297">
        <ele>879.262939</ele>
        <time>2014-11-16T14:34:26Z</time>
      </trkpt>
      <trkpt lat="44.4277" lon="5.10295">
        <ele>876.859863</ele>
        <time>2014-11-16T14:34:38Z</time>
      </trkpt>
      <trkpt lat="44.42763" lon="5.10291">
        <ele>873.975586</ele>
        <time>2014-11-16T14:34:51Z</time>
      </trkpt>
      <trkpt lat="44.42757" lon="5.10287">
        <ele>871.572266</ele>
        <time>2014-11-16T14:34:59Z</time>
      </trkpt>
      <trkpt lat="44.42748" lon="5.10282">
        <ele>868.688477</ele>
        <time>2014-11-16T14:35:11Z</time>
      </trkpt>
      <trkpt lat="44.42739" lon="5.10278">
        <ele>865.323975</ele>
        <time>2014-11-16T14:35:24Z</time>
      </trkpt>
      <trkpt lat="44.42732" lon="5.10273">
        <ele>862.439941</ele>
        <time>2014-11-16T14:35:37Z</time>
      </trkpt>
      <trkpt lat="44.42723" lon="5.10269">
        <ele>859.555908</ele>
        <time>2014-11-16T14:35:52Z</time>
      </trkpt>
      <trkpt lat="44.42713" lon="5.10264">
        <ele>856.191162</ele>
        <time>2014-11-16T14:36:07Z</time>
      </trkpt>
      <trkpt lat="44.42702" lon="5.10259">
        <ele>853.788086</ele>
        <time>2014-11-16T14:36:21Z</time>
      </trkpt>
      <trkpt lat="44.42694" lon="5.10259">
        <ele>851.865479</ele>
        <time>2014-11-16T14:36:32Z</time>
      </trkpt>
      <trkpt lat="44.42689" lon="5.10256">
        <ele>850.423584</ele>
        <time>2014-11-16T14:36:42Z</time>
      </trkpt>
      <trkpt lat="44.4268" lon="5.10254">
        <ele>848.020264</ele>
        <time>2014-11-16T14:36:55Z</time>
      </trkpt>
      <trkpt lat="44.42676" lon="5.10254">
        <ele>846.578369</ele>
        <time>2014-11-16T14:37:05Z</time>
      </trkpt>
      <trkpt lat="44.42673" lon="5.10251">
        <ele>845.616943</ele>
        <time>2014-11-16T14:37:14Z</time>
      </trkpt>
      <trkpt lat="44.42668" lon="5.10252">
        <ele>844.655518</ele>
        <time>2014-11-16T14:37:25Z</time>
      </trkpt>
      <trkpt lat="44.42667" lon="5.10252">
        <ele>844.175049</ele>
        <time>2014-11-16T14:37:27Z</time>
      </trkpt>
      <trkpt lat="44.42654" lon="5.10255">
        <ele>843.213379</ele>
        <time>2014-11-16T14:37:41Z</time>
      </trkpt>
      <trkpt lat="44.42652" lon="5.10248">
        <ele>841.290771</ele>
        <time>2014-11-16T14:37:49Z</time>
      </trkpt>
      <trkpt lat="44.42654" lon="5.10244">
        <ele>840.810059</ele>
        <time>2014-11-16T14:37:54Z</time>
      </trkpt>
      <trkpt lat="44.42652" lon="5.10235">
        <ele>840.32959</ele>
        <time>2014-11-16T14:38:04Z</time>
      </trkpt>
      <trkpt lat="44.42651" lon="5.10228">
        <ele>839.368164</ele>
        <time>2014-11-16T14:38:15Z</time>
      </trkpt>
      <trkpt lat="44.42647" lon="5.1022">
        <ele>838.406982</ele>
        <time>2014-11-16T14:38:25Z</time>
      </trkpt>
      <trkpt lat="44.42634" lon="5.10213">
        <ele>836.964844</ele>
        <time>2014-11-16T14:38:38Z</time>
      </trkpt>
      <trkpt lat="44.42619" lon="5.10201">
        <ele>835.04248</ele>
        <time>2014-11-16T14:38:54Z</time>
      </trkpt>
      <trkpt lat="44.42612" lon="5.10183">
        <ele>836.964844</ele>
        <time>2014-11-16T14:39:07Z</time>
      </trkpt>
      <trkpt lat="44.42607" lon="5.10169">
        <ele>837.445557</ele>
        <time>2014-11-16T14:39:16Z</time>
      </trkpt>
      <trkpt lat="44.426" lon="5.10155">
        <ele>837.92627</ele>
        <time>2014-11-16T14:39:26Z</time>
      </trkpt>
      <trkpt lat="44.42592" lon="5.10139">
        <ele>839.368164</ele>
        <time>2014-11-16T14:39:38Z</time>
      </trkpt>
      <trkpt lat="44.42591" lon="5.10136">
        <ele>839.368164</ele>
        <time>2014-11-16T14:39:40Z</time>
      </trkpt>
      <trkpt lat="44.42582" lon="5.10118">
        <ele>840.32959</ele>
        <time>2014-11-16T14:39:53Z</time>
      </trkpt>
      <trkpt lat="44.42573" lon="5.10103">
        <ele>841.290771</ele>
        <time>2014-11-16T14:40:05Z</time>
      </trkpt>
      <trkpt lat="44.4256" lon="5.1009">
        <ele>841.290771</ele>
        <time>2014-11-16T14:40:18Z</time>
      </trkpt>
      <trkpt lat="44.42552" lon="5.10084">
        <ele>841.290771</ele>
        <time>2014-11-16T14:40:28Z</time>
      </trkpt>
      <trkpt lat="44.42545" lon="5.10077">
        <ele>841.290771</ele>
        <time>2014-11-16T14:40:37Z</time>
      </trkpt>
      <trkpt lat="44.4254" lon="5.10072">
        <ele>841.290771</ele>
        <time>2014-11-16T14:40:44Z</time>
      </trkpt>
      <trkpt lat="44.42533" lon="5.10067">
        <ele>841.771484</ele>
        <time>2014-11-16T14:40:52Z</time>
      </trkpt>
      <trkpt lat="44.42521" lon="5.10061">
        <ele>842.73291</ele>
        <time>2014-11-16T14:41:04Z</time>
      </trkpt>
      <trkpt lat="44.42512" lon="5.10057">
        <ele>843.213379</ele>
        <time>2014-11-16T14:41:14Z</time>
      </trkpt>
      <trkpt lat="44.42509" lon="5.10056">
        <ele>843.213379</ele>
        <time>2014-11-16T14:41:19Z</time>
      </trkpt>
      <trkpt lat="44.42503" lon="5.10045">
        <ele>843.694092</ele>
        <time>2014-11-16T14:41:29Z</time>
      </trkpt>
      <trkpt lat="44.42495" lon="5.10025">
        <ele>845.13623</ele>
        <time>2014-11-16T14:41:48Z</time>
      </trkpt>
      <trkpt lat="44.42489" lon="5.10012">
        <ele>846.097656</ele>
        <time>2014-11-16T14:42:01Z</time>
      </trkpt>
      <trkpt lat="44.42481" lon="5.09999">
        <ele>847.058838</ele>
        <time>2014-11-16T14:42:14Z</time>
      </trkpt>
      <trkpt lat="44.42477" lon="5.09994">
        <ele>847.058838</ele>
        <time>2014-11-16T14:42:18Z</time>
      </trkpt>
      <trkpt lat="44.42474" lon="5.09992">
        <ele>847.539551</ele>
        <time>2014-11-16T14:42:20Z</time>
      </trkpt>
      <trkpt lat="44.42463" lon="5.09986">
        <ele>847.539551</ele>
        <time>2014-11-16T14:42:30Z</time>
      </trkpt>
      <trkpt lat="44.42461" lon="5.09983">
        <ele>847.539551</ele>
        <time>2014-11-16T14:42:32Z</time>
      </trkpt>
      <trkpt lat="44.42459" lon="5.09983">
        <ele>847.539551</ele>
        <time>2014-11-16T14:42:34Z</time>
      </trkpt>
      <trkpt lat="44.42452" lon="5.09979">
        <ele>847.539551</ele>
        <time>2014-11-16T14:42:40Z</time>
      </trkpt>
      <trkpt lat="44.42444" lon="5.09976">
        <ele>847.539551</ele>
        <time>2014-11-16T14:42:47Z</time>
      </trkpt>
      <trkpt lat="44.42429" lon="5.09975">
        <ele>847.539551</ele>
        <time>2014-11-16T14:42:58Z</time>
      </trkpt>
      <trkpt lat="44.42418" lon="5.09974">
        <ele>848.020264</ele>
        <time>2014-11-16T14:43:10Z</time>
      </trkpt>
      <trkpt lat="44.42406" lon="5.09975">
        <ele>848.020264</ele>
        <time>2014-11-16T14:43:22Z</time>
      </trkpt>
      <trkpt lat="44.42388" lon="5.09986">
        <ele>849.462158</ele>
        <time>2014-11-16T14:43:40Z</time>
      </trkpt>
      <trkpt lat="44.42385" lon="5.09987">
        <ele>849.462158</ele>
        <time>2014-11-16T14:43:43Z</time>
      </trkpt>
      <trkpt lat="44.4238" lon="5.0999">
        <ele>848.981445</ele>
        <time>2014-11-16T14:43:48Z</time>
      </trkpt>
      <trkpt lat="44.42367" lon="5.09997">
        <ele>848.981445</ele>
        <time>2014-11-16T14:43:58Z</time>
      </trkpt>
      <trkpt lat="44.42353" lon="5.10002">
        <ele>849.942871</ele>
        <time>2014-11-16T14:44:10Z</time>
      </trkpt>
      <trkpt lat="44.42343" lon="5.10004">
        <ele>850.423584</ele>
        <time>2014-11-16T14:44:20Z</time>
      </trkpt>
      <trkpt lat="44.42334" lon="5.10007">
        <ele>851.384766</ele>
        <time>2014-11-16T14:44:29Z</time>
      </trkpt>
      <trkpt lat="44.42332" lon="5.10008">
        <ele>851.384766</ele>
        <time>2014-11-16T14:44:39Z</time>
      </trkpt>
      <trkpt lat="44.42333" lon="5.1001">
        <ele>851.384766</ele>
        <time>2014-11-16T14:44:58Z</time>
      </trkpt>
      <trkpt lat="44.42327" lon="5.1001">
        <ele>851.865479</ele>
        <time>2014-11-16T14:45:08Z</time>
      </trkpt>
      <trkpt lat="44.42311" lon="5.10013">
        <ele>852.345947</ele>
        <time>2014-11-16T14:45:22Z</time>
      </trkpt>
      <trkpt lat="44.42307" lon="5.10015">
        <ele>852.82666</ele>
        <time>2014-11-16T14:45:25Z</time>
      </trkpt>
      <trkpt lat="44.42296" lon="5.10015">
        <ele>853.788086</ele>
        <time>2014-11-16T14:45:36Z</time>
      </trkpt>
      <trkpt lat="44.42283" lon="5.10018">
        <ele>855.710693</ele>
        <time>2014-11-16T14:45:49Z</time>
      </trkpt>
      <trkpt lat="44.42272" lon="5.10025">
        <ele>857.152588</ele>
        <time>2014-11-16T14:46:00Z</time>
      </trkpt>
      <trkpt lat="44.42264" lon="5.10039">
        <ele>859.555908</ele>
        <time>2014-11-16T14:46:12Z</time>
      </trkpt>
      <trkpt lat="44.42255" lon="5.10045">
        <ele>861.47876</ele>
        <time>2014-11-16T14:46:22Z</time>
      </trkpt>
      <trkpt lat="44.4225" lon="5.10049">
        <ele>862.439941</ele>
        <time>2014-11-16T14:46:31Z</time>
      </trkpt>
      <trkpt lat="44.42245" lon="5.10051">
        <ele>862.439941</ele>
        <time>2014-11-16T14:46:42Z</time>
      </trkpt>
      <trkpt lat="44.42245" lon="5.10049">
        <ele>862.439941</ele>
        <time>2014-11-16T14:46:53Z</time>
      </trkpt>
      <trkpt lat="44.42244" lon="5.1005">
        <ele>862.439941</ele>
        <time>2014-11-16T14:47:43Z</time>
      </trkpt>
      <trkpt lat="44.42244" lon="5.10051">
        <ele>862.439941</ele>
        <time>2014-11-16T14:49:42Z</time>
      </trkpt>
      <trkpt lat="44.4223" lon="5.1005">
        <ele>862.439941</ele>
        <time>2014-11-16T14:49:56Z</time>
      </trkpt>
      <trkpt lat="44.42216" lon="5.10056">
        <ele>862.439941</ele>
        <time>2014-11-16T14:50:13Z</time>
      </trkpt>
      <trkpt lat="44.42211" lon="5.10063">
        <ele>861.959473</ele>
        <time>2014-11-16T14:50:21Z</time>
      </trkpt>
      <trkpt lat="44.42204" lon="5.10068">
        <ele>859.555908</ele>
        <time>2014-11-16T14:50:33Z</time>
      </trkpt>
      <trkpt lat="44.42198" lon="5.1007">
        <ele>857.633301</ele>
        <time>2014-11-16T14:50:41Z</time>
      </trkpt>
      <trkpt lat="44.42191" lon="5.10073">
        <ele>855.710693</ele>
        <time>2014-11-16T14:50:49Z</time>
      </trkpt>
      <trkpt lat="44.4219" lon="5.10077">
        <ele>855.22998</ele>
        <time>2014-11-16T14:50:57Z</time>
      </trkpt>
      <trkpt lat="44.42185" lon="5.10083">
        <ele>853.788086</ele>
        <time>2014-11-16T14:51:06Z</time>
      </trkpt>
      <trkpt lat="44.42176" lon="5.1009">
        <ele>851.865479</ele>
        <time>2014-11-16T14:51:17Z</time>
      </trkpt>
      <trkpt lat="44.42173" lon="5.1009">
        <ele>849.462158</ele>
        <time>2014-11-16T14:51:26Z</time>
      </trkpt>
      <trkpt lat="44.42164" lon="5.10091">
        <ele>847.539551</ele>
        <time>2014-11-16T14:51:36Z</time>
      </trkpt>
      <trkpt lat="44.42159" lon="5.10092">
        <ele>845.616943</ele>
        <time>2014-11-16T14:51:43Z</time>
      </trkpt>
      <trkpt lat="44.42152" lon="5.10091">
        <ele>843.213379</ele>
        <time>2014-11-16T14:51:54Z</time>
      </trkpt>
      <trkpt lat="44.42148" lon="5.10091">
        <ele>841.771484</ele>
        <time>2014-11-16T14:52:00Z</time>
      </trkpt>
      <trkpt lat="44.42145" lon="5.10086">
        <ele>840.32959</ele>
        <time>2014-11-16T14:52:09Z</time>
      </trkpt>
      <trkpt lat="44.42143" lon="5.10081">
        <ele>837.92627</ele>
        <time>2014-11-16T14:52:19Z</time>
      </trkpt>
      <trkpt lat="44.42139" lon="5.10076">
        <ele>836.484375</ele>
        <time>2014-11-16T14:52:29Z</time>
      </trkpt>
      <trkpt lat="44.42138" lon="5.10072">
        <ele>835.522949</ele>
        <time>2014-11-16T14:52:36Z</time>
      </trkpt>
      <trkpt lat="44.42132" lon="5.10072">
        <ele>834.081055</ele>
        <time>2014-11-16T14:53:06Z</time>
      </trkpt>
      <trkpt lat="44.42127" lon="5.10076">
        <ele>833.119629</ele>
        <time>2014-11-16T14:53:15Z</time>
      </trkpt>
      <trkpt lat="44.42123" lon="5.10081">
        <ele>831.677734</ele>
        <time>2014-11-16T14:53:26Z</time>
      </trkpt>
      <trkpt lat="44.42119" lon="5.10085">
        <ele>829.274414</ele>
        <time>2014-11-16T14:53:35Z</time>
      </trkpt>
      <trkpt lat="44.42113" lon="5.10094">
        <ele>826.871094</ele>
        <time>2014-11-16T14:53:47Z</time>
      </trkpt>
      <trkpt lat="44.42107" lon="5.10098">
        <ele>825.909668</ele>
        <time>2014-11-16T14:53:55Z</time>
      </trkpt>
      <trkpt lat="44.42102" lon="5.10102">
        <ele>824.467773</ele>
        <time>2014-11-16T14:54:03Z</time>
      </trkpt>
      <trkpt lat="44.42099" lon="5.10105">
        <ele>823.025879</ele>
        <time>2014-11-16T14:54:09Z</time>
      </trkpt>
      <trkpt lat="44.42093" lon="5.1011">
        <ele>822.064453</ele>
        <time>2014-11-16T14:54:18Z</time>
      </trkpt>
      <trkpt lat="44.42087" lon="5.10118">
        <ele>821.103271</ele>
        <time>2014-11-16T14:54:27Z</time>
      </trkpt>
      <trkpt lat="44.42082" lon="5.10124">
        <ele>820.622559</ele>
        <time>2014-11-16T14:54:36Z</time>
      </trkpt>
      <trkpt lat="44.42077" lon="5.1013">
        <ele>819.661377</ele>
        <time>2014-11-16T14:54:45Z</time>
      </trkpt>
      <trkpt lat="44.42073" lon="5.10134">
        <ele>819.180664</ele>
        <time>2014-11-16T14:54:55Z</time>
      </trkpt>
      <trkpt lat="44.42072" lon="5.10135">
        <ele>819.180664</ele>
        <time>2014-11-16T14:55:07Z</time>
      </trkpt>
      <trkpt lat="44.42069" lon="5.10139">
        <ele>819.661377</ele>
        <time>2014-11-16T14:57:20Z</time>
      </trkpt>
      <trkpt lat="44.42062" lon="5.10149">
        <ele>818.699951</ele>
        <time>2014-11-16T14:57:32Z</time>
      </trkpt>
      <trkpt lat="44.4206" lon="5.10149">
        <ele>818.699951</ele>
        <time>2014-11-16T14:57:34Z</time>
      </trkpt>
      <trkpt lat="44.42059" lon="5.10151">
        <ele>818.219238</ele>
        <time>2014-11-16T14:57:36Z</time>
      </trkpt>
      <trkpt lat="44.42058" lon="5.10154">
        <ele>818.219238</ele>
        <time>2014-11-16T14:57:38Z</time>
      </trkpt>
      <trkpt lat="44.42056" lon="5.10158">
        <ele>817.738525</ele>
        <time>2014-11-16T14:57:41Z</time>
      </trkpt>
      <trkpt lat="44.42053" lon="5.10161">
        <ele>817.738525</ele>
        <time>2014-11-16T14:57:45Z</time>
      </trkpt>
      <trkpt lat="44.42048" lon="5.10169">
        <ele>816.296631</ele>
        <time>2014-11-16T14:57:55Z</time>
      </trkpt>
      <trkpt lat="44.42042" lon="5.10181">
        <ele>815.335449</ele>
        <time>2014-11-16T14:58:04Z</time>
      </trkpt>
      <trkpt lat="44.42037" lon="5.10189">
        <ele>813.893311</ele>
        <time>2014-11-16T14:58:12Z</time>
      </trkpt>
      <trkpt lat="44.42029" lon="5.10198">
        <ele>811.970703</ele>
        <time>2014-11-16T14:58:22Z</time>
      </trkpt>
      <trkpt lat="44.42022" lon="5.10212">
        <ele>809.08667</ele>
        <time>2014-11-16T14:58:36Z</time>
      </trkpt>
      <trkpt lat="44.42015" lon="5.10222">
        <ele>806.68335</ele>
        <time>2014-11-16T14:58:48Z</time>
      </trkpt>
      <trkpt lat="44.42008" lon="5.10233">
        <ele>804.760742</ele>
        <time>2014-11-16T14:59:01Z</time>
      </trkpt>
      <trkpt lat="44.42" lon="5.10246">
        <ele>802.838135</ele>
        <time>2014-11-16T14:59:14Z</time>
      </trkpt>
      <trkpt lat="44.41995" lon="5.10253">
        <ele>801.39624</ele>
        <time>2014-11-16T14:59:23Z</time>
      </trkpt>
      <trkpt lat="44.4199" lon="5.10262">
        <ele>799.954346</ele>
        <time>2014-11-16T14:59:34Z</time>
      </trkpt>
      <trkpt lat="44.41985" lon="5.1027">
        <ele>798.031738</ele>
        <time>2014-11-16T14:59:44Z</time>
      </trkpt>
      <trkpt lat="44.41977" lon="5.10278">
        <ele>796.109131</ele>
        <time>2014-11-16T14:59:56Z</time>
      </trkpt>
      <trkpt lat="44.41971" lon="5.10284">
        <ele>794.186279</ele>
        <time>2014-11-16T15:00:06Z</time>
      </trkpt>
      <trkpt lat="44.41971" lon="5.10281">
        <ele>793.705566</ele>
        <time>2014-11-16T15:00:18Z</time>
      </trkpt>
      <trkpt lat="44.41971" lon="5.10277">
        <ele>792.744385</ele>
        <time>2014-11-16T15:00:27Z</time>
      </trkpt>
      <trkpt lat="44.41972" lon="5.10261">
        <ele>789.860352</ele>
        <time>2014-11-16T15:00:41Z</time>
      </trkpt>
      <trkpt lat="44.41975" lon="5.10251">
        <ele>788.89917</ele>
        <time>2014-11-16T15:00:50Z</time>
      </trkpt>
      <trkpt lat="44.41976" lon="5.10233">
        <ele>786.49585</ele>
        <time>2014-11-16T15:01:05Z</time>
      </trkpt>
      <trkpt lat="44.41977" lon="5.10224">
        <ele>785.053955</ele>
        <time>2014-11-16T15:01:14Z</time>
      </trkpt>
      <trkpt lat="44.41975" lon="5.10208">
        <ele>782.169922</ele>
        <time>2014-11-16T15:01:28Z</time>
      </trkpt>
      <trkpt lat="44.41976" lon="5.10196">
        <ele>780.247314</ele>
        <time>2014-11-16T15:01:39Z</time>
      </trkpt>
      <trkpt lat="44.41978" lon="5.10183">
        <ele>778.324463</ele>
        <time>2014-11-16T15:01:51Z</time>
      </trkpt>
      <trkpt lat="44.41978" lon="5.10179">
        <ele>777.84375</ele>
        <time>2014-11-16T15:01:55Z</time>
      </trkpt>
      <trkpt lat="44.41978" lon="5.10167">
        <ele>775.44043</ele>
        <time>2014-11-16T15:02:05Z</time>
      </trkpt>
      <trkpt lat="44.41979" lon="5.10164">
        <ele>774.959961</ele>
        <time>2014-11-16T15:02:14Z</time>
      </trkpt>
      <trkpt lat="44.41978" lon="5.10154">
        <ele>773.998535</ele>
        <time>2014-11-16T15:02:20Z</time>
      </trkpt>
      <trkpt lat="44.41976" lon="5.10152">
        <ele>773.518066</ele>
        <time>2014-11-16T15:02:28Z</time>
      </trkpt>
      <trkpt lat="44.41977" lon="5.10144">
        <ele>771.595215</ele>
        <time>2014-11-16T15:02:36Z</time>
      </trkpt>
      <trkpt lat="44.41977" lon="5.10139">
        <ele>770.15332</ele>
        <time>2014-11-16T15:02:46Z</time>
      </trkpt>
      <trkpt lat="44.41976" lon="5.10126">
        <ele>768.230713</ele>
        <time>2014-11-16T15:02:57Z</time>
      </trkpt>
      <trkpt lat="44.41975" lon="5.10115">
        <ele>765.827637</ele>
        <time>2014-11-16T15:03:07Z</time>
      </trkpt>
      <trkpt lat="44.41973" lon="5.10105">
        <ele>763.904541</ele>
        <time>2014-11-16T15:03:18Z</time>
      </trkpt>
      <trkpt lat="44.41968" lon="5.10102">
        <ele>762.943359</ele>
        <time>2014-11-16T15:03:26Z</time>
      </trkpt>
      <trkpt lat="44.41961" lon="5.1011">
        <ele>760.540039</ele>
        <time>2014-11-16T15:03:39Z</time>
      </trkpt>
      <trkpt lat="44.41953" lon="5.10119">
        <ele>758.136963</ele>
        <time>2014-11-16T15:03:53Z</time>
      </trkpt>
      <trkpt lat="44.41946" lon="5.10128">
        <ele>755.733643</ele>
        <time>2014-11-16T15:04:05Z</time>
      </trkpt>
      <trkpt lat="44.41942" lon="5.10135">
        <ele>753.811035</ele>
        <time>2014-11-16T15:04:15Z</time>
      </trkpt>
      <trkpt lat="44.41938" lon="5.10146">
        <ele>751.888428</ele>
        <time>2014-11-16T15:04:27Z</time>
      </trkpt>
      <trkpt lat="44.4193" lon="5.10157">
        <ele>749.004395</ele>
        <time>2014-11-16T15:04:40Z</time>
      </trkpt>
      <trkpt lat="44.41924" lon="5.10166">
        <ele>747.081543</ele>
        <time>2014-11-16T15:04:52Z</time>
      </trkpt>
      <trkpt lat="44.41917" lon="5.10177">
        <ele>744.678223</ele>
        <time>2014-11-16T15:05:05Z</time>
      </trkpt>
      <trkpt lat="44.41915" lon="5.1018">
        <ele>743.717041</ele>
        <time>2014-11-16T15:05:08Z</time>
      </trkpt>
      <trkpt lat="44.41908" lon="5.10189">
        <ele>742.275146</ele>
        <time>2014-11-16T15:05:19Z</time>
      </trkpt>
      <trkpt lat="44.41903" lon="5.1019">
        <ele>740.833008</ele>
        <time>2014-11-16T15:05:29Z</time>
      </trkpt>
      <trkpt lat="44.41896" lon="5.10195">
        <ele>739.871826</ele>
        <time>2014-11-16T15:05:41Z</time>
      </trkpt>
      <trkpt lat="44.41891" lon="5.10198">
        <ele>738.910645</ele>
        <time>2014-11-16T15:05:47Z</time>
      </trkpt>
      <trkpt lat="44.41879" lon="5.10207">
        <ele>737.468506</ele>
        <time>2014-11-16T15:06:01Z</time>
      </trkpt>
      <trkpt lat="44.41872" lon="5.10218">
        <ele>734.584717</ele>
        <time>2014-11-16T15:06:14Z</time>
      </trkpt>
      <trkpt lat="44.41863" lon="5.10227">
        <ele>731.219971</ele>
        <time>2014-11-16T15:06:28Z</time>
      </trkpt>
      <trkpt lat="44.41857" lon="5.1023">
        <ele>729.777832</ele>
        <time>2014-11-16T15:06:35Z</time>
      </trkpt>
      <trkpt lat="44.41847" lon="5.10235">
        <ele>726.894043</ele>
        <time>2014-11-16T15:06:50Z</time>
      </trkpt>
      <trkpt lat="44.41842" lon="5.10241">
        <ele>724.490723</ele>
        <time>2014-11-16T15:07:01Z</time>
      </trkpt>
      <trkpt lat="44.41837" lon="5.10247">
        <ele>722.568115</ele>
        <time>2014-11-16T15:07:15Z</time>
      </trkpt>
      <trkpt lat="44.41831" lon="5.10247">
        <ele>720.645508</ele>
        <time>2014-11-16T15:07:33Z</time>
      </trkpt>
      <trkpt lat="44.41824" lon="5.10247">
        <ele>718.242188</ele>
        <time>2014-11-16T15:07:44Z</time>
      </trkpt>
      <trkpt lat="44.41815" lon="5.10248">
        <ele>715.358154</ele>
        <time>2014-11-16T15:07:56Z</time>
      </trkpt>
      <trkpt lat="44.41804" lon="5.10253">
        <ele>712.474121</ele>
        <time>2014-11-16T15:08:09Z</time>
      </trkpt>
      <trkpt lat="44.41798" lon="5.10254">
        <ele>711.032227</ele>
        <time>2014-11-16T15:08:17Z</time>
      </trkpt>
      <trkpt lat="44.41794" lon="5.10256">
        <ele>709.109619</ele>
        <time>2014-11-16T15:08:23Z</time>
      </trkpt>
      <trkpt lat="44.41784" lon="5.10256">
        <ele>706.706299</ele>
        <time>2014-11-16T15:08:36Z</time>
      </trkpt>
      <trkpt lat="44.41783" lon="5.10256">
        <ele>706.225586</ele>
        <time>2014-11-16T15:08:45Z</time>
      </trkpt>
      <trkpt lat="44.4178" lon="5.10255">
        <ele>705.745117</ele>
        <time>2014-11-16T15:08:56Z</time>
      </trkpt>
      <trkpt lat="44.41781" lon="5.10256">
        <ele>705.745117</ele>
        <time>2014-11-16T15:09:13Z</time>
      </trkpt>
      <trkpt lat="44.41781" lon="5.10256">
        <ele>705.745117</ele>
        <time>2014-11-16T15:09:24Z</time>
      </trkpt>
      <trkpt lat="44.41776" lon="5.10257">
        <ele>704.783691</ele>
        <time>2014-11-16T15:09:54Z</time>
      </trkpt>
      <trkpt lat="44.4177" lon="5.1026">
        <ele>703.341797</ele>
        <time>2014-11-16T15:10:06Z</time>
      </trkpt>
      <trkpt lat="44.41765" lon="5.10263">
        <ele>702.380371</ele>
        <time>2014-11-16T15:10:16Z</time>
      </trkpt>
      <trkpt lat="44.41756" lon="5.10262">
        <ele>699.496338</ele>
        <time>2014-11-16T15:10:30Z</time>
      </trkpt>
      <trkpt lat="44.41744" lon="5.10257">
        <ele>696.612549</ele>
        <time>2014-11-16T15:10:47Z</time>
      </trkpt>
      <trkpt lat="44.41735" lon="5.10255">
        <ele>693.247803</ele>
        <time>2014-11-16T15:11:01Z</time>
      </trkpt>
      <trkpt lat="44.41723" lon="5.10255">
        <ele>690.364014</ele>
        <time>2014-11-16T15:11:15Z</time>
      </trkpt>
      <trkpt lat="44.41714" lon="5.10257">
        <ele>687.47998</ele>
        <time>2014-11-16T15:11:28Z</time>
      </trkpt>
      <trkpt lat="44.41707" lon="5.10261">
        <ele>685.076904</ele>
        <time>2014-11-16T15:11:42Z</time>
      </trkpt>
      <trkpt lat="44.41706" lon="5.10262">
        <ele>685.557373</ele>
        <time>2014-11-16T15:11:52Z</time>
      </trkpt>
      <trkpt lat="44.417" lon="5.10268">
        <ele>684.115479</ele>
        <time>2014-11-16T15:12:03Z</time>
      </trkpt>
      <trkpt lat="44.41696" lon="5.10267">
        <ele>683.634521</ele>
        <time>2014-11-16T15:12:12Z</time>
      </trkpt>
      <trkpt lat="44.41691" lon="5.10256">
        <ele>682.192627</ele>
        <time>2014-11-16T15:12:26Z</time>
      </trkpt>
      <trkpt lat="44.41684" lon="5.10244">
        <ele>680.27002</ele>
        <time>2014-11-16T15:12:40Z</time>
      </trkpt>
      <trkpt lat="44.41682" lon="5.10243">
        <ele>679.789307</ele>
        <time>2014-11-16T15:12:48Z</time>
      </trkpt>
      <trkpt lat="44.41677" lon="5.10237">
        <ele>678.828125</ele>
        <time>2014-11-16T15:12:57Z</time>
      </trkpt>
      <trkpt lat="44.41665" lon="5.10222">
        <ele>675.944092</ele>
        <time>2014-11-16T15:13:14Z</time>
      </trkpt>
      <trkpt lat="44.41655" lon="5.1021">
        <ele>672.57959</ele>
        <time>2014-11-16T15:13:28Z</time>
      </trkpt>
      <trkpt lat="44.41658" lon="5.10197">
        <ele>672.57959</ele>
        <time>2014-11-16T15:13:38Z</time>
      </trkpt>
      <trkpt lat="44.41659" lon="5.1018">
        <ele>674.502197</ele>
        <time>2014-11-16T15:13:51Z</time>
      </trkpt>
      <trkpt lat="44.41668" lon="5.10168">
        <ele>676.905518</ele>
        <time>2014-11-16T15:14:05Z</time>
      </trkpt>
      <trkpt lat="44.41678" lon="5.10156">
        <ele>679.308594</ele>
        <time>2014-11-16T15:14:18Z</time>
      </trkpt>
      <trkpt lat="44.41687" lon="5.10142">
        <ele>681.711914</ele>
        <time>2014-11-16T15:14:34Z</time>
      </trkpt>
      <trkpt lat="44.4169" lon="5.10137">
        <ele>682.67334</ele>
        <time>2014-11-16T15:14:38Z</time>
      </trkpt>
      <trkpt lat="44.41695" lon="5.10126">
        <ele>683.634521</ele>
        <time>2014-11-16T15:14:49Z</time>
      </trkpt>
      <trkpt lat="44.41701" lon="5.10115">
        <ele>685.557373</ele>
        <time>2014-11-16T15:15:01Z</time>
      </trkpt>
      <trkpt lat="44.41706" lon="5.10095">
        <ele>688.922119</ele>
        <time>2014-11-16T15:15:18Z</time>
      </trkpt>
      <trkpt lat="44.41712" lon="5.10077">
        <ele>691.805908</ele>
        <time>2014-11-16T15:15:35Z</time>
      </trkpt>
      <trkpt lat="44.41717" lon="5.10071">
        <ele>692.767334</ele>
        <time>2014-11-16T15:15:42Z</time>
      </trkpt>
      <trkpt lat="44.4173" lon="5.10066">
        <ele>695.17041</ele>
        <time>2014-11-16T15:15:56Z</time>
      </trkpt>
      <trkpt lat="44.4174" lon="5.10064">
        <ele>696.131836</ele>
        <time>2014-11-16T15:16:06Z</time>
      </trkpt>
      <trkpt lat="44.41752" lon="5.1006">
        <ele>697.093018</ele>
        <time>2014-11-16T15:16:17Z</time>
      </trkpt>
      <trkpt lat="44.41759" lon="5.10053">
        <ele>697.57373</ele>
        <time>2014-11-16T15:16:25Z</time>
      </trkpt>
      <trkpt lat="44.4176" lon="5.10042">
        <ele>698.534912</ele>
        <time>2014-11-16T15:16:33Z</time>
      </trkpt>
      <trkpt lat="44.4176" lon="5.1002">
        <ele>700.458008</ele>
        <time>2014-11-16T15:16:49Z</time>
      </trkpt>
      <trkpt lat="44.41771" lon="5.10009">
        <ele>702.380371</ele>
        <time>2014-11-16T15:17:02Z</time>
      </trkpt>
      <trkpt lat="44.41776" lon="5.10007">
        <ele>701.899902</ele>
        <time>2014-11-16T15:17:11Z</time>
      </trkpt>
      <trkpt lat="44.41775" lon="5.10007">
        <ele>701.899902</ele>
        <time>2014-11-16T15:17:26Z</time>
      </trkpt>
      <trkpt lat="44.4178" lon="5.10003">
        <ele>701.899902</ele>
        <time>2014-11-16T15:17:35Z</time>
      </trkpt>
      <trkpt lat="44.41783" lon="5.10004">
        <ele>701.899902</ele>
        <time>2014-11-16T15:17:42Z</time>
      </trkpt>
      <trkpt lat="44.41781" lon="5.10002">
        <ele>701.419189</ele>
        <time>2014-11-16T15:17:50Z</time>
      </trkpt>
      <trkpt lat="44.41782" lon="5.10003">
        <ele>701.419189</ele>
        <time>2014-11-16T15:18:09Z</time>
      </trkpt>
      <trkpt lat="44.41768" lon="5.10014">
        <ele>700.938477</ele>
        <time>2014-11-16T15:18:25Z</time>
      </trkpt>
      <trkpt lat="44.41758" lon="5.10028">
        <ele>699.496338</ele>
        <time>2014-11-16T15:18:39Z</time>
      </trkpt>
      <trkpt lat="44.41759" lon="5.10043">
        <ele>698.054443</ele>
        <time>2014-11-16T15:18:50Z</time>
      </trkpt>
      <trkpt lat="44.41758" lon="5.10053">
        <ele>696.612549</ele>
        <time>2014-11-16T15:18:57Z</time>
      </trkpt>
      <trkpt lat="44.41752" lon="5.1006">
        <ele>695.651123</ele>
        <time>2014-11-16T15:19:03Z</time>
      </trkpt>
      <trkpt lat="44.41734" lon="5.10068">
        <ele>693.728516</ele>
        <time>2014-11-16T15:19:14Z</time>
      </trkpt>
      <trkpt lat="44.41721" lon="5.10071">
        <ele>691.805908</ele>
        <time>2014-11-16T15:19:22Z</time>
      </trkpt>
      <trkpt lat="44.41712" lon="5.10081">
        <ele>689.883301</ele>
        <time>2014-11-16T15:19:29Z</time>
      </trkpt>
      <trkpt lat="44.41707" lon="5.10092">
        <ele>687.960693</ele>
        <time>2014-11-16T15:19:34Z</time>
      </trkpt>
      <trkpt lat="44.41701" lon="5.1011">
        <ele>685.076904</ele>
        <time>2014-11-16T15:19:42Z</time>
      </trkpt>
      <trkpt lat="44.41698" lon="5.10118">
        <ele>684.115479</ele>
        <time>2014-11-16T15:19:51Z</time>
      </trkpt>
      <trkpt lat="44.41696" lon="5.10124">
        <ele>683.153809</ele>
        <time>2014-11-16T15:20:01Z</time>
      </trkpt>
      <trkpt lat="44.41696" lon="5.10124">
        <ele>683.153809</ele>
        <time>2014-11-16T15:20:11Z</time>
      </trkpt>
      <trkpt lat="44.41697" lon="5.10119">
        <ele>683.153809</ele>
        <time>2014-11-16T15:20:26Z</time>
      </trkpt>
      <trkpt lat="44.41699" lon="5.10115">
        <ele>684.115479</ele>
        <time>2014-11-16T15:20:30Z</time>
      </trkpt>
      <trkpt lat="44.41702" lon="5.10107">
        <ele>684.596191</ele>
        <time>2014-11-16T15:20:37Z</time>
      </trkpt>
      <trkpt lat="44.41704" lon="5.10099">
        <ele>686.518799</ele>
        <time>2014-11-16T15:20:46Z</time>
      </trkpt>
      <trkpt lat="44.41705" lon="5.10094">
        <ele>687.47998</ele>
        <time>2014-11-16T15:20:56Z</time>
      </trkpt>
      <trkpt lat="44.41709" lon="5.10083">
        <ele>688.441406</ele>
        <time>2014-11-16T15:21:07Z</time>
      </trkpt>
      <trkpt lat="44.41711" lon="5.1008">
        <ele>688.922119</ele>
        <time>2014-11-16T15:21:14Z</time>
      </trkpt>
      <trkpt lat="44.41718" lon="5.1007">
        <ele>690.844482</ele>
        <time>2014-11-16T15:21:25Z</time>
      </trkpt>
      <trkpt lat="44.41724" lon="5.10067">
        <ele>691.805908</ele>
        <time>2014-11-16T15:21:35Z</time>
      </trkpt>
      <trkpt lat="44.41731" lon="5.10066">
        <ele>692.767334</ele>
        <time>2014-11-16T15:21:45Z</time>
      </trkpt>
      <trkpt lat="44.41737" lon="5.10066">
        <ele>693.247803</ele>
        <time>2014-11-16T15:21:55Z</time>
      </trkpt>
      <trkpt lat="44.4174" lon="5.10065">
        <ele>693.728516</ele>
        <time>2014-11-16T15:22:02Z</time>
      </trkpt>
      <trkpt lat="44.41748" lon="5.10062">
        <ele>694.209229</ele>
        <time>2014-11-16T15:22:11Z</time>
      </trkpt>
      <trkpt lat="44.41755" lon="5.10059">
        <ele>694.689697</ele>
        <time>2014-11-16T15:22:20Z</time>
      </trkpt>
      <trkpt lat="44.41759" lon="5.10054">
        <ele>695.17041</ele>
        <time>2014-11-16T15:22:25Z</time>
      </trkpt>
      <trkpt lat="44.41762" lon="5.10045">
        <ele>696.131836</ele>
        <time>2014-11-16T15:22:34Z</time>
      </trkpt>
      <trkpt lat="44.41762" lon="5.10039">
        <ele>696.612549</ele>
        <time>2014-11-16T15:22:38Z</time>
      </trkpt>
      <trkpt lat="44.41763" lon="5.10027">
        <ele>698.054443</ele>
        <time>2014-11-16T15:22:48Z</time>
      </trkpt>
      <trkpt lat="44.41767" lon="5.10015">
        <ele>699.015625</ele>
        <time>2014-11-16T15:22:57Z</time>
      </trkpt>
      <trkpt lat="44.41772" lon="5.10011">
        <ele>699.496338</ele>
        <time>2014-11-16T15:23:06Z</time>
      </trkpt>
      <trkpt lat="44.41782" lon="5.10003">
        <ele>699.496338</ele>
        <time>2014-11-16T15:23:18Z</time>
      </trkpt>
      <trkpt lat="44.41785" lon="5.09999">
        <ele>699.015625</ele>
        <time>2014-11-16T15:23:22Z</time>
      </trkpt>
      <trkpt lat="44.41791" lon="5.0998">
        <ele>698.534912</ele>
        <time>2014-11-16T15:23:36Z</time>
      </trkpt>
      <trkpt lat="44.41796" lon="5.09962">
        <ele>697.57373</ele>
        <time>2014-11-16T15:23:49Z</time>
      </trkpt>
      <trkpt lat="44.418" lon="5.09956">
        <ele>697.093018</ele>
        <time>2014-11-16T15:23:54Z</time>
      </trkpt>
      <trkpt lat="44.41812" lon="5.09948">
        <ele>696.612549</ele>
        <time>2014-11-16T15:24:07Z</time>
      </trkpt>
      <trkpt lat="44.4182" lon="5.09943">
        <ele>696.131836</ele>
        <time>2014-11-16T15:24:17Z</time>
      </trkpt>
      <trkpt lat="44.41824" lon="5.09943">
        <ele>696.131836</ele>
        <time>2014-11-16T15:24:21Z</time>
      </trkpt>
      <trkpt lat="44.41835" lon="5.09943">
        <ele>695.651123</ele>
        <time>2014-11-16T15:24:32Z</time>
      </trkpt>
      <trkpt lat="44.41842" lon="5.09945">
        <ele>695.17041</ele>
        <time>2014-11-16T15:24:40Z</time>
      </trkpt>
      <trkpt lat="44.41843" lon="5.09945">
        <ele>694.689697</ele>
        <time>2014-11-16T15:24:53Z</time>
      </trkpt>
      <trkpt lat="44.41846" lon="5.09946">
        <ele>694.689697</ele>
        <time>2014-11-16T15:25:00Z</time>
      </trkpt>
      <trkpt lat="44.41851" lon="5.09947">
        <ele>694.689697</ele>
        <time>2014-11-16T15:25:11Z</time>
      </trkpt>
      <trkpt lat="44.41852" lon="5.09946">
        <ele>694.689697</ele>
        <time>2014-11-16T15:25:12Z</time>
      </trkpt>
      <trkpt lat="44.41857" lon="5.0994">
        <ele>695.17041</ele>
        <time>2014-11-16T15:25:20Z</time>
      </trkpt>
      <trkpt lat="44.41855" lon="5.09938">
        <ele>695.17041</ele>
        <time>2014-11-16T15:25:22Z</time>
      </trkpt>
      <trkpt lat="44.41858" lon="5.09922">
        <ele>695.651123</ele>
        <time>2014-11-16T15:25:32Z</time>
      </trkpt>
      <trkpt lat="44.41869" lon="5.09916">
        <ele>695.651123</ele>
        <time>2014-11-16T15:25:41Z</time>
      </trkpt>
      <trkpt lat="44.41872" lon="5.09908">
        <ele>695.651123</ele>
        <time>2014-11-16T15:25:46Z</time>
      </trkpt>
      <trkpt lat="44.41872" lon="5.09888">
        <ele>696.612549</ele>
        <time>2014-11-16T15:25:58Z</time>
      </trkpt>
      <trkpt lat="44.41876" lon="5.09865">
        <ele>697.093018</ele>
        <time>2014-11-16T15:26:11Z</time>
      </trkpt>
      <trkpt lat="44.41874" lon="5.09839">
        <ele>698.054443</ele>
        <time>2014-11-16T15:26:25Z</time>
      </trkpt>
      <trkpt lat="44.41874" lon="5.09824">
        <ele>698.054443</ele>
        <time>2014-11-16T15:26:36Z</time>
      </trkpt>
      <trkpt lat="44.41874" lon="5.09824">
        <ele>697.57373</ele>
        <time>2014-11-16T15:26:47Z</time>
      </trkpt>
      <trkpt lat="44.41874" lon="5.09817">
        <ele>697.093018</ele>
        <time>2014-11-16T15:26:56Z</time>
      </trkpt>
      <trkpt lat="44.41878" lon="5.09814">
        <ele>697.093018</ele>
        <time>2014-11-16T15:27:03Z</time>
      </trkpt>
      <trkpt lat="44.4188" lon="5.09807">
        <ele>698.054443</ele>
        <time>2014-11-16T15:27:28Z</time>
      </trkpt>
      <trkpt lat="44.41886" lon="5.09797">
        <ele>698.054443</ele>
        <time>2014-11-16T15:27:39Z</time>
      </trkpt>
      <trkpt lat="44.41891" lon="5.09786">
        <ele>698.534912</ele>
        <time>2014-11-16T15:27:49Z</time>
      </trkpt>
      <trkpt lat="44.41898" lon="5.09776">
        <ele>699.496338</ele>
        <time>2014-11-16T15:28:03Z</time>
      </trkpt>
      <trkpt lat="44.41902" lon="5.09769">
        <ele>699.977051</ele>
        <time>2014-11-16T15:28:13Z</time>
      </trkpt>
      <trkpt lat="44.41903" lon="5.09767">
        <ele>699.977051</ele>
        <time>2014-11-16T15:28:15Z</time>
      </trkpt>
      <trkpt lat="44.41909" lon="5.09759">
        <ele>700.458008</ele>
        <time>2014-11-16T15:28:23Z</time>
      </trkpt>
      <trkpt lat="44.41915" lon="5.09751">
        <ele>700.458008</ele>
        <time>2014-11-16T15:28:31Z</time>
      </trkpt>
      <trkpt lat="44.41918" lon="5.09745">
        <ele>700.458008</ele>
        <time>2014-11-16T15:28:36Z</time>
      </trkpt>
      <trkpt lat="44.41917" lon="5.09741">
        <ele>700.458008</ele>
        <time>2014-11-16T15:28:39Z</time>
      </trkpt>
      <trkpt lat="44.41928" lon="5.09725">
        <ele>699.977051</ele>
        <time>2014-11-16T15:28:54Z</time>
      </trkpt>
      <trkpt lat="44.41937" lon="5.09718">
        <ele>699.977051</ele>
        <time>2014-11-16T15:29:04Z</time>
      </trkpt>
      <trkpt lat="44.4195" lon="5.09719">
        <ele>700.458008</ele>
        <time>2014-11-16T15:29:15Z</time>
      </trkpt>
      <trkpt lat="44.41953" lon="5.0972">
        <ele>699.977051</ele>
        <time>2014-11-16T15:29:17Z</time>
      </trkpt>
      <trkpt lat="44.41961" lon="5.09722">
        <ele>699.496338</ele>
        <time>2014-11-16T15:29:24Z</time>
      </trkpt>
      <trkpt lat="44.41968" lon="5.09724">
        <ele>699.496338</ele>
        <time>2014-11-16T15:29:31Z</time>
      </trkpt>
      <trkpt lat="44.4198" lon="5.0973">
        <ele>698.054443</ele>
        <time>2014-11-16T15:29:41Z</time>
      </trkpt>
      <trkpt lat="44.41984" lon="5.09732">
        <ele>698.054443</ele>
        <time>2014-11-16T15:29:44Z</time>
      </trkpt>
      <trkpt lat="44.41993" lon="5.09733">
        <ele>699.015625</ele>
        <time>2014-11-16T15:29:53Z</time>
      </trkpt>
      <trkpt lat="44.42004" lon="5.09735">
        <ele>698.054443</ele>
        <time>2014-11-16T15:30:04Z</time>
      </trkpt>
      <trkpt lat="44.4201" lon="5.09736">
        <ele>698.054443</ele>
        <time>2014-11-16T15:30:10Z</time>
      </trkpt>
      <trkpt lat="44.42021" lon="5.09738">
        <ele>698.534912</ele>
        <time>2014-11-16T15:30:23Z</time>
      </trkpt>
      <trkpt lat="44.42029" lon="5.09739">
        <ele>699.977051</ele>
        <time>2014-11-16T15:31:41Z</time>
      </trkpt>
      <trkpt lat="44.42036" lon="5.0974">
        <ele>701.419189</ele>
        <time>2014-11-16T15:31:48Z</time>
      </trkpt>
      <trkpt lat="44.42047" lon="5.09746">
        <ele>702.861084</ele>
        <time>2014-11-16T15:31:58Z</time>
      </trkpt>
      <trkpt lat="44.42056" lon="5.09739">
        <ele>701.899902</ele>
        <time>2014-11-16T15:32:06Z</time>
      </trkpt>
      <trkpt lat="44.42063" lon="5.09729">
        <ele>699.977051</ele>
        <time>2014-11-16T15:32:15Z</time>
      </trkpt>
      <trkpt lat="44.42074" lon="5.0972">
        <ele>698.534912</ele>
        <time>2014-11-16T15:32:24Z</time>
      </trkpt>
      <trkpt lat="44.42085" lon="5.09709">
        <ele>697.093018</ele>
        <time>2014-11-16T15:32:35Z</time>
      </trkpt>
      <trkpt lat="44.42097" lon="5.09704">
        <ele>694.689697</ele>
        <time>2014-11-16T15:32:45Z</time>
      </trkpt>
      <trkpt lat="44.42109" lon="5.09691">
        <ele>692.286621</ele>
        <time>2014-11-16T15:32:56Z</time>
      </trkpt>
      <trkpt lat="44.42108" lon="5.09684">
        <ele>692.286621</ele>
        <time>2014-11-16T15:33:08Z</time>
      </trkpt>
      <trkpt lat="44.42112" lon="5.09678">
        <ele>690.364014</ele>
        <time>2014-11-16T15:33:19Z</time>
      </trkpt>
      <trkpt lat="44.42122" lon="5.09667">
        <ele>687.47998</ele>
        <time>2014-11-16T15:33:32Z</time>
      </trkpt>
      <trkpt lat="44.42129" lon="5.09647">
        <ele>685.076904</ele>
        <time>2014-11-16T15:33:47Z</time>
      </trkpt>
      <trkpt lat="44.4214" lon="5.09625">
        <ele>682.192627</ele>
        <time>2014-11-16T15:34:03Z</time>
      </trkpt>
      <trkpt lat="44.42144" lon="5.09613">
        <ele>680.750732</ele>
        <time>2014-11-16T15:34:10Z</time>
      </trkpt>
      <trkpt lat="44.42151" lon="5.096">
        <ele>678.828125</ele>
        <time>2014-11-16T15:34:20Z</time>
      </trkpt>
      <trkpt lat="44.42152" lon="5.09587">
        <ele>677.38623</ele>
        <time>2014-11-16T15:34:27Z</time>
      </trkpt>
      <trkpt lat="44.42158" lon="5.09571">
        <ele>675.463379</ele>
        <time>2014-11-16T15:34:40Z</time>
      </trkpt>
      <trkpt lat="44.42164" lon="5.09553">
        <ele>672.57959</ele>
        <time>2014-11-16T15:34:54Z</time>
      </trkpt>
      <trkpt lat="44.42166" lon="5.09548">
        <ele>672.098877</ele>
        <time>2014-11-16T15:34:58Z</time>
      </trkpt>
      <trkpt lat="44.42174" lon="5.09532">
        <ele>669.215088</ele>
        <time>2014-11-16T15:35:09Z</time>
      </trkpt>
      <trkpt lat="44.42177" lon="5.0953">
        <ele>668.734375</ele>
        <time>2014-11-16T15:35:12Z</time>
      </trkpt>
      <trkpt lat="44.42177" lon="5.0952">
        <ele>668.253662</ele>
        <time>2014-11-16T15:35:19Z</time>
      </trkpt>
      <trkpt lat="44.42173" lon="5.09516">
        <ele>666.811523</ele>
        <time>2014-11-16T15:35:33Z</time>
      </trkpt>
      <trkpt lat="44.42171" lon="5.09516">
        <ele>666.811523</ele>
        <time>2014-11-16T15:35:35Z</time>
      </trkpt>
      <trkpt lat="44.42166" lon="5.09523">
        <ele>665.850342</ele>
        <time>2014-11-16T15:35:43Z</time>
      </trkpt>
      <trkpt lat="44.42151" lon="5.09527">
        <ele>663.92749</ele>
        <time>2014-11-16T15:35:56Z</time>
      </trkpt>
      <trkpt lat="44.42151" lon="5.09519">
        <ele>662.005127</ele>
        <time>2014-11-16T15:36:03Z</time>
      </trkpt>
      <trkpt lat="44.42158" lon="5.09506">
        <ele>659.121094</ele>
        <time>2014-11-16T15:36:14Z</time>
      </trkpt>
      <trkpt lat="44.42162" lon="5.09499">
        <ele>657.679199</ele>
        <time>2014-11-16T15:36:19Z</time>
      </trkpt>
      <trkpt lat="44.4217" lon="5.0948">
        <ele>656.237061</ele>
        <time>2014-11-16T15:36:29Z</time>
      </trkpt>
      <trkpt lat="44.42177" lon="5.09471">
        <ele>654.314697</ele>
        <time>2014-11-16T15:36:41Z</time>
      </trkpt>
      <trkpt lat="44.42184" lon="5.09462">
        <ele>653.353271</ele>
        <time>2014-11-16T15:36:54Z</time>
      </trkpt>
      <trkpt lat="44.4219" lon="5.09454">
        <ele>652.391846</ele>
        <time>2014-11-16T15:37:05Z</time>
      </trkpt>
      <trkpt lat="44.42194" lon="5.0945">
        <ele>651.43042</ele>
        <time>2014-11-16T15:37:12Z</time>
      </trkpt>
      <trkpt lat="44.42197" lon="5.09447">
        <ele>651.43042</ele>
        <time>2014-11-16T15:37:21Z</time>
      </trkpt>
      <trkpt lat="44.42204" lon="5.09436">
        <ele>649.507813</ele>
        <time>2014-11-16T15:37:32Z</time>
      </trkpt>
      <trkpt lat="44.42211" lon="5.09424">
        <ele>646.624023</ele>
        <time>2014-11-16T15:37:43Z</time>
      </trkpt>
      <trkpt lat="44.42216" lon="5.09412">
        <ele>643.259277</ele>
        <time>2014-11-16T15:37:54Z</time>
      </trkpt>
      <trkpt lat="44.42217" lon="5.09411">
        <ele>643.259277</ele>
        <time>2014-11-16T15:37:55Z</time>
      </trkpt>
      <trkpt lat="44.42224" lon="5.094">
        <ele>640.855957</ele>
        <time>2014-11-16T15:38:04Z</time>
      </trkpt>
      <trkpt lat="44.42232" lon="5.0939">
        <ele>638.933594</ele>
        <time>2014-11-16T15:38:13Z</time>
      </trkpt>
      <trkpt lat="44.42233" lon="5.09387">
        <ele>638.452881</ele>
        <time>2014-11-16T15:38:15Z</time>
      </trkpt>
      <trkpt lat="44.42231" lon="5.09384">
        <ele>637.491455</ele>
        <time>2014-11-16T15:38:19Z</time>
      </trkpt>
      <trkpt lat="44.42212" lon="5.09392">
        <ele>636.530273</ele>
        <time>2014-11-16T15:38:32Z</time>
      </trkpt>
      <trkpt lat="44.42197" lon="5.09399">
        <ele>635.568604</ele>
        <time>2014-11-16T15:38:42Z</time>
      </trkpt>
      <trkpt lat="44.42196" lon="5.094">
        <ele>635.568604</ele>
        <time>2014-11-16T15:38:43Z</time>
      </trkpt>
      <trkpt lat="44.42182" lon="5.09406">
        <ele>633.645996</ele>
        <time>2014-11-16T15:38:56Z</time>
      </trkpt>
      <trkpt lat="44.42183" lon="5.09401">
        <ele>632.684814</ele>
        <time>2014-11-16T15:39:00Z</time>
      </trkpt>
      <trkpt lat="44.42189" lon="5.09389">
        <ele>630.762207</ele>
        <time>2014-11-16T15:39:09Z</time>
      </trkpt>
      <trkpt lat="44.42194" lon="5.09379">
        <ele>629.320068</ele>
        <time>2014-11-16T15:39:16Z</time>
      </trkpt>
      <trkpt lat="44.42196" lon="5.09376">
        <ele>628.8396</ele>
        <time>2014-11-16T15:39:19Z</time>
      </trkpt>
      <trkpt lat="44.42203" lon="5.0936">
        <ele>626.916992</ele>
        <time>2014-11-16T15:39:30Z</time>
      </trkpt>
      <trkpt lat="44.42209" lon="5.09353">
        <ele>625.955566</ele>
        <time>2014-11-16T15:39:35Z</time>
      </trkpt>
      <trkpt lat="44.42219" lon="5.09338">
        <ele>622.591064</ele>
        <time>2014-11-16T15:39:45Z</time>
      </trkpt>
      <trkpt lat="44.42224" lon="5.09331">
        <ele>621.14917</ele>
        <time>2014-11-16T15:39:52Z</time>
      </trkpt>
      <trkpt lat="44.42228" lon="5.0932">
        <ele>618.745605</ele>
        <time>2014-11-16T15:40:01Z</time>
      </trkpt>
      <trkpt lat="44.42237" lon="5.09303">
        <ele>616.822998</ele>
        <time>2014-11-16T15:40:11Z</time>
      </trkpt>
      <trkpt lat="44.42248" lon="5.0928">
        <ele>614.419678</ele>
        <time>2014-11-16T15:40:23Z</time>
      </trkpt>
      <trkpt lat="44.4225" lon="5.09278">
        <ele>613.938965</ele>
        <time>2014-11-16T15:40:25Z</time>
      </trkpt>
      <trkpt lat="44.42265" lon="5.09268">
        <ele>611.535889</ele>
        <time>2014-11-16T15:40:35Z</time>
      </trkpt>
      <trkpt lat="44.42271" lon="5.09264">
        <ele>611.055176</ele>
        <time>2014-11-16T15:40:39Z</time>
      </trkpt>
      <trkpt lat="44.4228" lon="5.09256">
        <ele>609.132568</ele>
        <time>2014-11-16T15:40:48Z</time>
      </trkpt>
      <trkpt lat="44.42289" lon="5.09243">
        <ele>606.729248</ele>
        <time>2014-11-16T15:40:59Z</time>
      </trkpt>
      <trkpt lat="44.42289" lon="5.09232">
        <ele>604.806641</ele>
        <time>2014-11-16T15:41:07Z</time>
      </trkpt>
      <trkpt lat="44.42299" lon="5.09218">
        <ele>602.883789</ele>
        <time>2014-11-16T15:41:19Z</time>
      </trkpt>
      <trkpt lat="44.42304" lon="5.0919">
        <ele>599.519287</ele>
        <time>2014-11-16T15:41:39Z</time>
      </trkpt>
      <trkpt lat="44.42307" lon="5.09164">
        <ele>598.077393</ele>
        <time>2014-11-16T15:41:56Z</time>
      </trkpt>
      <trkpt lat="44.42306" lon="5.09135">
        <ele>598.077393</ele>
        <time>2014-11-16T15:42:14Z</time>
      </trkpt>
      <trkpt lat="44.42303" lon="5.09121">
        <ele>597.115967</ele>
        <time>2014-11-16T15:42:24Z</time>
      </trkpt>
      <trkpt lat="44.4231" lon="5.09104">
        <ele>595.193359</ele>
        <time>2014-11-16T15:42:37Z</time>
      </trkpt>
      <trkpt lat="44.42316" lon="5.09096">
        <ele>593.751465</ele>
        <time>2014-11-16T15:42:45Z</time>
      </trkpt>
      <trkpt lat="44.4233" lon="5.09085">
        <ele>591.348145</ele>
        <time>2014-11-16T15:43:00Z</time>
      </trkpt>
      <trkpt lat="44.42337" lon="5.09074">
        <ele>589.425537</ele>
        <time>2014-11-16T15:43:14Z</time>
      </trkpt>
      <trkpt lat="44.42334" lon="5.09068">
        <ele>588.464355</ele>
        <time>2014-11-16T15:43:58Z</time>
      </trkpt>
      <trkpt lat="44.42336" lon="5.09064">
        <ele>587.502686</ele>
        <time>2014-11-16T15:44:48Z</time>
      </trkpt>
      <trkpt lat="44.42338" lon="5.09064">
        <ele>587.021973</ele>
        <time>2014-11-16T15:45:06Z</time>
      </trkpt>
      <trkpt lat="44.42338" lon="5.09061">
        <ele>587.021973</ele>
        <time>2014-11-16T15:45:13Z</time>
      </trkpt>
      <trkpt lat="44.42341" lon="5.09061">
        <ele>585.580078</ele>
        <time>2014-11-16T15:46:11Z</time>
      </trkpt>
      <trkpt lat="44.42347" lon="5.09061">
        <ele>584.618896</ele>
        <time>2014-11-16T15:46:28Z</time>
      </trkpt>
      <trkpt lat="44.42351" lon="5.09056">
        <ele>583.657471</ele>
        <time>2014-11-16T15:46:41Z</time>
      </trkpt>
      <trkpt lat="44.42354" lon="5.09054">
        <ele>583.176758</ele>
        <time>2014-11-16T15:46:51Z</time>
      </trkpt>
      <trkpt lat="44.42351" lon="5.0905">
        <ele>582.696289</ele>
        <time>2014-11-16T15:47:01Z</time>
      </trkpt>
      <trkpt lat="44.42352" lon="5.09049">
        <ele>582.215576</ele>
        <time>2014-11-16T15:47:10Z</time>
      </trkpt>
      <trkpt lat="44.42352" lon="5.09045">
        <ele>578.370361</ele>
        <time>2014-11-16T15:47:20Z</time>
      </trkpt>
      <trkpt lat="44.42352" lon="5.09045">
        <ele>581.734863</ele>
        <time>2014-11-16T15:47:23Z</time>
      </trkpt>
      <trkpt lat="44.42352" lon="5.09055">
        <ele>583.176758</ele>
        <time>2014-11-16T15:47:45Z</time>
      </trkpt>
      <trkpt lat="44.4235" lon="5.0906">
        <ele>583.657471</ele>
        <time>2014-11-16T15:47:56Z</time>
      </trkpt>
      <trkpt lat="44.4235" lon="5.09066">
        <ele>584.618896</ele>
        <time>2014-11-16T15:48:14Z</time>
      </trkpt>
      <trkpt lat="44.42351" lon="5.09068">
        <ele>584.138184</ele>
        <time>2014-11-16T15:48:27Z</time>
      </trkpt>
      <trkpt lat="44.42353" lon="5.09055">
        <ele>582.696289</ele>
        <time>2014-11-16T15:48:42Z</time>
      </trkpt>
      <trkpt lat="44.42355" lon="5.09043">
        <ele>581.734863</ele>
        <time>2014-11-16T15:48:59Z</time>
      </trkpt>
      <trkpt lat="44.42357" lon="5.09043">
        <ele>581.734863</ele>
        <time>2014-11-16T15:49:14Z</time>
      </trkpt>
      <trkpt lat="44.42366" lon="5.09035">
        <ele>580.292969</ele>
        <time>2014-11-16T15:49:28Z</time>
      </trkpt>
      <trkpt lat="44.4237" lon="5.09031">
        <ele>579.331543</ele>
        <time>2014-11-16T15:49:41Z</time>
      </trkpt>
      <trkpt lat="44.42377" lon="5.09029">
        <ele>578.370361</ele>
        <time>2014-11-16T15:49:51Z</time>
      </trkpt>
      <trkpt lat="44.42388" lon="5.09024">
        <ele>575.486328</ele>
        <time>2014-11-16T15:50:08Z</time>
      </trkpt>
      <trkpt lat="44.42396" lon="5.09022">
        <ele>574.044434</ele>
        <time>2014-11-16T15:50:19Z</time>
      </trkpt>
      <trkpt lat="44.42401" lon="5.09017">
        <ele>572.602539</ele>
        <time>2014-11-16T15:50:28Z</time>
      </trkpt>
      <trkpt lat="44.4241" lon="5.09007">
        <ele>570.198975</ele>
        <time>2014-11-16T15:50:41Z</time>
      </trkpt>
      <trkpt lat="44.42419" lon="5.08992">
        <ele>567.795654</ele>
        <time>2014-11-16T15:50:58Z</time>
      </trkpt>
      <trkpt lat="44.42424" lon="5.08983">
        <ele>565.873291</ele>
        <time>2014-11-16T15:51:11Z</time>
      </trkpt>
      <trkpt lat="44.42433" lon="5.08969">
        <ele>563.469971</ele>
        <time>2014-11-16T15:51:26Z</time>
      </trkpt>
      <trkpt lat="44.4244" lon="5.08957">
        <ele>561.06665</ele>
        <time>2014-11-16T15:51:41Z</time>
      </trkpt>
      <trkpt lat="44.42442" lon="5.08952">
        <ele>560.585938</ele>
        <time>2014-11-16T15:51:51Z</time>
      </trkpt>
      <trkpt lat="44.4245" lon="5.08944">
        <ele>558.66333</ele>
        <time>2014-11-16T15:52:05Z</time>
      </trkpt>
      <trkpt lat="44.42459" lon="5.08929">
        <ele>556.26001</ele>
        <time>2014-11-16T15:52:21Z</time>
      </trkpt>
      <trkpt lat="44.42464" lon="5.08917">
        <ele>554.337402</ele>
        <time>2014-11-16T15:52:32Z</time>
      </trkpt>
      <trkpt lat="44.42472" lon="5.08905">
        <ele>551.934082</ele>
        <time>2014-11-16T15:52:46Z</time>
      </trkpt>
      <trkpt lat="44.4248" lon="5.0889">
        <ele>550.011475</ele>
        <time>2014-11-16T15:53:01Z</time>
      </trkpt>
      <trkpt lat="44.42484" lon="5.08884">
        <ele>548.088867</ele>
        <time>2014-11-16T15:53:10Z</time>
      </trkpt>
      <trkpt lat="44.42492" lon="5.08873">
        <ele>546.16626</ele>
        <time>2014-11-16T15:53:24Z</time>
      </trkpt>
      <trkpt lat="44.42497" lon="5.08864">
        <ele>544.724243</ele>
        <time>2014-11-16T15:53:34Z</time>
      </trkpt>
      <trkpt lat="44.42504" lon="5.08854">
        <ele>543.282104</ele>
        <time>2014-11-16T15:53:45Z</time>
      </trkpt>
      <trkpt lat="44.42512" lon="5.08842">
        <ele>540.398315</ele>
        <time>2014-11-16T15:54:00Z</time>
      </trkpt>
      <trkpt lat="44.42521" lon="5.08828">
        <ele>537.033691</ele>
        <time>2014-11-16T15:54:16Z</time>
      </trkpt>
      <trkpt lat="44.42527" lon="5.0882">
        <ele>535.110962</ele>
        <time>2014-11-16T15:54:27Z</time>
      </trkpt>
      <trkpt lat="44.42534" lon="5.08809">
        <ele>532.707764</ele>
        <time>2014-11-16T15:54:38Z</time>
      </trkpt>
      <trkpt lat="44.42541" lon="5.08799">
        <ele>529.82373</ele>
        <time>2014-11-16T15:54:52Z</time>
      </trkpt>
      <trkpt lat="44.42548" lon="5.08789">
        <ele>527.42041</ele>
        <time>2014-11-16T15:55:05Z</time>
      </trkpt>
      <trkpt lat="44.4255" lon="5.08786">
        <ele>526.939819</ele>
        <time>2014-11-16T15:55:18Z</time>
      </trkpt>
      <trkpt lat="44.42553" lon="5.08779">
        <ele>525.978394</ele>
        <time>2014-11-16T15:55:25Z</time>
      </trkpt>
      <trkpt lat="44.42559" lon="5.08769">
        <ele>523.575195</ele>
        <time>2014-11-16T15:55:36Z</time>
      </trkpt>
      <trkpt lat="44.42562" lon="5.0876">
        <ele>522.613892</ele>
        <time>2014-11-16T15:55:44Z</time>
      </trkpt>
      <trkpt lat="44.42554" lon="5.08751">
        <ele>522.133179</ele>
        <time>2014-11-16T15:55:53Z</time>
      </trkpt>
      <trkpt lat="44.42542" lon="5.08738">
        <ele>520.691284</ele>
        <time>2014-11-16T15:56:07Z</time>
      </trkpt>
      <trkpt lat="44.42539" lon="5.08724">
        <ele>518.287842</ele>
        <time>2014-11-16T15:56:18Z</time>
      </trkpt>
      <trkpt lat="44.42535" lon="5.08707">
        <ele>515.404053</ele>
        <time>2014-11-16T15:56:30Z</time>
      </trkpt>
      <trkpt lat="44.42527" lon="5.08693">
        <ele>512.039429</ele>
        <time>2014-11-16T15:56:42Z</time>
      </trkpt>
      <trkpt lat="44.42518" lon="5.0868">
        <ele>509.636108</ele>
        <time>2014-11-16T15:56:59Z</time>
      </trkpt>
      <trkpt lat="44.42514" lon="5.08671">
        <ele>507.232788</ele>
        <time>2014-11-16T15:57:11Z</time>
      </trkpt>
      <trkpt lat="44.4251" lon="5.08655">
        <ele>504.829468</ele>
        <time>2014-11-16T15:57:26Z</time>
      </trkpt>
      <trkpt lat="44.4251" lon="5.08644">
        <ele>503.387451</ele>
        <time>2014-11-16T15:57:37Z</time>
      </trkpt>
      <trkpt lat="44.42511" lon="5.08642">
        <ele>503.387451</ele>
        <time>2014-11-16T15:57:53Z</time>
      </trkpt>
      <trkpt lat="44.42512" lon="5.08638">
        <ele>503.387451</ele>
        <time>2014-11-16T15:59:15Z</time>
      </trkpt>
      <trkpt lat="44.42509" lon="5.08632">
        <ele>503.387451</ele>
        <time>2014-11-16T15:59:31Z</time>
      </trkpt>
      <trkpt lat="44.42508" lon="5.08628">
        <ele>503.387451</ele>
        <time>2014-11-16T15:59:42Z</time>
      </trkpt>
      <trkpt lat="44.42509" lon="5.08627">
        <ele>503.868164</ele>
        <time>2014-11-16T15:59:57Z</time>
      </trkpt>
      <trkpt lat="44.42509" lon="5.08625">
        <ele>503.868164</ele>
        <time>2014-11-16T16:00:13Z</time>
      </trkpt>
      <trkpt lat="44.42507" lon="5.08621">
        <ele>504.348877</ele>
        <time>2014-11-16T16:00:51Z</time>
      </trkpt>
      <trkpt lat="44.4251" lon="5.08611">
        <ele>504.829468</ele>
        <time>2014-11-16T16:02:50Z</time>
      </trkpt>
      <trkpt lat="44.42513" lon="5.08597">
        <ele>505.790894</ele>
        <time>2014-11-16T16:03:03Z</time>
      </trkpt>
      <trkpt lat="44.42517" lon="5.08584">
        <ele>506.271484</ele>
        <time>2014-11-16T16:03:14Z</time>
      </trkpt>
      <trkpt lat="44.42518" lon="5.08583">
        <ele>506.271484</ele>
        <time>2014-11-16T16:03:15Z</time>
      </trkpt>
      <trkpt lat="44.42531" lon="5.08568">
        <ele>507.232788</ele>
        <time>2014-11-16T16:03:30Z</time>
      </trkpt>
      <trkpt lat="44.42538" lon="5.08561">
        <ele>507.232788</ele>
        <time>2014-11-16T16:03:40Z</time>
      </trkpt>
      <trkpt lat="44.42542" lon="5.08547">
        <ele>507.713501</ele>
        <time>2014-11-16T16:03:51Z</time>
      </trkpt>
      <trkpt lat="44.42541" lon="5.08534">
        <ele>506.752075</ele>
        <time>2014-11-16T16:04:03Z</time>
      </trkpt>
      <trkpt lat="44.42537" lon="5.08524">
        <ele>505.790894</ele>
        <time>2014-11-16T16:04:13Z</time>
      </trkpt>
      <trkpt lat="44.42534" lon="5.08515">
        <ele>504.829468</ele>
        <time>2014-11-16T16:04:22Z</time>
      </trkpt>
      <trkpt lat="44.4253" lon="5.08501">
        <ele>503.387451</ele>
        <time>2014-11-16T16:04:35Z</time>
      </trkpt>
      <trkpt lat="44.42527" lon="5.08487">
        <ele>501.945557</ele>
        <time>2014-11-16T16:04:46Z</time>
      </trkpt>
      <trkpt lat="44.42521" lon="5.08467">
        <ele>501.464844</ele>
        <time>2014-11-16T16:05:01Z</time>
      </trkpt>
      <trkpt lat="44.42516" lon="5.08449">
        <ele>500.984131</ele>
        <time>2014-11-16T16:05:12Z</time>
      </trkpt>
      <trkpt lat="44.42518" lon="5.08436">
        <ele>500.50354</ele>
        <time>2014-11-16T16:05:22Z</time>
      </trkpt>
      <trkpt lat="44.42521" lon="5.08421">
        <ele>500.022949</ele>
        <time>2014-11-16T16:05:32Z</time>
      </trkpt>
      <trkpt lat="44.42523" lon="5.08419">
        <ele>500.022949</ele>
        <time>2014-11-16T16:05:35Z</time>
      </trkpt>
      <trkpt lat="44.42529" lon="5.08409">
        <ele>499.542236</ele>
        <time>2014-11-16T16:05:44Z</time>
      </trkpt>
      <trkpt lat="44.42535" lon="5.08402">
        <ele>500.022949</ele>
        <time>2014-11-16T16:05:53Z</time>
      </trkpt>
      <trkpt lat="44.42544" lon="5.08393">
        <ele>499.542236</ele>
        <time>2014-11-16T16:06:05Z</time>
      </trkpt>
      <trkpt lat="44.42551" lon="5.08396">
        <ele>500.022949</ele>
        <time>2014-11-16T16:06:14Z</time>
      </trkpt>
      <trkpt lat="44.42558" lon="5.0841">
        <ele>500.50354</ele>
        <time>2014-11-16T16:06:25Z</time>
      </trkpt>
      <trkpt lat="44.42565" lon="5.08419">
        <ele>501.464844</ele>
        <time>2014-11-16T16:06:33Z</time>
      </trkpt>
      <trkpt lat="44.42567" lon="5.0842">
        <ele>501.945557</ele>
        <time>2014-11-16T16:06:35Z</time>
      </trkpt>
      <trkpt lat="44.42577" lon="5.08422">
        <ele>502.906738</ele>
        <time>2014-11-16T16:06:50Z</time>
      </trkpt>
      <trkpt lat="44.42593" lon="5.08425">
        <ele>504.829468</ele>
        <time>2014-11-16T16:07:08Z</time>
      </trkpt>
      <trkpt lat="44.42604" lon="5.08429">
        <ele>505.790894</ele>
        <time>2014-11-16T16:07:20Z</time>
      </trkpt>
      <trkpt lat="44.42614" lon="5.08437">
        <ele>506.752075</ele>
        <time>2014-11-16T16:07:31Z</time>
      </trkpt>
      <trkpt lat="44.42626" lon="5.08436">
        <ele>508.194092</ele>
        <time>2014-11-16T16:07:47Z</time>
      </trkpt>
      <trkpt lat="44.42639" lon="5.08437">
        <ele>509.636108</ele>
        <time>2014-11-16T16:08:01Z</time>
      </trkpt>
      <trkpt lat="44.42647" lon="5.08438">
        <ele>510.59729</ele>
        <time>2014-11-16T16:08:07Z</time>
      </trkpt>
      <trkpt lat="44.42656" lon="5.08438">
        <ele>511.558716</ele>
        <time>2014-11-16T16:08:17Z</time>
      </trkpt>
      <trkpt lat="44.42663" lon="5.08438">
        <ele>512.52002</ele>
        <time>2014-11-16T16:08:25Z</time>
      </trkpt>
      <trkpt lat="44.42677" lon="5.08435">
        <ele>513.481445</ele>
        <time>2014-11-16T16:08:40Z</time>
      </trkpt>
      <trkpt lat="44.42684" lon="5.08431">
        <ele>513.000732</ele>
        <time>2014-11-16T16:08:49Z</time>
      </trkpt>
      <trkpt lat="44.42686" lon="5.08425">
        <ele>513.000732</ele>
        <time>2014-11-16T16:09:02Z</time>
      </trkpt>
      <trkpt lat="44.42685" lon="5.08429">
        <ele>513.000732</ele>
        <time>2014-11-16T16:09:09Z</time>
      </trkpt>
      <trkpt lat="44.42678" lon="5.08436">
        <ele>513.000732</ele>
        <time>2014-11-16T16:09:17Z</time>
      </trkpt>
      <trkpt lat="44.42678" lon="5.08439">
        <ele>513.481445</ele>
        <time>2014-11-16T16:09:22Z</time>
      </trkpt>
      <trkpt lat="44.42681" lon="5.08441">
        <ele>513.962036</ele>
        <time>2014-11-16T16:09:25Z</time>
      </trkpt>
      <trkpt lat="44.42693" lon="5.0844">
        <ele>514.442627</ele>
        <time>2014-11-16T16:09:36Z</time>
      </trkpt>
      <trkpt lat="44.42704" lon="5.08436">
        <ele>515.884644</ele>
        <time>2014-11-16T16:09:46Z</time>
      </trkpt>
      <trkpt lat="44.42711" lon="5.08432">
        <ele>517.32666</ele>
        <time>2014-11-16T16:09:55Z</time>
      </trkpt>
      <trkpt lat="44.42723" lon="5.08424">
        <ele>519.729858</ele>
        <time>2014-11-16T16:10:12Z</time>
      </trkpt>
      <trkpt lat="44.42734" lon="5.08419">
        <ele>522.133179</ele>
        <time>2014-11-16T16:10:27Z</time>
      </trkpt>
      <trkpt lat="44.42752" lon="5.08416">
        <ele>524.536499</ele>
        <time>2014-11-16T16:10:43Z</time>
      </trkpt>
      <trkpt lat="44.42765" lon="5.0841">
        <ele>527.42041</ele>
        <time>2014-11-16T16:10:57Z</time>
      </trkpt>
      <trkpt lat="44.42774" lon="5.08406">
        <ele>528.381836</ele>
        <time>2014-11-16T16:11:06Z</time>
      </trkpt>
      <trkpt lat="44.42786" lon="5.08402">
        <ele>530.304443</ele>
        <time>2014-11-16T16:11:21Z</time>
      </trkpt>
      <trkpt lat="44.4279" lon="5.08402">
        <ele>530.304443</ele>
        <time>2014-11-16T16:11:32Z</time>
      </trkpt>
      <trkpt lat="44.42791" lon="5.08401">
        <ele>531.746338</ele>
        <time>2014-11-16T16:14:34Z</time>
      </trkpt>
      <trkpt lat="44.42792" lon="5.08395">
        <ele>532.227051</ele>
        <time>2014-11-16T16:15:02Z</time>
      </trkpt>
      <trkpt lat="44.42788" lon="5.08391">
        <ele>532.227051</ele>
        <time>2014-11-16T16:15:47Z</time>
      </trkpt>
      <trkpt lat="44.42788" lon="5.08391">
        <ele>532.227051</ele>
        <time>2014-11-16T16:15:51Z</time>
      </trkpt>
    </trkseg>
  </trk>
</gpx>